[[{"header":{"parameterUnit":"m.s-1","parameterCategory":1,"la1":30.6,"la2":29.2853,"lo1":-89.7004,"lo2":-87.6739,"dy":0.0162,"dx":0.0183,"nx":112,"ny":82,"refTime":"2026-03-15T00:00:00:Z","depth":0,"parameterNumber":2,"parameterNumberName":"U-component_of_WINDS"},"data":[0.0,0.0,0.0,0.0,0.0,0.0,0.0,0.0,0.0,0.0,0.0,0.0,0.0,0.0,0.0,0.0,0.0,0.0,0.0,0.0,0.0,0.0,0.0,0.0,0.0,0.0,0.0,0.0,0.0,0.0,0.0,0.0,0.0,0.0,0.0,0.0,0.0,0.0,0.0,0.0,0.0,0.0,0.0,0.0,0.0,0.0,0.0,0.0,0.0,0.0,0.0,0.0,0.0,0.0,0.0,0.0,0.0,0.0,0.0,0.0,0.0,0.0,0.0,0.0,0.0,0.0,0.0,0.0,0.0,0.0,0.0,0.0,0.0,0.0,0.0,0.0,0.0,0.0,0.0,0.0,0.0,0.0,0.0,0.0,0.0,0.0,0.0,0.0,0.0,0.0,-7.3159,-7.6349,-7.8718,-8.0101,-8.0184,-7.7883,-7.5921,-7.468,0.0,0.0,0.0,0.0,0.0,0.0,0.0,0.0,0.0,0.0,0.0,0.0,0.0,0.0,0.0,0.0,0.0,0.0,0.0,0.0,0.0,0.0,0.0,0.0,0.0,0.0,0.0,0.0,0.0,0.0,0.0,0.0,0.0,0.0,0.0,0.0,0.0,0.0,0.0,0.0,0.0,0.0,0.0,0.0,0.0,0.0,0.0,0.0,0.0,0.0,0.0,0.0,0.0,0.0,0.0,0.0,0.0,0.0,0.0,0.0,0.0,0.0,0.0,0.0,0.0,0.0,0.0,0.0,0.0,0.0,0.0,0.0,0.0,0.0,0.0,0.0,0.0,0.0,0.0,0.0,0.0,0.0,0.0,0.0,0.0,0.0,0.0,0.0,0.0,0.0,0.0,0.0,0.0,0.0,0.0,0.0,0.0,0.0,0.0,0.0,0.0,0.0,0.0,0.0,-7.4222,-7.7257,-7.8966,-7.9701,-7.9329,-7.6303,-7.4489,-7.4603,0.0,0.0,0.0,0.0,0.0,0.0,0.0,0.0,0.0,0.0,0.0,0.0,0.0,0.0,0.0,0.0,0.0,0.0,0.0,0.0,0.0,0.0,0.0,0.0,0.0,0.0,0.0,0.0,0.0,0.0,0.0,0.0,0.0,0.0,0.0,0.0,0.0,0.0,0.0,0.0,0.0,0.0,0.0,0.0,0.0,0.0,0.0,0.0,0.0,0.0,0.0,0.0,0.0,0.0,0.0,0.0,0.0,0.0,0.0,0.0,0.0,0.0,0.0,0.0,0.0,0.0,0.0,0.0,0.0,0.0,0.0,0.0,0.0,0.0,0.0,0.0,0.0,0.0,0.0,0.0,0.0,0.0,0.0,0.0,0.0,0.0,0.0,0.0,0.0,0.0,0.0,0.0,0.0,0.0,0.0,0.0,0.0,0.0,0.0,0.0,0.0,0.0,0.0,-7.3922,-7.5209,-7.7398,-7.8116,-7.8412,-7.8409,-7.5689,-7.3953,-7.3905,-7.1437,0.0,0.0,0.0,0.0,0.0,0.0,0.0,0.0,0.0,0.0,0.0,0.0,0.0,0.0,0.0,0.0,0.0,0.0,0.0,0.0,0.0,0.0,0.0,0.0,0.0,0.0,0.0,0.0,0.0,0.0,0.0,0.0,0.0,0.0,0.0,0.0,0.0,0.0,0.0,0.0,0.0,0.0,0.0,0.0,0.0,0.0,0.0,0.0,0.0,0.0,0.0,0.0,0.0,0.0,0.0,0.0,0.0,0.0,0.0,0.0,0.0,0.0,0.0,0.0,0.0,0.0,0.0,0.0,0.0,0.0,0.0,0.0,0.0,0.0,0.0,0.0,0.0,0.0,0.0,0.0,0.0,0.0,0.0,0.0,0.0,0.0,0.0,0.0,0.0,0.0,0.0,0.0,0.0,0.0,0.0,0.0,0.0,0.0,0.0,0.0,0.0,0.0,-7.4877,-7.5886,-7.7349,-7.7392,-7.7331,-7.7427,-7.4958,-7.323,-7.2924,-7.035,0.0,0.0,0.0,0.0,0.0,0.0,0.0,0.0,0.0,0.0,0.0,0.0,0.0,0.0,0.0,0.0,0.0,0.0,0.0,0.0,0.0,0.0,0.0,0.0,0.0,0.0,0.0,0.0,0.0,0.0,0.0,0.0,0.0,0.0,0.0,0.0,0.0,0.0,0.0,0.0,0.0,0.0,0.0,0.0,0.0,0.0,0.0,0.0,0.0,0.0,0.0,0.0,0.0,0.0,0.0,0.0,0.0,0.0,0.0,0.0,0.0,0.0,0.0,0.0,0.0,0.0,0.0,0.0,0.0,0.0,0.0,0.0,0.0,0.0,0.0,0.0,0.0,0.0,0.0,0.0,0.0,0.0,0.0,0.0,0.0,0.0,0.0,0.0,0.0,0.0,0.0,0.0,0.0,0.0,0.0,0.0,0.0,0.0,0.0,0.0,0.0,0.0,-7.4877,-7.5886,-7.7349,-7.7392,-7.7057,-7.6438,-7.3437,-7.1665,-7.1792,-6.8826,0.0,0.0,0.0,0.0,0.0,0.0,0.0,0.0,0.0,0.0,0.0,0.0,0.0,0.0,0.0,0.0,0.0,0.0,0.0,0.0,0.0,0.0,0.0,0.0,0.0,0.0,0.0,0.0,0.0,0.0,0.0,0.0,0.0,0.0,0.0,0.0,0.0,0.0,0.0,0.0,0.0,0.0,0.0,0.0,0.0,0.0,0.0,0.0,0.0,0.0,0.0,0.0,0.0,0.0,0.0,0.0,0.0,0.0,0.0,0.0,0.0,0.0,0.0,0.0,0.0,0.0,0.0,0.0,0.0,0.0,0.0,0.0,0.0,0.0,0.0,0.0,0.0,0.0,0.0,0.0,0.0,0.0,0.0,0.0,0.0,0.0,0.0,0.0,0.0,0.0,0.0,0.0,0.0,0.0,0.0,0.0,0.0,0.0,0.0,0.0,0.0,0.0,-7.3211,-7.3721,0.0,-7.5401,-7.5064,-7.5442,-7.3001,-7.129,-7.0914,0.0,0.0,0.0,0.0,0.0,0.0,0.0,0.0,0.0,0.0,0.0,0.0,0.0,0.0,0.0,0.0,0.0,0.0,0.0,0.0,0.0,0.0,0.0,0.0,0.0,0.0,0.0,0.0,0.0,0.0,0.0,0.0,0.0,0.0,0.0,0.0,0.0,0.0,0.0,0.0,0.0,0.0,0.0,0.0,0.0,0.0,0.0,0.0,0.0,0.0,0.0,0.0,0.0,0.0,0.0,0.0,0.0,0.0,0.0,0.0,0.0,0.0,0.0,0.0,0.0,0.0,0.0,0.0,0.0,0.0,0.0,0.0,0.0,0.0,0.0,0.0,0.0,0.0,0.0,0.0,0.0,0.0,0.0,0.0,0.0,0.0,0.0,0.0,0.0,0.0,0.0,0.0,0.0,0.0,0.0,0.0,0.0,0.0,0.0,0.0,0.0,0.0,-7.2453,-7.1965,-7.2254,0.0,-7.4024,-7.3674,-7.4062,-7.195,-7.037,-6.9946,0.0,0.0,0.0,0.0,0.0,0.0,0.0,0.0,0.0,0.0,0.0,0.0,0.0,0.0,0.0,0.0,0.0,0.0,0.0,0.0,0.0,0.0,0.0,0.0,0.0,0.0,0.0,0.0,0.0,0.0,0.0,0.0,0.0,0.0,0.0,0.0,0.0,0.0,0.0,0.0,0.0,0.0,0.0,0.0,0.0,0.0,0.0,0.0,0.0,0.0,0.0,0.0,0.0,0.0,0.0,0.0,0.0,0.0,0.0,0.0,0.0,0.0,0.0,0.0,0.0,0.0,0.0,0.0,0.0,0.0,0.0,0.0,0.0,0.0,0.0,0.0,0.0,0.0,0.0,0.0,0.0,0.0,0.0,0.0,0.0,0.0,0.0,0.0,0.0,0.0,0.0,0.0,0.0,0.0,0.0,0.0,0.0,0.0,0.0,0.0,0.0,0.0,-7.1395,-7.151,-7.1968,-7.3508,-7.3562,-7.3129,-7.2283,-6.9969,-6.8694,0.0,0.0,0.0,0.0,0.0,0.0,0.0,0.0,0.0,0.0,0.0,0.0,0.0,0.0,0.0,0.0,0.0,0.0,0.0,0.0,0.0,0.0,0.0,0.0,0.0,0.0,0.0,0.0,0.0,0.0,0.0,0.0,0.0,0.0,0.0,0.0,0.0,0.0,0.0,0.0,0.0,0.0,0.0,0.0,0.0,0.0,0.0,0.0,0.0,0.0,0.0,0.0,0.0,0.0,0.0,0.0,0.0,0.0,0.0,0.0,0.0,0.0,0.0,0.0,0.0,0.0,0.0,0.0,0.0,0.0,0.0,0.0,0.0,0.0,0.0,0.0,0.0,0.0,0.0,0.0,0.0,0.0,0.0,0.0,0.0,0.0,0.0,0.0,0.0,0.0,0.0,0.0,0.0,0.0,0.0,0.0,0.0,0.0,0.0,0.0,0.0,0.0,0.0,-7.0759,-7.0745,-7.1176,-7.2831,-7.2209,-7.1822,-7.2168,-6.9981,-6.8384,-6.7938,0.0,0.0,0.0,0.0,0.0,0.0,0.0,0.0,0.0,0.0,0.0,0.0,0.0,0.0,0.0,0.0,0.0,0.0,0.0,0.0,0.0,0.0,0.0,0.0,0.0,0.0,0.0,0.0,0.0,0.0,0.0,0.0,0.0,0.0,0.0,0.0,0.0,0.0,0.0,0.0,0.0,0.0,0.0,0.0,0.0,0.0,0.0,0.0,0.0,0.0,0.0,0.0,0.0,0.0,0.0,0.0,0.0,0.0,0.0,0.0,0.0,0.0,0.0,0.0,0.0,0.0,0.0,0.0,0.0,0.0,0.0,0.0,0.0,0.0,0.0,0.0,0.0,0.0,0.0,0.0,0.0,0.0,0.0,0.0,0.0,0.0,0.0,0.0,0.0,0.0,0.0,0.0,0.0,0.0,0.0,0.0,0.0,0.0,0.0,0.0,0.0,0.0,-6.996,-6.9868,-7.0346,-7.2025,-7.1418,-7.1091,-7.1629,-6.9731,-6.8083,-6.6998,0.0,0.0,0.0,0.0,0.0,0.0,0.0,0.0,0.0,0.0,0.0,0.0,0.0,0.0,0.0,0.0,0.0,0.0,0.0,0.0,0.0,0.0,0.0,0.0,0.0,0.0,0.0,0.0,0.0,0.0,0.0,0.0,0.0,0.0,0.0,0.0,0.0,0.0,0.0,0.0,0.0,0.0,0.0,0.0,0.0,0.0,0.0,0.0,0.0,0.0,0.0,0.0,0.0,0.0,0.0,0.0,0.0,0.0,0.0,0.0,0.0,0.0,0.0,0.0,0.0,0.0,0.0,0.0,0.0,0.0,0.0,0.0,0.0,0.0,0.0,0.0,0.0,0.0,0.0,0.0,0.0,0.0,0.0,0.0,0.0,0.0,0.0,0.0,0.0,0.0,0.0,0.0,0.0,0.0,0.0,0.0,0.0,0.0,0.0,0.0,0.0,0.0,-6.9171,-6.9161,-6.9639,-7.1301,-7.1136,-7.0898,-7.0898,-6.936,-6.7744,-6.6185,0.0,0.0,0.0,0.0,0.0,0.0,0.0,0.0,0.0,0.0,0.0,0.0,0.0,0.0,0.0,0.0,0.0,0.0,0.0,0.0,0.0,0.0,0.0,0.0,0.0,0.0,0.0,0.0,0.0,0.0,0.0,0.0,0.0,0.0,0.0,0.0,0.0,0.0,0.0,0.0,0.0,0.0,0.0,0.0,0.0,0.0,0.0,0.0,0.0,0.0,0.0,0.0,0.0,0.0,0.0,0.0,0.0,0.0,0.0,0.0,-7.043,-6.9955,0.0,0.0,0.0,0.0,0.0,0.0,0.0,0.0,0.0,0.0,0.0,0.0,0.0,0.0,0.0,0.0,0.0,0.0,0.0,0.0,0.0,0.0,0.0,0.0,0.0,0.0,0.0,0.0,0.0,0.0,0.0,0.0,0.0,0.0,0.0,0.0,0.0,0.0,0.0,0.0,-6.9055,-6.961,-7.0287,-7.1193,-7.1067,-7.0898,-7.0898,-6.936,-6.7706,-6.6059,-6.361,0.0,0.0,0.0,0.0,0.0,0.0,0.0,0.0,0.0,0.0,0.0,0.0,0.0,0.0,0.0,0.0,0.0,0.0,0.0,0.0,0.0,0.0,0.0,0.0,0.0,0.0,0.0,0.0,0.0,0.0,0.0,0.0,0.0,0.0,0.0,0.0,0.0,0.0,0.0,0.0,0.0,0.0,0.0,0.0,0.0,0.0,0.0,0.0,0.0,0.0,0.0,0.0,0.0,0.0,0.0,0.0,0.0,0.0,0.0,-7.2902,-7.1805,0.0,0.0,0.0,0.0,0.0,0.0,0.0,0.0,0.0,0.0,0.0,0.0,0.0,0.0,0.0,0.0,0.0,0.0,0.0,0.0,0.0,0.0,0.0,0.0,0.0,0.0,0.0,0.0,0.0,0.0,0.0,0.0,0.0,0.0,0.0,0.0,0.0,0.0,0.0,0.0,-6.8928,-6.9381,-6.9998,-7.1081,-7.103,-7.0898,-7.0898,-6.936,-6.768,-6.6024,-6.3195,0.0,0.0,0.0,0.0,0.0,0.0,0.0,0.0,0.0,0.0,0.0,0.0,0.0,0.0,0.0,0.0,0.0,0.0,0.0,0.0,0.0,0.0,0.0,0.0,0.0,0.0,0.0,0.0,0.0,0.0,0.0,0.0,0.0,0.0,0.0,0.0,0.0,0.0,0.0,0.0,0.0,0.0,0.0,0.0,0.0,0.0,0.0,0.0,0.0,0.0,0.0,0.0,0.0,-7.6483,-7.6951,-7.7615,-7.7572,-7.7183,-7.6522,-7.5972,-7.4488,-7.2575,-7.3932,0.0,0.0,0.0,0.0,0.0,0.0,0.0,0.0,0.0,0.0,0.0,0.0,0.0,0.0,0.0,0.0,0.0,0.0,0.0,0.0,0.0,0.0,-6.8345,-6.8345,-6.8891,-6.878,-6.6523,0.0,0.0,0.0,0.0,0.0,0.0,0.0,0.0,0.0,0.0,0.0,-6.837,-6.863,-6.9177,-7.0562,-7.0581,-7.0475,-7.0475,-6.9052,-6.7513,-6.6013,-6.2906,-6.0443,0.0,0.0,0.0,0.0,0.0,0.0,0.0,0.0,0.0,0.0,0.0,0.0,0.0,0.0,0.0,0.0,0.0,0.0,0.0,0.0,0.0,0.0,0.0,0.0,0.0,0.0,0.0,0.0,0.0,0.0,0.0,0.0,-7.6843,-7.784,0.0,0.0,0.0,0.0,0.0,0.0,0.0,0.0,0.0,0.0,0.0,0.0,0.0,-7.4804,-7.5547,-7.7187,-7.8047,-7.8164,-7.8867,-7.9258,-7.9375,-7.9375,-7.9296,-7.9219,-7.9882,0.0,-7.4255,-7.4488,0.0,0.0,0.0,0.0,0.0,0.0,0.0,0.0,0.0,0.0,0.0,0.0,0.0,0.0,0.0,0.0,0.0,0.0,0.0,0.0,0.0,0.0,-6.9221,-6.9221,-6.9308,-6.9082,-6.7991,-6.7958,-6.7612,-6.5935,-6.5702,-6.5504,0.0,0.0,0.0,0.0,0.0,0.0,-6.6562,-6.722,-6.7912,-6.8706,-6.8757,-6.8744,-6.8744,-6.7821,-6.6859,-6.5974,-6.3409,-6.1543,-6.0612,-5.8288,0.0,0.0,0.0,0.0,0.0,0.0,0.0,0.0,0.0,0.0,0.0,0.0,0.0,0.0,0.0,0.0,0.0,0.0,0.0,0.0,0.0,0.0,0.0,0.0,0.0,0.0,0.0,0.0,0.0,-7.7357,-7.8304,-7.8281,-7.9215,-7.9491,0.0,0.0,0.0,0.0,0.0,0.0,0.0,0.0,0.0,-7.5505,-7.6327,-7.6992,-7.7344,-7.8555,-7.9414,-7.9922,-8.0273,-8.0703,-8.1172,-8.1172,-8.1172,-8.1172,-8.1562,-8.039,-7.8124,-7.7187,-7.5975,-7.4682,0.0,0.0,0.0,0.0,-7.2882,-7.2963,-7.3432,-7.3629,-7.3591,-7.3513,0.0,0.0,0.0,0.0,0.0,0.0,0.0,-6.8229,-6.8683,-6.9494,-7.0113,-7.0113,-7.0509,-7.0631,-6.9731,-6.9189,-6.8338,-6.6671,-6.5931,-6.5302,-6.4418,-6.338,0.0,0.0,0.0,-6.4831,-6.6021,-6.6912,-6.7675,-6.8347,-6.8385,-6.8385,-6.8385,-6.759,-6.6936,-6.659,-6.4166,-6.2613,-6.2275,-5.9864,-5.8375,0.0,0.0,0.0,0.0,0.0,0.0,0.0,0.0,0.0,0.0,0.0,0.0,0.0,0.0,0.0,0.0,0.0,0.0,0.0,0.0,0.0,0.0,0.0,0.0,0.0,0.0,0.0,0.0,-7.853,-7.9447,-7.9045,-8.0195,-8.0417,0.0,0.0,0.0,0.0,0.0,0.0,-7.7403,-7.7489,-7.7493,-7.7495,-7.8358,-7.8906,-7.914,-7.9961,-8.0703,-8.1328,-8.1328,-8.1679,-8.2304,-8.2304,-8.2304,-8.2304,-8.2304,-8.1797,-8.0859,-7.918,-7.7617,-7.6132,-7.5038,-7.4606,-7.4564,-7.4368,-7.4254,-7.4373,-7.4999,-7.5234,-7.5117,-7.4492,-7.3086,-7.1445,-7.0117,0.0,0.0,0.0,0.0,-6.8616,-6.9494,-7.0191,-7.0777,-7.0972,-7.1519,-7.1753,-7.0894,-7.0035,-6.8911,-6.721,-6.6151,-6.516,-6.3995,-6.2648,0.0,-6.2199,0.0,-6.414,-6.5294,-6.6372,-6.7232,-6.7718,-6.7782,-6.7782,-6.7782,-6.7167,-6.6782,-6.6782,-6.482,-6.3628,-6.3628,-6.1443,-5.9892,-5.9137,0.0,0.0,0.0,0.0,0.0,0.0,0.0,0.0,0.0,0.0,0.0,0.0,0.0,0.0,0.0,0.0,0.0,0.0,0.0,0.0,0.0,0.0,0.0,0.0,0.0,0.0,0.0,0.0,0.0,-8.0776,-8.0949,0.0,0.0,0.0,0.0,-7.8275,-7.8314,-7.8275,-7.8314,-7.8328,-7.8341,-7.8349,-7.9176,-8.0038,-8.0859,-8.1758,-8.2187,-8.2226,-8.2226,-8.2265,-8.2304,-8.2304,-8.2304,-8.2304,-8.2304,-8.1797,-8.0859,-7.918,-7.7969,-7.6953,-7.5273,-7.4609,-7.4492,-7.3672,-7.3359,-7.3359,-7.3437,-7.3437,-7.3437,-7.3398,-7.2187,-7.0742,-7.0662,-6.9998,0.0,0.0,-6.9314,-6.9544,-7.0428,-7.066,-7.0894,-7.1753,-7.1987,-7.1753,-7.0894,-7.0035,-6.8908,-6.7123,-6.5988,-6.4757,-6.3063,0.0,-6.2106,-6.1368,-6.2568,-6.3559,-6.3729,-6.5064,-6.5987,-6.6013,-6.6013,-6.6013,-6.6013,-6.5974,-6.5974,-6.5974,-6.5051,-6.4551,-6.4551,-6.2909,-6.1586,-6.0795,-5.9214,0.0,0.0,0.0,0.0,0.0,0.0,0.0,0.0,0.0,0.0,0.0,0.0,0.0,0.0,0.0,0.0,0.0,0.0,0.0,0.0,0.0,0.0,0.0,0.0,0.0,0.0,0.0,0.0,-8.1712,-8.3289,0.0,-8.1552,-8.0302,-7.9522,-7.9248,-7.8702,-7.8897,-7.999,-8.0053,-8.0336,-8.0886,-8.1208,-8.1523,-8.1836,-8.2148,-8.2304,-8.2304,-8.2304,-8.2304,-8.2304,-8.2304,-8.1992,-8.1445,-8.1445,-8.0976,-8.0078,-7.8945,-7.832,-7.793,-7.6719,-7.6289,-7.625,-7.5937,-7.582,-7.582,-7.582,-7.582,-7.5547,-7.3867,-7.2109,-7.0585,-7.0039,-6.9646,-6.9522,-7.0064,-7.0253,-7.044,-7.1326,-7.1558,-7.1597,-7.1948,-7.1558,-7.1089,-7.0777,-6.9494,-6.8253,-6.7633,-6.6321,-6.505,-6.433,-6.361,-6.2867,-6.1989,-6.2723,-6.3211,-6.2717,-6.3572,-6.4243,-6.4243,-6.4243,-6.4243,-6.4243,-6.4243,-6.4474,-6.5013,-6.4782,-6.4859,-6.5397,-6.3782,-6.2497,-6.1708,-5.9549,-5.7352,0.0,0.0,0.0,0.0,0.0,0.0,0.0,0.0,0.0,0.0,0.0,0.0,0.0,0.0,0.0,0.0,0.0,0.0,0.0,0.0,0.0,0.0,0.0,0.0,0.0,-8.014,-8.1593,-8.2606,-8.4455,-8.487,-8.2918,-8.1942,-8.1317,-8.1005,-8.0185,-8.0341,-8.1786,-8.1578,-8.1706,-8.2292,-8.2303,-8.2304,-8.2304,-8.2304,-8.2148,-8.1875,-8.1875,-8.1719,-8.1406,-8.1406,-8.1094,-8.0547,-8.0547,-8.0078,-7.9258,-7.8711,-7.832,-7.8008,-7.7422,-7.7187,-7.7187,-7.7187,-7.7187,-7.7148,-7.6875,-7.6367,-7.5586,-7.3867,-7.2304,-7.1014,-7.0467,-7.0268,-7.0416,-7.0997,-7.1147,-7.1256,-7.1834,-7.1792,-7.1558,-7.1558,-7.0894,-7.0191,-6.9879,-6.8812,-6.7793,-6.7442,-6.6381,-6.5365,-6.4662,-6.3971,-6.3102,-6.1907,-6.2406,-6.2704,-6.2178,-6.282,-6.3308,-6.3308,-6.3308,-6.3308,-6.3308,-6.3308,-6.3551,-6.4128,-6.3897,-6.4012,-6.4589,-6.3243,-6.2062,-6.1251,-5.8505,-5.657,-5.5525,0.0,0.0,0.0,0.0,0.0,0.0,0.0,0.0,0.0,0.0,0.0,0.0,0.0,0.0,0.0,0.0,0.0,0.0,0.0,0.0,0.0,0.0,0.0,-7.9052,-8.0969,-8.2496,-8.3494,-8.4372,-8.4558,-8.366,-8.284,-8.2684,-8.3426,-8.2762,-8.2645,-8.3426,-8.2712,-8.2292,-8.2293,-8.2303,-8.2304,-8.2265,-8.2265,-8.1836,-8.0976,-8.0976,-8.0508,-7.9687,-7.9687,-7.9687,-7.9648,-7.9648,-7.9219,-7.8476,-7.8476,-7.7969,-7.7187,-7.7187,-7.7187,-7.7187,-7.7187,-7.7148,-7.6992,-7.6133,-7.4726,-7.3281,-7.3281,-7.2695,-7.1992,-7.1985,-7.198,-7.1977,-7.1995,-7.1987,-7.1948,-7.1948,-7.1324,-7.0696,-7.0657,-6.9996,-6.9137,-6.8273,-6.7946,-6.7531,-6.6492,-6.6156,-6.5518,-6.3913,-6.3444,-6.2743,-6.1089,-6.1562,0.0,-6.2062,-6.2743,-6.3243,-6.3243,-6.3243,-6.3243,-6.3243,-6.3243,-6.3243,-6.3243,-6.2474,-6.2062,-6.2062,-6.1216,-6.0358,-5.9473,-5.6246,-5.4612,-5.4622,0.0,0.0,0.0,0.0,0.0,0.0,0.0,0.0,0.0,0.0,0.0,0.0,0.0,0.0,0.0,0.0,0.0,0.0,0.0,0.0,0.0,-7.7926,-7.859,-8.0129,-8.1308,-8.2645,-8.4265,-8.5768,-8.6353,-8.5456,-8.4597,-8.3933,-8.3543,-8.2762,-8.2414,-8.262,-8.2402,-8.2295,-8.23,-8.2304,-8.1992,-8.1367,-8.1367,-8.0937,-8.0078,-8.0078,-7.9922,-7.9687,-7.9687,-7.9375,-7.8828,-7.8828,-7.8359,-7.7576,-7.7578,-7.7422,-7.7186,-7.7187,-7.7187,-7.7109,-7.6484,-7.5859,-7.5273,-7.5039,-7.4219,-7.3281,-7.3281,-7.2695,-7.199,-7.1989,-7.1553,-7.119,-7.1809,-7.1527,-7.105,-7.105,-7.0894,-7.0531,-6.9779,-6.9025,-6.8333,-6.7843,-6.7223,-6.6601,-6.6233,-6.555,-6.4852,-6.439,-6.3753,-6.2935,-6.1897,-6.1947,-6.187,-6.1243,-6.1358,-6.1473,-6.1473,-6.1473,-6.1473,-6.1473,-6.1473,-6.1473,-6.1473,-6.1281,-6.1166,-6.1166,-6.0319,-5.9457,-5.8655,-5.7163,-5.6115,0.0,0.0,0.0,0.0,0.0,0.0,0.0,0.0,0.0,0.0,0.0,0.0,0.0,0.0,0.0,0.0,0.0,0.0,0.0,0.0,0.0,0.0,-7.929,-8.0411,-8.2522,-8.2986,-8.3659,-8.5158,-8.6549,-8.7212,-8.6705,-8.5846,-8.5143,-8.4636,-8.3465,-8.2804,-8.2813,-8.248,-8.2295,-8.2299,-8.1952,-8.1523,-8.1015,-8.0625,-8.0039,-7.9219,-7.9219,-7.9023,-7.8633,-7.8633,-7.8398,-7.7969,-7.7968,-7.7655,-7.7186,-7.7187,-7.6991,-7.6678,0.0,0.0,0.0,0.0,-7.4805,-7.4062,-7.4062,-7.3476,-7.2773,-7.2773,-7.2422,-7.1991,-7.1988,-7.1669,-7.1348,-7.1846,-7.1368,-7.0699,-7.0699,-7.0132,-6.9397,-6.8798,-6.7974,-6.7286,-6.7097,-6.6608,-6.6212,-6.6128,-6.4999,0.0,-6.4051,-6.3358,-6.2512,-6.1678,-6.1562,-6.1358,-6.0858,-6.0781,-6.0781,-6.0781,-6.0781,-6.0781,-6.0781,-6.0781,0.0,0.0,0.0,-5.9435,-5.8704,-5.8165,0.0,0.0,0.0,0.0,0.0,0.0,0.0,0.0,-5.5817,-5.5904,0.0,0.0,0.0,0.0,0.0,0.0,0.0,0.0,0.0,0.0,0.0,0.0,0.0,0.0,0.0,0.0,-8.066,-8.2078,-8.534,-8.526,-8.5227,-8.6134,-8.6939,-8.7404,-8.7404,-8.6627,-8.6041,-8.5963,-8.4441,-8.3465,-8.3351,-8.2673,0.0,0.0,0.0,-8.0898,-8.0703,-7.9961,-7.914,-7.8359,-7.8359,-7.7969,-7.7187,-7.7187,-7.7187,-7.7187,-7.7186,-7.7186,-7.7187,-7.7108,-7.6483,-7.5625,-7.5703,-7.5703,-7.5508,-7.4726,-7.3906,-7.3164,-7.3164,0.0,0.0,-7.1992,-7.1914,-7.1875,-7.1985,-7.1862,-7.1703,-7.1792,-7.1198,-7.0492,-7.0414,-6.9159,-6.7881,-6.7754,-6.701,-6.6322,-6.6267,-6.6176,-6.6059,-6.5961,-6.4513,-6.3281,-6.3166,-6.2474,-6.1678,-6.0935,-6.0781,-6.0781,-6.0781,-6.0781,-6.0781,-6.0781,-6.0781,0.0,-6.0781,-6.0781,-6.0435,-5.955,-5.8742,-5.7627,-5.6049,-5.5972,-5.5972,-5.5972,-5.6753,-5.7137,-5.7137,-5.7934,-5.8319,-5.828,-5.7555,-5.723,0.0,0.0,0.0,0.0,0.0,0.0,0.0,0.0,0.0,0.0,0.0,0.0,0.0,0.0,0.0,-8.0937,-8.2553,-8.4097,-8.5609,-8.6346,-8.6874,-8.7105,-8.729,-8.7404,-8.7404,-8.6627,-8.5807,-8.5104,-8.4089,-8.3236,-8.2584,-8.2365,-8.1982,-8.1284,-8.1093,-8.0351,-7.8984,-7.8828,-7.8281,-7.7461,-7.7461,0.0,-7.7187,-7.7187,-7.7187,-7.7187,-7.7187,-7.7187,-7.7147,-7.6445,-7.5234,-7.3867,-7.457,-7.4414,-7.3789,-7.3594,-7.3008,-7.2265,-7.2265,-7.2148,-7.1992,-7.1992,-7.1523,-7.1093,-7.1789,-7.1005,0.0,-7.0563,-7.0103,-6.9323,-6.8617,-6.8174,-6.7665,-6.6814,-6.6581,-6.6432,-6.6063,-6.6052,-6.5863,-6.5057,-6.4049,-6.3089,-6.2435,-6.1627,-6.0973,-6.0819,-6.0781,-6.0781,-6.0781,-6.0781,-6.0781,-6.0781,-6.0781,-6.0781,-6.0781,-6.0781,-6.0435,-5.955,-5.8742,-5.8165,-5.7819,-5.7819,-5.7819,-5.7819,-5.7973,-5.805,-5.805,-5.8204,-5.8319,-5.8319,-5.8138,-5.8061,0.0,0.0,0.0,0.0,0.0,0.0,0.0,0.0,0.0,0.0,0.0,-7.7073,-7.8382,0.0,-8.0638,-8.2406,-8.398,-8.5342,-8.6315,-8.6989,-8.7362,-8.7411,-8.7404,-8.7404,-8.7404,-8.6627,-8.5729,-8.487,-8.3972,-8.3158,-8.2352,-8.2287,-8.1906,-8.1012,-8.0585,-7.9765,-7.8515,-7.8086,-7.7617,-7.7187,-7.7187,-7.7187,-7.7187,-7.7187,-7.7187,-7.7187,-7.7187,-7.6952,-7.6444,-7.5156,-7.4101,-7.3281,-7.3281,-7.3047,-7.2656,-7.2656,-7.2383,-7.1992,-7.1992,-7.1992,-7.1992,-7.1992,-7.1719,-7.1445,-7.1868,-7.1395,-7.0684,-7.0593,-6.9917,-6.8992,-6.8219,-6.753,-6.6951,-6.6446,-6.6314,-6.6256,-6.597,-6.597,-6.5708,-6.4768,-6.3897,-6.3051,-6.2255,-6.1358,-6.0781,-6.0781,-6.0781,-6.0781,-6.0781,-6.0781,-6.0781,-6.0781,-6.0781,-6.0781,-6.0781,-6.0396,-5.9973,-5.9511,-5.8742,-5.8319,-5.8319,-5.8319,-5.8319,-5.8319,-5.8704,-5.8896,-5.8896,-5.9358,-5.955,-5.955,-5.955,-5.9319,0.0,0.0,0.0,0.0,0.0,0.0,0.0,0.0,-7.7982,-7.8094,-7.8089,-7.8492,-8.0015,-8.1113,-8.2284,-8.3884,-8.5171,-8.6219,-8.6979,-8.7265,-8.7411,-8.7384,-8.7375,-8.7404,-8.7404,-8.6744,-8.5924,-8.487,-8.4131,-8.3317,-8.2352,-8.2289,-8.1829,-8.0778,-8.0078,-7.9219,-7.8242,-7.7539,-7.7187,-7.7187,-7.7187,-7.7187,-7.7187,-7.7187,-7.7187,-7.7187,-7.703,-7.6366,-7.5273,-7.3867,-7.3203,-7.2969,-7.2265,-7.1992,-7.1992,-7.1992,-7.1992,-7.1992,-7.1992,-7.1992,-7.1992,-7.1992,-7.1875,-7.1757,-7.1751,-7.1631,-7.1314,-7.0428,-6.9545,-6.8704,-6.7957,-6.7019,-6.6259,-6.6259,-6.6185,-6.6046,-6.5921,-6.5897,-6.559,-6.4551,-6.3782,-6.3012,-6.2024,-6.1281,-6.0781,-6.0781,-6.0781,-6.0781,-6.0781,-6.0781,-6.0781,-6.0781,-6.0781,-6.0781,-6.0781,-6.0165,-5.9742,-5.9742,-5.9127,-5.8781,-5.8781,-5.8781,-5.8781,-5.8781,-5.9435,-5.9742,-5.9742,-6.0473,-6.0781,-6.0781,-6.0781,-6.0435,-8.2516,-8.1816,-8.1239,-8.1129,-8.0577,-8.019,0.0,0.0,-7.9982,-8.0642,-8.079,-8.103,-8.1878,-8.2847,-8.3852,-8.4817,-8.6029,-8.6873,-8.699,-8.7226,-8.7389,-8.7303,-8.736,-8.7404,-8.7404,-8.7329,-8.6588,-8.4909,-8.4726,-8.3953,-8.2391,-8.2295,-8.1559,-7.9919,-7.9765,-7.8945,-7.7344,-7.7265,-7.7187,-7.7187,-7.7187,-7.7187,-7.7187,-7.7187,-7.7187,-7.7148,-7.6367,-7.5117,-7.3594,-7.3398,-7.2851,-7.2148,-7.2031,-7.1992,-7.1992,-7.1992,-7.1992,-7.1992,-7.1992,-7.1992,-7.1992,-7.1992,-7.1484,-7.0859,-7.0857,-7.0309,-6.9484,-6.8496,-6.7998,-6.7612,-6.6802,-6.6376,-6.6099,-6.6099,-6.6128,-6.6046,-6.5921,-6.5897,-6.5397,-6.3782,-6.3346,-6.282,-6.1204,-6.0858,-6.0781,-6.0781,-6.0781,-6.0781,-6.0781,-6.0781,-6.0781,-6.0781,-6.0781,-6.0781,-6.0781,-6.0704,-6.0666,-6.0666,-6.055,-6.0512,-6.0512,-6.0512,-6.0512,-6.0512,-6.0589,-6.0666,-6.0666,-6.0742,-6.0781,-6.0781,-6.0781,-6.0742,-8.348,-8.2637,-8.2108,0.0,-8.2303,-8.2419,-8.2186,-8.2223,-8.2193,-8.1961,-8.1862,-8.2255,-8.3555,-8.4235,-8.4841,0.0,-8.6495,-8.699,-8.699,-8.7218,-8.7338,-8.7304,-8.6795,-8.6677,-8.7225,-8.6835,-8.601,-8.4835,-8.4355,-8.3567,-8.2365,-8.1829,-8.0974,-7.9726,-7.9258,-7.8437,-7.7226,-7.7187,-7.7187,-7.7187,-7.7187,-7.7187,-7.7187,-7.668,-7.6172,-7.5625,-7.4765,-7.3984,-7.3242,-7.2734,-7.2344,-7.1992,-7.1992,-7.1992,-7.1992,-7.1992,-7.1992,-7.1992,-7.1992,-7.1992,-7.1992,-7.1992,-7.1758,-7.1367,-7.0858,-7.0466,-6.9878,-6.8412,-6.7883,-6.7608,-6.6785,-6.6452,-6.629,-6.6187,-6.6158,-6.6126,-6.5921,-6.5897,-6.5513,-6.432,-6.3666,-6.2935,-6.1743,-6.1127,-6.0781,-6.0781,-6.0781,-6.0781,-6.0781,-6.0781,-6.0781,-6.0781,-6.0781,-6.0781,-6.0781,-6.0781,-6.0781,-6.0781,-6.0781,-6.0781,-6.0781,-6.0781,-6.0781,-6.0781,-6.0781,-6.0781,-6.0781,-6.0781,-6.0781,-6.0781,-6.0781,-6.0781,-8.4404,0.0,0.0,-8.3127,-8.394,-8.4624,-8.3925,-8.4165,-8.4402,-8.3911,-8.3564,-8.3747,-8.5016,-8.5352,-8.5689,-8.6307,-8.67,-8.6968,-8.698,-8.7095,-8.7137,-8.6895,-8.6172,-8.5877,-8.634,-8.5846,-8.5184,-8.4412,-8.3866,-8.3196,-8.2335,-8.148,-8.0585,-7.9726,-7.8906,-7.8086,-7.7226,-7.7187,-7.7187,-7.7187,-7.6953,-7.6953,-7.7187,-7.6289,-7.5273,-7.4219,-7.3555,-7.3164,-7.289,-7.2265,-7.1992,-7.1992,-7.1992,-7.1992,-7.1992,-7.1992,-7.1992,-7.1992,-7.1992,-7.1992,-7.1992,-7.1992,-7.1836,-7.1484,-7.0624,-7.0194,-6.9685,-6.8198,-6.7664,-6.7419,-6.683,-6.654,-6.6376,-6.6212,-6.6158,-6.6084,-6.5946,-6.591,-6.5628,-6.4782,-6.3897,-6.3051,-6.2255,-6.1358,-6.0781,-6.0781,-6.0781,-6.0781,-6.0781,-6.0781,-6.0781,-6.0781,-6.0781,-6.0781,-6.0781,-6.0781,-6.0781,-6.0781,-6.0781,-6.0781,-6.0781,-6.0781,-6.0781,-6.0781,-6.0781,-6.0781,-6.0781,-6.0781,-6.0781,-6.0781,-6.0781,-6.0781,0.0,0.0,-8.4944,-8.4237,-8.5294,-8.6505,-8.6398,-8.6351,-8.6508,-8.7202,-8.6605,-8.6017,-8.6055,-8.6238,-8.6384,-8.6384,-8.6615,-8.6852,-8.6894,-8.6955,-8.6696,-8.5857,-8.5618,-8.5194,0.0,-8.4441,-8.4232,-8.3503,-8.3419,-8.3077,-8.2341,-8.1484,-8.0586,-7.9726,-7.8906,-7.8086,-7.7226,-7.7187,-7.7187,-7.7187,-7.6328,-7.6367,-7.7187,-7.6289,-7.4961,-7.3359,-7.332,-7.2812,-7.2031,-7.1992,-7.1992,-7.1992,-7.1992,-7.1992,-7.1992,-7.1992,-7.1992,-7.1992,-7.1992,-7.1992,-7.1992,-7.1992,-7.1445,-7.0586,-6.9765,-6.8945,-6.8086,-6.7187,-6.6781,-6.6616,-6.6616,-6.6418,-6.6191,-6.6183,-6.6105,-6.6008,-6.5996,-6.5947,-6.5628,-6.4782,-6.3897,-6.3051,-6.2255,-6.1358,-6.0781,-6.0781,-6.0781,-6.0781,-6.0781,-6.0781,-6.0781,-6.0781,-6.0781,-6.0781,-6.0781,-6.0781,-6.0781,-6.0781,-6.0781,-6.0781,-6.0781,-6.0781,-6.0781,-6.0781,-6.0781,-6.0781,-6.0781,-6.0781,-6.0781,-6.0781,-6.0781,-6.0781,-8.593,0.0,-8.6142,-8.6519,-8.742,-8.8176,-8.8103,-8.8066,-8.7895,-8.7506,-8.6726,-8.594,-8.5401,-8.5421,-8.5475,-8.552,-8.5727,-8.6097,-8.6726,-8.695,-8.6689,-8.5797,-8.5057,0.0,0.0,0.0,0.0,-8.3226,-8.2784,-8.2168,-8.1359,-8.0545,-7.9765,-7.8945,-7.8086,-7.75,-7.7187,-7.7187,-7.6914,-7.6328,-7.5469,-7.4883,-7.4609,-7.4297,-7.3555,-7.2422,-7.2422,-7.2265,-7.1992,-7.1992,-7.1992,-7.1992,-7.1992,-7.1992,-7.1992,-7.1992,-7.1992,-7.1992,-7.1992,-7.1992,-7.1992,-7.1992,-7.1406,-7.0547,-6.9687,-6.8867,-6.8008,-6.7148,-6.6834,-6.6785,-6.668,-6.659,-6.6432,-6.6298,-6.6138,-6.6036,-6.6029,-6.5967,-6.5866,-6.5596,-6.4876,-6.4016,-6.3122,-6.227,-6.1511,-6.0965,-6.0843,-6.0781,-6.0781,-6.0781,-6.0781,-6.0781,-6.0781,-6.0781,-6.0781,-6.0781,-6.0781,-6.0781,-6.0781,-6.0781,-6.0781,-6.0781,-6.0781,-6.0781,-6.0781,-6.0781,-6.0781,-6.0781,-6.0781,-6.0781,-6.0781,-6.0781,-8.6778,-8.7331,-8.7944,-8.8298,-8.9146,-8.9846,-8.9447,-8.9061,-8.8518,-8.7572,-8.6478,-8.544,-8.4593,-8.4265,-8.4357,-8.498,-8.501,-8.5385,-8.6612,-8.6584,-8.6125,-8.5305,-8.4339,-8.3436,0.0,0.0,0.0,-8.2556,-8.2229,-8.1659,-8.0824,-8.0112,-7.9336,-7.8515,-7.7656,-7.7187,-7.7187,-7.7187,-7.6601,-7.543,-7.4883,-7.3984,-7.2851,-7.3164,-7.2812,-7.1992,-7.1992,-7.1992,-7.1992,-7.1992,-7.1992,-7.1992,-7.1992,-7.1992,-7.1992,-7.1992,-7.1992,-7.1992,-7.1992,-7.1992,-7.1953,-7.164,-7.0976,-7.0117,-6.9258,-6.8398,-6.7617,-6.707,-6.6914,-6.6874,-6.6785,-6.6688,-6.6569,-6.6425,-6.6242,-6.6091,-6.6047,-6.6024,-6.6001,-6.6001,-6.5357,-6.4624,-6.4,-6.2943,-6.1913,-6.1059,-6.0911,-6.0827,-6.0831,-6.0781,-6.0781,-6.0781,-6.0781,-6.0781,-6.0781,-6.0781,-6.0781,-6.0781,-6.0781,-6.0781,-6.0781,-6.0781,-6.0781,-6.0781,-6.0781,-6.0781,-6.0781,-6.0781,-6.0781,-6.0781,-6.0781,-6.0781,-8.7627,-8.8952,-9.0146,-8.9483,-9.046,-9.1338,-9.0412,-8.9446,-8.848,-8.7534,-8.6017,-8.4555,0.0,0.0,-8.3129,-8.4764,-8.4505,-8.4714,-8.6541,-8.6013,-8.5173,0.0,0.0,0.0,0.0,0.0,0.0,-8.1631,0.0,-8.1449,-8.0758,-8.003,-7.9258,-7.8476,-7.7617,-7.7187,-7.7187,-7.7109,-7.6211,-7.4531,-7.4492,-7.3594,-7.2031,-7.2851,-7.2773,-7.1992,-7.1992,-7.1992,-7.1992,-7.1992,-7.1992,-7.1992,-7.1992,-7.1992,-7.1992,-7.1992,-7.1992,-7.1992,-7.1992,-7.1992,-7.1875,-7.0976,-7.0156,-6.9336,-6.8476,-6.7578,-6.6875,-6.6914,-6.6914,-6.6914,-6.6914,-6.6759,-6.66,-6.6595,-6.6361,-6.6112,-6.6102,-6.6058,-6.6013,-6.6013,-6.5368,-6.4789,-6.4762,-6.3323,-6.1934,-6.1113,-6.0997,-6.0955,-6.0843,-6.0793,-6.0793,-6.0831,-6.0831,-6.0793,-6.0781,-6.0781,-6.0781,-6.0781,-6.0781,-6.0781,-6.0781,-6.0781,-6.0781,-6.0781,-6.0781,-6.0781,-6.0781,-6.0781,-6.0781,-6.0781,-6.0781,-6.0781,-8.8167,-8.937,-9.0327,-9.088,-9.1222,-9.1207,-9.0317,-8.8887,-8.7512,-8.6594,-8.5093,-8.367,0.0,0.0,0.0,-8.3939,-8.3996,0.0,-8.6404,-8.6531,0.0,-8.4416,0.0,-8.3363,-8.1835,-8.1441,0.0,0.0,-8.0534,-7.9827,-7.9684,-7.904,-7.8308,-7.7578,-7.7305,-7.7187,-7.7187,-7.5898,-7.4726,-7.3633,-7.2969,-7.2422,-7.1992,-7.2226,-7.2226,-7.1992,-7.1992,-7.1992,-7.1992,-7.1992,-7.1992,-7.1992,-7.1992,-7.1992,-7.1992,-7.1992,-7.1992,-7.1992,-7.1992,-7.1992,-7.1875,-7.0976,-7.0074,-6.9202,-6.8436,-6.7534,-6.6781,-6.6874,-6.6914,-6.6914,-6.6914,-6.6781,-6.6642,-6.661,-6.6464,-6.6308,-6.6195,-6.6155,-6.6144,-6.6144,-6.5456,-6.4672,-6.4095,-6.299,-6.1945,-6.1126,-6.098,-6.0987,-6.0955,-6.0955,-6.0933,-6.0888,-6.0888,-6.0827,-6.0793,-6.0781,-6.0781,-6.0781,-6.0781,-6.0781,-6.0781,-6.0781,-6.0781,-6.0781,-6.0781,-6.0781,-6.0781,-6.0781,-6.0781,-6.0781,-6.0781,-6.0781,-8.9106,-9.0041,-9.0828,-9.1369,-9.1168,-9.0719,-9.0191,-8.8392,-8.6594,-8.5747,-8.4209,0.0,0.0,0.0,0.0,0.0,0.0,0.0,-8.5784,-8.6119,-8.57,0.0,-8.3945,0.0,-8.1818,-8.1286,-8.0996,0.0,-8.0182,-7.9609,-7.9319,-7.8659,-7.7946,-7.7226,-7.7187,-7.7031,-7.664,-7.4883,-7.3789,-7.3281,-7.2422,-7.1992,-7.1992,-7.1992,-7.1992,-7.1992,-7.1992,-7.1992,-7.1992,-7.1992,-7.1992,-7.1992,-7.1992,-7.1992,-7.1992,-7.1992,-7.1992,-7.1992,-7.1992,-7.1992,-7.1875,-7.0976,-7.0114,-6.9248,-6.8437,-6.7536,-6.6788,-6.6874,-6.6914,-6.6914,-6.6914,-6.6787,-6.6664,-6.6619,-6.6497,-6.6345,-6.6235,-6.6185,-6.6185,-6.6185,-6.5817,-6.5227,-6.4406,-6.3477,-6.2596,-6.1727,-6.1282,-6.1031,-6.1031,-6.1018,-6.0976,-6.0955,-6.0922,-6.09,-6.0866,-6.0843,-6.0781,-6.0781,-6.0781,-6.0781,-6.0781,-6.0781,-6.0781,-6.0781,-6.0781,-6.0781,-6.0781,-6.0781,-6.0781,-6.0781,-6.0781,-6.0781,-9.0042,-9.0692,-9.1286,-9.1252,-9.0548,-8.9883,-8.9635,-8.7605,-8.5555,-8.4709,0.0,-8.1939,-8.1246,-8.0538,-8.0583,-8.2139,0.0,-8.3307,-8.5049,-8.5268,-8.5006,-8.4344,-8.3535,-8.266,-8.1758,-8.0938,-8.0415,-8.0227,-8.019,-7.9878,-7.9137,-7.8433,-7.7812,-7.7186,-7.707,-7.6601,-7.5742,-7.4101,-7.3242,-7.3125,-7.2344,-7.1992,-7.1992,-7.1992,-7.1992,-7.1992,-7.1992,-7.1992,-7.1992,-7.1992,-7.1992,-7.1992,-7.1992,-7.1992,-7.1992,-7.1992,-7.1992,-7.1992,-7.1992,-7.1992,-7.1875,-7.0976,-7.0234,-6.9491,-6.8633,-6.7812,-6.7226,-6.7226,-6.7226,-6.7226,-6.7109,-6.6982,-6.682,-6.6658,-6.6497,-6.6345,-6.6235,-6.6185,-6.6185,-6.6185,-6.6185,-6.5953,-6.5141,-6.4377,-6.3516,-6.2549,-6.1776,-6.1234,-6.1118,-6.1041,-6.1008,-6.1008,-6.0965,-6.0933,-6.0911,-6.0866,-6.0793,-6.0781,-6.0781,-6.0781,-6.0781,-6.0781,-6.0781,-6.0781,-6.0781,-6.0781,-6.0781,-6.0781,-6.0781,-6.0781,-6.0781,-6.0781,-8.9888,-9.0692,-9.1154,-9.0477,-8.9668,-8.8634,-8.7127,-8.5379,0.0,0.0,0.0,-8.1285,-8.1131,-8.0993,-8.1216,-8.2239,0.0,0.0,0.0,0.0,-8.435,0.0,0.0,0.0,0.0,0.0,0.0,0.0,-7.9606,-7.8928,-7.8198,-7.7346,-7.6942,-7.7034,-7.6441,-7.5703,-7.4844,-7.3828,-7.293,-7.2226,-7.207,-7.1992,-7.1992,-7.1992,-7.1992,-7.1992,-7.1992,-7.1992,-7.1992,-7.1992,-7.1992,-7.1992,-7.1992,-7.1992,-7.1992,-7.1992,-7.1992,-7.1992,-7.1992,-7.1992,-7.1875,-7.0976,-7.0581,-7.0253,-6.9491,-6.9095,-6.8925,-6.9022,-6.9023,-6.8828,-6.8164,-6.7881,-6.7562,-6.6775,-6.6497,-6.6345,-6.6235,-6.6185,-6.6185,-6.6185,-6.6185,-6.5953,-6.5141,-6.487,-6.4213,-6.2627,-6.2278,-6.193,-6.1195,-6.1099,-6.107,-6.0992,-6.0982,-6.098,-6.0922,-6.09,-6.0877,-6.0793,-6.0781,-6.0781,-6.0781,-6.0781,-6.0781,-6.0781,-6.0781,-6.0781,-6.0781,-6.0781,-6.0781,-6.0781,-6.0781,-6.0781,-9.0685,-9.1279,-9.1741,-9.0894,-8.9354,-8.7836,-8.6957,0.0,0.0,0.0,0.0,-8.1093,-8.1093,0.0,0.0,0.0,0.0,0.0,0.0,0.0,0.0,0.0,0.0,0.0,0.0,0.0,-8.0999,-7.9685,-7.9221,-7.8668,-7.796,-7.7202,-7.6663,-7.6318,-7.5619,-7.4805,-7.3945,-7.3047,-7.2422,-7.1992,-7.1992,-7.1992,-7.1992,-7.1992,-7.1992,-7.1992,-7.1992,-7.1758,-7.1328,-7.1328,-7.1328,-7.1328,-7.1328,-7.1601,-7.1992,-7.1992,-7.1992,-7.1992,-7.1992,-7.1992,-7.1914,-7.1523,-7.1053,-7.0579,-7.0234,-6.9763,-6.9368,-6.9414,-6.9453,-6.9375,-6.8984,-6.8778,-6.8538,-6.8023,-6.7415,-6.6844,-6.6322,-6.6185,-6.6185,-6.6185,-6.6185,-6.6069,-6.5682,-6.5257,-6.4715,-6.3864,-6.2975,-6.224,-6.1814,-6.1389,-6.1109,-6.1041,-6.1022,-6.0972,-6.0965,-6.0922,-6.0888,-6.0793,-6.0781,-6.0781,-6.0781,-6.0781,-6.0781,-6.0781,-6.0781,-6.0781,-6.0781,-6.0781,-6.0781,-6.0781,-6.0781,-6.0781,-9.1402,-9.171,-9.1979,-9.0941,-8.9017,-8.7248,-8.6709,-8.4362,0.0,0.0,-8.1554,-8.1093,-8.1093,0.0,0.0,0.0,0.0,0.0,0.0,0.0,0.0,0.0,0.0,0.0,0.0,0.0,0.0,-7.9105,-7.8641,-7.8181,-7.7623,-7.7176,-7.6513,-7.567,-7.4945,-7.4139,-7.332,-7.2422,-7.1992,-7.1992,-7.1992,-7.1992,-7.1992,-7.1992,-7.1992,-7.1992,-7.1992,-7.1601,-7.0976,-7.0781,-7.082,-7.0976,-7.0781,-7.1211,-7.1992,-7.1992,-7.1992,-7.1992,-7.1992,-7.1992,-7.1992,-7.1992,-7.1523,-7.0976,-7.0976,-7.0508,-6.9961,-6.9961,-7.0,-7.0,-6.9803,-6.9626,-6.9444,-6.9128,-6.8239,-6.7307,-6.6611,-6.634,-6.6185,-6.6185,-6.6185,-6.6185,-6.6185,-6.5682,-6.518,-6.5025,-6.3826,-6.2897,-6.2704,-6.193,-6.1389,-6.1389,-6.1157,-6.1041,-6.1018,-6.0965,-6.09,-6.0843,-6.0793,-6.0781,-6.0781,-6.0781,-6.0781,-6.0781,-6.0781,-6.0896,-6.1089,-6.0896,-6.0973,-6.132,-6.1166,-6.1166,-9.1175,-9.1248,-9.0941,-8.9325,-8.8171,-8.6786,-8.4478,0.0,0.0,-8.1362,-8.1131,-8.1093,-8.1093,0.0,0.0,0.0,0.0,0.0,0.0,0.0,0.0,0.0,0.0,0.0,0.0,0.0,0.0,-7.9067,-7.7519,-7.6603,-7.6548,-7.6584,-7.6295,-7.5524,-7.4804,-7.4043,-7.332,-7.2422,-7.1992,-7.1992,-7.1992,-7.1992,-7.1992,-7.1992,-7.1992,-7.1992,-7.1992,-7.1953,-7.1836,-7.1015,-7.1172,-7.1797,-7.1015,-7.1211,-7.1992,-7.1992,-7.1992,-7.1992,-7.1992,-7.1992,-7.1992,-7.1992,-7.1953,-7.1875,-7.1875,-7.1836,-7.1758,-7.1758,-7.1758,-7.1562,-7.0718,-7.0384,-7.0069,-6.9052,-6.815,-6.7501,-6.7384,-6.6766,-6.6185,-6.6185,-6.6185,-6.6185,-6.6185,-6.6147,-6.5837,-6.5102,-6.487,-6.4483,-6.3681,-6.282,-6.2278,-6.2278,-6.1573,-6.1051,-6.1002,-6.098,-6.0965,-6.0911,-6.0816,-6.0781,-6.0781,-6.0781,-6.0781,-6.0781,-6.0781,-6.1166,-6.1985,-6.1166,-6.1589,-6.3051,-6.232,-6.2358,-9.0168,-9.0971,-9.1556,-8.9863,-8.8402,-8.6863,-8.4824,0.0,-8.2054,-8.1285,-8.0669,-8.0323,-8.0323,-7.9592,0.0,0.0,0.0,0.0,0.0,0.0,0.0,0.0,0.0,0.0,0.0,0.0,-7.9647,-7.8332,-7.7094,-7.6397,-7.6397,-7.6536,-7.6023,-7.4761,-7.4519,-7.3805,-7.2539,-7.2187,-7.1992,-7.1992,-7.1992,-7.1992,-7.1992,-7.1445,-7.1211,-7.1211,-7.1211,-7.0937,-7.0508,-7.0625,-7.0898,-7.1172,-7.0859,-7.1211,-7.1992,-7.1992,-7.1992,-7.1992,-7.1992,-7.1992,-7.1992,-7.1992,-7.1992,-7.1992,-7.1992,-7.1992,-7.1992,-7.1992,-7.1992,-7.1914,-7.1557,-7.1306,-7.0901,-6.9779,-6.9241,-6.8738,-6.7733,-6.723,-6.6843,-6.6301,-6.6185,-6.6185,-6.6185,-6.6185,-6.6108,-6.576,-6.5296,-6.487,-6.4532,-6.371,-6.3168,-6.3168,-6.193,-6.106,-6.1012,-6.099,-6.0965,-6.0911,-6.0854,-6.105,-6.1562,-6.1601,-6.182,-6.232,-6.232,-6.2474,-6.282,-6.2474,-6.2666,-6.3269,-6.2974,-6.2974,-8.9533,-9.0704,-9.171,-8.9979,-8.8479,-8.6901,0.0,0.0,-8.2016,-8.0939,-8.0246,-7.9708,-7.9477,-7.8707,-7.813,0.0,0.0,0.0,0.0,0.0,0.0,0.0,0.0,0.0,0.0,-7.9956,-7.8873,-7.7403,-7.6746,-7.6397,-7.6397,-7.6242,-7.5551,-7.4197,-7.428,-7.3585,-7.1949,-7.1992,-7.1992,-7.1992,-7.1992,-7.1992,-7.1992,-7.1367,-7.1094,-7.1094,-7.1094,-7.0742,-7.0234,-7.0312,-7.0625,-7.1015,-7.0508,-7.1015,-7.1992,-7.1992,-7.1992,-7.1992,-7.1992,-7.1992,-7.1992,-7.1992,-7.1992,-7.1992,-7.1992,-7.1992,-7.1992,-7.1992,-7.1952,-7.1948,-7.1902,-7.1784,-7.1432,-7.0573,-7.017,-6.9667,-6.8506,-6.7849,-6.7307,-6.6688,-6.6379,-6.6185,-6.6185,-6.6185,-6.6185,-6.6185,-6.5721,-6.5334,-6.5334,-6.4609,-6.4068,-6.4068,-6.2743,-6.1843,-6.1805,-6.1772,-6.1709,-6.1665,-6.1597,-6.182,-6.2435,-6.2435,-6.2704,-6.3269,-6.3308,-6.3435,-6.3666,-6.3435,-6.3551,-6.4051,-6.382,-6.382,-8.9573,-9.0375,-9.0825,-8.9133,-8.8055,-8.6748,0.0,-8.2939,-8.1823,-8.0169,-7.9823,-7.9554,-7.8669,-7.7861,-7.7323,-7.7323,0.0,0.0,0.0,0.0,0.0,0.0,0.0,0.0,-7.9028,-7.8254,-7.7365,-7.6475,-7.6397,0.0,-7.6397,-7.5585,-7.4756,-7.4028,-7.4113,-7.3422,-7.1831,-7.1948,-7.1992,-7.1992,-7.1992,-7.1992,-7.1992,-7.1992,-7.1992,-7.1992,-7.1992,-7.1992,-7.1836,-7.0195,-7.0508,-7.1836,-7.0078,-7.0469,-7.1992,-7.1992,-7.1992,-7.1992,-7.1992,-7.1992,-7.1992,-7.1992,-7.1992,-7.1992,-7.1992,-7.1992,-7.1992,-7.1992,-7.1904,-7.178,-7.1731,-7.1608,-7.1478,-7.1306,-7.0634,-6.9976,-6.9976,-6.8661,-6.7501,-6.7501,-6.6804,-6.6185,-6.6185,-6.6185,-6.6185,-6.6185,-6.6185,-6.6185,-6.6185,-6.5489,-6.4986,-6.4986,-6.4222,-6.3681,-6.3681,-6.3531,-6.3456,-6.3456,-6.3341,-6.3269,-6.3269,-6.3269,-6.3269,-6.3308,-6.3308,-6.3743,-6.4589,-6.3743,-6.4205,-6.5859,-6.4974,-6.5051,-8.7311,-8.8308,-8.9066,-8.7952,-8.7081,-8.6017,-8.4055,-8.2939,-8.1823,-8.0169,-7.9323,-7.8669,-7.7823,-7.6976,-7.6399,-7.6399,0.0,0.0,0.0,0.0,0.0,0.0,0.0,0.0,0.0,0.0,-7.7326,-7.6475,-7.6397,-7.6397,-7.6397,-7.5585,-7.4756,-7.4028,-7.3568,-7.2837,-7.1792,-7.1948,-7.1992,-7.1992,-7.1992,-7.1992,-7.1991,-7.1367,-7.1093,-7.1093,-7.1093,-7.0781,-7.0273,-7.0937,-7.082,-7.0273,-7.0937,-7.1133,-7.1172,-7.1797,-7.1992,-7.1992,-7.1992,-7.1992,-7.1992,-7.1992,-7.1992,-7.1992,-7.1992,-7.1992,-7.1992,-7.1992,-7.1952,-7.19,-7.175,-7.1671,-7.158,-7.1348,-7.1098,-7.0711,-7.0131,-6.9589,-6.8854,-6.7733,-6.7268,-6.6882,-6.6301,-6.6185,-6.6185,-6.6185,-6.6185,-6.6185,-6.6185,-6.5992,-6.5837,-6.5837,-6.5566,-6.4948,-6.3797,-6.3611,-6.3548,-6.3505,-6.3426,-6.3599,-6.4166,-6.4205,-6.4474,-6.5051,-6.5089,-6.5205,-6.5474,-6.5205,-6.5359,-6.5897,-6.5628,-6.5628,0.0,-8.639,-8.7251,-8.6443,-8.5668,-8.4775,-8.3391,-8.2192,-8.0977,-7.9592,-7.8631,-7.7784,-7.6938,-7.6361,-7.6015,-7.6015,0.0,0.0,0.0,0.0,0.0,0.0,0.0,0.0,0.0,-7.721,-7.6978,-7.6436,-7.6397,-7.6243,-7.5933,-7.5121,-7.4298,-7.3501,-7.3112,-7.255,-7.1753,-7.1904,-7.1992,-7.1992,-7.1992,-7.1992,-7.199,-7.1445,-7.1171,-7.1209,-7.1172,-7.0898,0.0,-7.1211,-7.1055,-7.0469,-7.1211,-7.1367,-7.125,-7.1797,-7.1992,-7.1992,-7.1992,-7.1992,-7.1992,-7.1992,-7.1992,-7.1992,-7.1992,-7.1992,-7.1992,-7.1992,-7.1992,-7.195,-7.1796,-7.1731,-7.1647,-7.1425,-7.1355,-7.1137,-7.0595,-7.0208,-6.9667,-6.8661,-6.8197,-6.781,-6.7268,-6.7191,-6.7075,-6.6727,-6.6688,-6.6572,-6.6224,-6.6185,-6.6185,-6.6185,-6.6185,-6.576,-6.4715,-6.4588,-6.4535,-6.4464,-6.4424,-6.4597,-6.5088,-6.5102,-6.5359,-6.5897,-6.5897,-6.5897,-6.5897,-6.5897,-6.5897,-6.5897,-6.5897,-6.5897,0.0,-8.4632,-8.536,-8.4685,-8.393,-8.3171,-8.2309,-8.0914,0.0,-7.8592,-7.7823,-7.7015,-7.6092,-7.5899,-7.5899,-7.5822,0.0,0.0,0.0,0.0,0.0,0.0,-7.6397,0.0,-7.6397,-7.6397,-7.6397,-7.6397,-7.6397,-7.6011,-7.5148,-7.4347,-7.3496,-7.2645,-7.2742,-7.2468,-7.17,-7.1891,-7.1992,-7.1992,-7.1992,-7.1992,-7.199,-7.1992,-7.1992,-7.199,-7.1992,-7.1953,-7.1836,-7.1094,-7.1211,-7.1758,-7.1055,-7.125,-7.1914,-7.1992,-7.1992,-7.1992,-7.1992,-7.1992,-7.1992,-7.1992,-7.1992,-7.1992,-7.1992,-7.1992,-7.1992,-7.1992,-7.1992,-7.1952,-7.1846,-7.1741,-7.1683,-7.1529,-7.1387,-7.1313,-7.1302,-7.0672,-7.0054,-7.0015,-6.9396,-6.8854,-6.8816,-6.8816,-6.8545,-6.7694,-6.7578,-6.7268,-6.6417,-6.6301,-6.6263,-6.6224,-6.6185,-6.6185,-6.6185,-6.6134,-6.6102,-6.6102,-6.604,-6.6008,-6.6008,-6.5947,-6.591,-6.5897,-6.5897,-6.5897,-6.5897,-6.5897,-6.5897,-6.5897,-6.5897,-6.5897,-8.0683,0.0,-8.3639,-8.3542,-8.2996,-8.2271,0.0,-8.0491,-7.94,-7.79,0.0,0.0,-7.5284,-7.5014,-7.4822,0.0,0.0,0.0,0.0,0.0,0.0,-7.6281,-7.6397,-7.6397,-7.6397,-7.6362,-7.635,-7.6397,-7.635,-7.5963,-7.5148,-7.4347,-7.3496,-7.2645,-7.209,-7.1789,-7.17,-7.1813,-7.1903,-7.1992,-7.1992,-7.1992,-7.199,-7.1992,-7.1992,-7.199,-7.1992,-7.1601,-7.1055,-7.1484,-7.1055,-7.0195,-7.1289,-7.1406,-7.1094,-7.1758,-7.1992,-7.1992,-7.1992,-7.1992,-7.1992,-7.1992,-7.1992,-7.1992,-7.1992,-7.1992,-7.1992,-7.1992,-7.1992,-7.1952,-7.1846,-7.178,-7.1733,-7.1551,-7.1486,-7.1415,-7.1334,-7.1137,-7.0789,-7.0131,-6.986,-6.9512,-6.8932,-6.8816,-6.8738,-6.8545,-6.8506,-6.8197,-6.7307,-6.7191,-6.6959,-6.6263,-6.6185,-6.6185,-6.6185,-6.6175,-6.6144,-6.6102,-6.608,-6.6063,-6.6008,-6.5984,-6.596,-6.5897,-6.5897,-6.5897,-6.5897,-6.5897,-6.5897,-6.5897,-6.5897,-6.5897,-7.9756,-8.0722,-8.1728,-8.1881,-8.1433,-8.0822,-8.0361,0.0,0.0,0.0,0.0,0.0,0.0,0.0,0.0,0.0,-7.2822,0.0,0.0,0.0,0.0,-7.6195,-7.6386,-7.6386,0.0,-7.6326,-7.6301,-7.6313,-7.589,-7.531,-7.4485,-7.3686,-7.2797,-7.1947,-7.161,-7.1544,-7.17,-7.1757,-7.1856,-7.1992,-7.1992,-7.1992,-7.199,-7.1992,-7.1992,-7.199,-7.1992,-7.1719,-7.1328,-7.1797,-7.1484,-7.0742,-7.164,-7.1719,-7.1367,-7.1836,-7.1992,-7.1992,-7.1992,-7.1992,-7.1992,-7.1992,-7.1992,-7.1992,-7.1992,-7.1992,-7.1992,-7.1992,-7.1992,-7.1992,-7.1906,-7.1848,-7.1774,-7.1677,-7.1602,-7.1551,-7.1415,-7.1407,-7.1223,-7.0694,-7.0595,-7.044,-7.0015,-6.9938,-6.9821,-6.9396,-6.9357,-6.9048,-6.8197,-6.8119,-6.7926,-6.7423,-6.7036,-6.6804,-6.6804,-6.6417,-6.6175,-6.6144,-6.6112,-6.6069,-6.6052,-6.6017,-6.597,-6.5947,-6.5923,-6.5897,-6.5897,-6.5897,-6.5897,-6.5897,-6.5897,-6.5897,-7.9485,-7.9782,-8.0083,-8.0354,-7.993,-7.9489,-7.9352,0.0,0.0,0.0,0.0,0.0,0.0,-7.3097,0.0,0.0,0.0,0.0,0.0,0.0,0.0,-7.6095,-7.635,0.0,-7.6288,-7.6276,-7.625,-7.6198,-7.5388,-7.4527,-7.3729,-7.288,-7.1993,-7.1144,-7.1278,-7.145,-7.1694,-7.1757,-7.1856,-7.1992,-7.1992,-7.1992,-7.199,-7.1992,-7.1992,-7.199,-7.1992,-7.1992,-7.1992,-7.1992,-7.1992,-7.1992,-7.1992,-7.1992,-7.1992,-7.1992,-7.1992,-7.1992,-7.1992,-7.1992,-7.1992,-7.1992,-7.1992,-7.1992,-7.1992,-7.1992,-7.1992,-7.1992,-7.1992,-7.1992,-7.1992,-7.1907,-7.1841,-7.1795,-7.1745,-7.1694,-7.1559,-7.1497,-7.1478,-7.1348,-7.1313,-7.1291,-7.1291,-7.1291,-7.1059,-7.0324,-7.0208,-6.9899,-6.9087,-6.897,-6.8932,-6.8816,-6.8158,-6.7694,-6.7694,-6.7036,-6.6611,-6.6611,-6.6299,-6.6112,-6.6102,-6.6036,-6.5978,-6.6008,-6.5947,-6.591,-6.5897,-6.6013,-6.609,-6.609,-6.6205,-6.6282,-7.8255,-7.8803,-7.9303,-8.0259,-7.9984,-7.9352,-7.8727,0.0,0.0,0.0,0.0,0.0,0.0,0.0,-7.1611,0.0,0.0,-7.2249,0.0,0.0,-7.4793,-7.6147,0.0,-7.6225,-7.6212,-7.6159,-7.6145,-7.6185,-7.5335,-7.4474,-7.3729,-7.288,-7.1993,-7.1144,-7.1116,-7.13,-7.162,-7.1749,-7.1856,-7.1992,-7.1992,-7.1992,-7.199,-7.1992,-7.1992,-7.199,-7.1992,-7.1992,-7.1992,-7.1992,-7.1992,-7.1992,-7.1992,-7.1992,-7.1992,-7.1992,-7.1992,-7.1992,-7.1992,-7.1992,-7.1992,-7.1992,-7.1992,-7.1992,-7.1992,-7.1992,-7.1992,-7.1992,-7.1992,-7.1992,-7.1992,-7.1992,-7.1949,-7.1841,-7.1786,-7.1757,-7.17,-7.158,-7.1473,-7.1486,-7.1388,-7.1291,-7.1291,-7.1291,-7.1253,-7.1098,-7.1098,-7.0789,-6.9938,-6.9821,-6.9551,-6.8854,-6.87,-6.8622,-6.8622,-6.8468,-6.839,-6.839,-6.7026,-6.6155,-6.6102,-6.6036,-6.5978,-6.6008,-6.5996,-6.596,-6.5897,-6.659,-6.6898,-6.6936,-6.7667,-6.8013,-7.7325,-7.776,-7.8364,-7.9514,-7.9347,-7.8826,-7.8491,-7.7109,0.0,0.0,0.0,0.0,0.0,0.0,-7.1153,-7.067,0.0,-7.3499,-7.4035,-7.4428,-7.4952,0.0,0.0,-7.6185,-7.6145,-7.6118,-7.5898,-7.5421,-7.4585,-7.3738,-7.2918,-7.2045,-7.1428,-7.0992,-7.1089,-7.1281,-7.1544,-7.169,-7.1811,-7.1992,-7.1992,-7.1992,-7.199,-7.1992,-7.1992,-7.199,-7.1992,-7.1992,-7.1992,-7.1992,-7.1992,-7.1992,-7.1992,-7.1992,-7.1992,-7.1992,-7.1992,-7.1992,-7.1992,-7.1992,-7.1992,-7.1992,-7.1992,-7.1992,-7.1992,-7.1992,-7.1992,-7.1992,-7.1992,-7.1992,-7.1992,-7.1992,-7.1992,-7.1908,-7.1904,-7.1895,-7.176,-7.1666,-7.1587,-7.1497,-7.1407,-7.1291,-7.1291,-7.1291,-7.1291,-7.1291,-7.1291,-7.1175,-7.075,-7.0711,-7.0556,-7.0208,-6.9744,-6.9435,-6.9435,-6.9048,-6.8816,-6.8816,-6.8042,-6.7606,-6.7574,-6.7057,-6.6973,-6.7464,-6.6919,-6.687,-6.7307,-6.7654,-6.7782,-6.7821,-6.8205,-6.8385,-7.6357,-7.6753,-7.7286,-7.8485,0.0,-7.8119,-7.8622,-7.6701,0.0,0.0,0.0,0.0,0.0,0.0,0.0,-7.1918,-7.3412,-7.4363,-7.3935,-7.4451,-7.5071,-7.5517,-7.5914,-7.6118,-7.6076,-7.6062,-7.5702,-7.4784,-7.3976,-7.3129,-7.2245,-7.136,-7.0898,-7.0898,-7.1038,-7.1242,-7.1517,-7.1604,-7.175,-7.1992,-7.1992,-7.1991,-7.1988,-7.199,-7.199,-7.1989,-7.1991,-7.1992,-7.1992,-7.1992,-7.1992,-7.1992,-7.1992,-7.1992,-7.1992,-7.1992,-7.1992,-7.1992,-7.1992,-7.1992,-7.1992,-7.1992,-7.1992,-7.1992,-7.1992,-7.1992,-7.1992,-7.1992,-7.1992,-7.1992,-7.1992,-7.1992,-7.1992,-7.1992,-7.1992,-7.1952,-7.1856,-7.1788,-7.1671,-7.1566,-7.1397,-7.1291,-7.1291,-7.1291,-7.1291,-7.1291,-7.1291,-7.1291,-7.1291,-7.1291,-7.1291,-7.1291,-7.0711,-7.0286,-7.0286,-6.9744,-6.9396,-6.9396,-6.9009,-6.8816,-6.8816,-6.8116,-6.8044,-6.8701,-6.793,-6.7858,-6.8513,-6.8629,-6.8706,-6.8719,-6.8898,-6.8975,-7.5215,-7.5645,-7.6123,-7.7313,-7.7227,0.0,-7.9284,-7.7368,0.0,-7.6271,0.0,0.0,0.0,-7.2019,-7.2117,-7.3364,-7.3592,-7.3992,-7.5077,0.0,-7.5183,-7.5967,-7.602,-7.6029,-7.6029,-7.6029,-7.563,-7.4784,-7.3976,-7.3129,-7.2245,-7.136,-7.0898,-7.0898,-7.0925,-7.1131,-7.1517,-7.1491,-7.1686,-7.1992,-7.1991,-7.1988,-7.1981,-7.1981,-7.1981,-7.1981,-7.1988,-7.1991,-7.1992,-7.1992,-7.1992,-7.1992,-7.1992,-7.1992,-7.1992,-7.1992,-7.1992,-7.1992,-7.1992,-7.1992,-7.1992,-7.1992,-7.1992,-7.1992,-7.1992,-7.1992,-7.1992,-7.1992,-7.1992,-7.1992,-7.1992,-7.1992,-7.1992,-7.1992,-7.1992,-7.1992,-7.1992,-7.1822,-7.17,-7.1689,-7.1486,-7.1291,-7.1291,-7.1291,-7.1291,-7.1291,-7.1291,-7.1291,-7.1291,-7.1291,-7.1291,-7.1291,-7.1253,-7.1214,-7.1214,-7.1137,-7.1137,-7.1137,-6.9667,-6.8816,-6.8816,-6.8728,-6.8706,-6.8701,-6.8583,-6.8485,-6.8513,-6.9245,-6.9617,-6.9721,-7.0387,-7.0746,-7.4262,-7.4033,-7.4131,-7.5912,-7.5418,0.0,0.0,-7.6853,-7.536,-7.6422,-7.4882,0.0,0.0,0.0,-7.2803,-7.3834,-7.4626,-7.4993,-7.4585,-7.4905,-7.5327,-7.5584,-7.5833,-7.5902,-7.5567,-7.5357,-7.4734,-7.3597,-7.3014,-7.2322,-7.1437,-7.1091,-7.0898,-7.0898,-7.0898,-7.1085,-7.1481,-7.151,-7.1668,-7.1991,-7.199,-7.1987,-7.2019,-7.2019,-7.2019,-7.1981,-7.1988,-7.1991,-7.1992,-7.1992,-7.1992,-7.1992,-7.1992,-7.1992,-7.1992,-7.1992,-7.1992,-7.1992,-7.1992,-7.1992,-7.1992,-7.1992,-7.1992,-7.1992,-7.1992,-7.1992,-7.1992,-7.1992,-7.1992,-7.1992,-7.1992,-7.1992,-7.1992,-7.1992,-7.1992,-7.1991,-7.1902,-7.1796,-7.1677,-7.1594,-7.1415,-7.1291,-7.1291,-7.1291,-7.1291,-7.1291,-7.1291,-7.1291,-7.1291,-7.1291,-7.1291,-7.1291,-7.1291,-7.1291,-7.1291,-7.1291,-7.1291,-7.1291,-7.0711,-7.0363,-7.0363,-6.9821,-6.9772,-7.0303,-6.9733,-6.9648,-7.0177,-7.0451,-7.0581,-7.0644,-7.0889,-7.1043,-7.3254,-7.2969,-7.2919,-7.3972,0.0,0.0,-7.6732,-7.6159,-7.5446,-7.6688,-7.5484,-7.402,-7.3441,0.0,0.0,0.0,-7.48,-7.5311,-7.4378,-7.4886,-7.543,-7.5518,-7.5803,-7.5741,-7.4979,-7.4781,-7.4075,-7.2537,-7.2302,-7.1822,-7.0937,-7.0898,-7.0898,-7.0898,-7.0898,-7.1074,-7.1497,-7.1216,-7.138,-7.1989,-7.1713,-7.1749,-7.2019,-7.2017,-7.2017,-7.1981,-7.1986,-7.199,-7.1992,-7.1992,-7.1992,-7.1992,-7.1992,-7.1992,-7.1992,-7.1992,-7.1992,-7.1992,-7.1992,-7.1992,-7.1992,-7.1992,-7.1992,-7.1992,-7.1992,-7.1992,-7.1992,-7.1992,-7.1992,-7.1992,-7.1992,-7.1992,-7.1992,-7.1992,-7.1992,-7.1952,-7.1898,-7.1792,-7.1677,-7.158,-7.1415,-7.1291,-7.1291,-7.1291,-7.1291,-7.1291,-7.1291,-7.1291,-7.1291,-7.1291,-7.1291,-7.1291,-7.1291,-7.1291,-7.1291,-7.1291,-7.1291,-7.1291,-7.1291,-7.1291,-7.1291,-7.0711,-7.0672,-7.1291,-7.0656,-7.0583,-7.1213,-7.113,-7.1118,-7.113,-7.1106,-7.1118,-7.2098,-7.2495,-7.277,0.0,0.0,0.0,-7.5215,-7.5417,-7.5703,-7.718,-7.6157,-7.4335,-7.23,-7.3274,0.0,-7.2691,-7.3731,-7.4705,-7.4705,-7.5075,-7.5485,-7.5932,-7.5976,-7.5472,-7.4231,-7.4451,-7.3806,-7.1751,-7.1957,-7.1822,-7.0937,-7.0898,-7.0898,-7.0898,-7.0898,-7.1074,-7.1459,-7.0611,-7.078,-7.195,-7.1119,-7.1153,-7.2019,-7.201,-7.2012,-7.2019,-7.2019,-7.1988,-7.1992,-7.1992,-7.1992,-7.1992,-7.1992,-7.1992,-7.1992,-7.1992,-7.1992,-7.1992,-7.1992,-7.1992,-7.1992,-7.1992,-7.1992,-7.1992,-7.1992,-7.1992,-7.1992,-7.1992,-7.1992,-7.1992,-7.1992,-7.1992,-7.1992,-7.1992,-7.1992,-7.1992,-7.1992,-7.1825,-7.17,-7.17,-7.1465,-7.1291,-7.1291,-7.1291,-7.1291,-7.1302,-7.1302,-7.1302,-7.1302,-7.1302,-7.1291,-7.1291,-7.1291,-7.1291,-7.1291,-7.1291,-7.1291,-7.1291,-7.1291,-7.1291,-7.1291,-7.1291,-7.1291,-7.1291,-7.1236,-7.1213,-7.1213,-7.1142,-7.1142,-7.1201,-7.113,-7.1142,-7.2704,-7.1911,0.0,-7.222,0.0,0.0,0.0,0.0,0.0,0.0,-7.5309,-7.3914,-7.3582,-7.3143,0.0,-7.3243,-7.3804,-7.4309,-7.4664,-7.5075,-7.5485,-7.5932,-7.5476,-7.4727,-7.3763,-7.2983,-7.2155,-7.1179,-7.0942,-7.0861,-7.0885,-7.0898,-7.0898,-7.0898,-7.036,-7.0239,-7.0596,-6.9741,-6.9562,-7.0188,-7.054,-7.1163,-7.2019,-7.2002,-7.2004,-7.2019,-7.2019,-7.1988,-7.1992,-7.1992,-7.1992,-7.1992,-7.1992,-7.1992,-7.1992,-7.1992,-7.1992,-7.1992,-7.1992,-7.1992,-7.1992,-7.1992,-7.1992,-7.1992,-7.1992,-7.1992,-7.1992,-7.1992,-7.1992,-7.1992,-7.1992,-7.1992,-7.1992,-7.1992,-7.1992,-7.1952,-7.1898,-7.1792,-7.1729,-7.1601,-7.1512,-7.1397,-7.1324,-7.1291,-7.1345,-7.1415,-7.1443,-7.1443,-7.1443,-7.1443,-7.1387,-7.1313,-7.1291,-7.1291,-7.1291,-7.1291,-7.1291,-7.1291,-7.1291,-7.1291,-7.1291,-7.1291,-7.1291,-7.1291,-7.128,-7.1269,-7.1269,-7.1247,-7.1247,-7.1269,-7.1247,-7.1247,-7.2005,-7.1545,0.0,-7.2125,-7.2438,-7.3185,-7.5439,0.0,0.0,0.0,-7.532,-7.4274,-7.3549,-7.2982,0.0,-7.3017,-7.3766,-7.4239,-7.421,-7.4707,-7.5056,-7.5024,-7.4553,-7.3822,-7.2829,-7.2057,-7.126,-7.0479,-7.0369,-7.04,-7.0637,-7.0791,-7.0898,-7.0898,-7.0129,-6.9841,-7.0183,-6.8994,-6.8738,-6.9403,-6.9563,-7.0305,-7.1511,-7.1856,-7.2014,-7.1981,-7.1986,-7.199,-7.1992,-7.1992,-7.1992,-7.1992,-7.1992,-7.1992,-7.1992,-7.1992,-7.1992,-7.1992,-7.1992,-7.1992,-7.1992,-7.1992,-7.1992,-7.1992,-7.1992,-7.1992,-7.1992,-7.1992,-7.1992,-7.1992,-7.1992,-7.1992,-7.1992,-7.1992,-7.1992,-7.1991,-7.1903,-7.1846,-7.1767,-7.1655,-7.1583,-7.1551,-7.1486,-7.1469,-7.1503,-7.1566,-7.158,-7.1559,-7.1489,-7.1481,-7.1452,-7.1324,-7.1291,-7.1291,-7.1291,-7.1291,-7.1291,-7.1291,-7.1291,-7.1291,-7.1291,-7.1291,-7.1291,-7.1291,-7.1291,-7.1291,-7.1291,-7.1291,-7.1291,-7.1291,-7.1291,-7.1291,-7.0697,0.0,0.0,-7.177,-7.2904,0.0,-7.6485,-7.7496,-7.7589,-7.6094,0.0,-7.5081,-7.2767,-7.2915,-7.3175,-7.2432,-7.3628,-7.4341,-7.3449,-7.4104,-7.4356,-7.3548,-7.3409,-7.2923,-7.168,-7.1477,-7.0941,-6.974,-6.9977,-7.02,-7.0217,-7.0622,-7.0819,-7.0742,-7.0,-6.9687,-6.995,-6.8326,-6.8076,-6.9169,-6.8466,-6.8974,-7.0614,-7.1479,-7.1909,-7.1982,-7.1991,-7.1992,-7.1992,-7.1992,-7.1992,-7.1992,-7.1992,-7.1992,-7.1992,-7.1992,-7.1992,-7.1992,-7.1992,-7.1992,-7.1992,-7.1992,-7.1992,-7.1992,-7.1992,-7.1992,-7.1992,-7.1992,-7.1992,-7.1992,-7.1992,-7.1992,-7.1992,-7.1992,-7.1992,-7.1992,-7.1992,-7.1904,-7.1797,-7.1792,-7.1737,-7.1711,-7.1705,-7.1694,-7.1689,-7.17,-7.1711,-7.1671,-7.1529,-7.1489,-7.1452,-7.1324,-7.1291,-7.1291,-7.1291,-7.1291,-7.1291,-7.1291,-7.1291,-7.1291,-7.1291,-7.1291,-7.1291,-7.1291,-7.1291,-7.1291,-7.1291,-7.1291,-7.1291,-7.1291,-7.1291,-7.1291,0.0,-7.2239,0.0,0.0,0.0,-7.6169,-7.7303,-7.7817,-7.7589,-7.6094,-7.5787,-7.5267,-7.3473,-7.3287,-7.3361,-7.3175,-7.3699,-7.3868,-7.304,-7.3688,-7.3937,-7.3111,-7.2716,-7.2103,-7.1216,-7.0516,-6.9853,-6.9282,-6.9286,-6.9488,-6.9814,-7.0222,-7.0148,-6.9498,-6.8967,-6.8529,-6.8163,-6.7168,-6.6907,-6.7451,-6.7924,-6.8707,-6.9722,-7.0579,-7.136,-7.1989,-7.1992,-7.1992,-7.1992,-7.1992,-7.1992,-7.1992,-7.1992,-7.1992,-7.1992,-7.1992,-7.1992,-7.1992,-7.1992,-7.1992,-7.1992,-7.1992,-7.1992,-7.1992,-7.1992,-7.1992,-7.1992,-7.1992,-7.1992,-7.1992,-7.1992,-7.1992,-7.1992,-7.1992,-7.1992,-7.1992,-7.1992,-7.1991,-7.1947,-7.18,-7.178,-7.1753,-7.1716,-7.1615,-7.158,-7.1689,-7.1729,-7.1741,-7.1677,-7.1566,-7.1452,-7.1324,-7.1291,-7.1291,-7.1291,-7.1291,-7.1291,-7.1291,-7.1291,-7.1291,-7.1291,-7.1291,-7.1291,-7.1291,-7.1291,-7.1291,-7.1291,-7.1291,-7.1291,-7.1291,-7.1291,-7.1291,0.0,0.0,0.0,0.0,0.0,0.0,0.0,-7.7546,-7.7032,-7.602,-7.5787,-7.5304,-7.3696,-7.3398,-7.3398,-7.3398,-7.3415,-7.3146,-7.232,-7.2427,-7.2296,-7.1459,-7.1138,-7.0837,-7.0441,-6.9793,-6.9344,-6.9112,-6.9091,-6.9198,-6.9388,-6.9416,-6.9337,-6.9104,-6.8065,-6.7562,-6.7581,-6.6793,-6.6571,-6.6904,-6.7341,-6.8007,-6.8866,-7.0543,-7.1559,-7.1991,-7.1992,-7.1992,-7.1992,-7.1992,-7.1992,-7.1992,-7.1992,-7.1992,-7.1992,-7.1992,-7.1992,-7.1992,-7.1992,-7.1992,-7.1992,-7.1992,-7.1992,-7.1992,-7.1992,-7.1992,-7.1992,-7.1992,-7.1992,-7.1992,-7.1992,-7.1992,-7.1992,-7.1992,-7.1992,-7.1992,-7.1992,-7.1992,-7.1992,-7.1906,-7.1902,-7.1897,-7.1834,-7.1796,-7.1745,-7.1822,-7.1831,-7.1767,-7.1716,-7.158,-7.1452,-7.1324,-7.1291,-7.1291,-7.1291,-7.1291,-7.1291,-7.1291,-7.1291,-7.1291,-7.1291,-7.1291,-7.1291,-7.1291,-7.1291,-7.1291,-7.1291,-7.1291,-7.1291,-7.1291,-7.1291,-7.1291,0.0,0.0,0.0,0.0,0.0,0.0,0.0,0.0,0.0,-7.5733,-7.5564,-7.5118,-7.3696,-7.3398,-7.3398,-7.3398,-7.303,-7.2431,-7.1583,-7.1136,-7.0552,-6.97,-6.9664,-6.9664,-6.9606,-6.9303,-6.9069,-6.9019,-6.9019,-6.8944,-6.8794,-6.8538,-6.8467,-6.8564,-6.7293,-6.6846,-6.7386,-6.6736,-6.6585,-6.6904,-6.7069,-6.75,-6.8281,-7.0663,-7.1796,-7.1797,-7.1914,-7.1992,-7.1992,-7.1992,-7.1992,-7.1992,-7.1992,-7.1992,-7.1992,-7.1992,-7.1992,-7.1992,-7.1992,-7.1992,-7.1992,-7.1992,-7.1992,-7.1992,-7.1992,-7.1992,-7.1992,-7.1992,-7.1992,-7.1992,-7.1992,-7.1992,-7.1992,-7.1992,-7.1992,-7.1992,-7.1992,-7.1992,-7.1992,-7.1992,-7.1992,-7.1992,-7.1952,-7.1992,-7.2031,-7.2186,-7.2084,-7.2026,-7.21,-7.1987,-7.1803,-7.1545,-7.1523,-7.1446,-7.1291,-7.1291,-7.1291,-7.1291,-7.1291,-7.1291,-7.1291,-7.1291,-7.1291,-7.1291,-7.1291,-7.1291,-7.1291,-7.1291,-7.1291,-7.1291,-7.1291,-7.1291,0.0,0.0,0.0,0.0,0.0,0.0,0.0,0.0,0.0,0.0,-7.4747,-7.445,-7.3558,-7.3398,-7.3398,-7.3398,-7.2781,-7.1975,-7.1132,-7.0629,-7.0079,-6.9289,-6.9488,-6.9548,-6.9219,-6.9134,-6.8952,-6.8589,-6.8602,-6.8267,-6.7598,-6.7813,-6.75,-6.6458,-6.6532,-6.6577,-6.6462,-6.6432,-6.6585,-6.6904,-6.7655,-6.8086,-6.8242,-7.0078,-7.0859,-7.0937,-7.168,-7.1992,-7.1992,-7.1992,-7.1992,-7.1992,-7.1992,-7.1992,-7.1992,-7.1992,-7.1992,-7.1992,-7.1992,-7.1992,-7.1992,-7.1992,-7.1992,-7.1992,-7.1992,-7.1992,-7.1992,-7.1992,-7.1992,-7.1992,-7.1992,-7.1992,-7.1992,-7.1992,-7.1992,-7.1992,-7.1992,-7.1992,-7.1992,-7.1992,-7.1992,-7.1951,-7.185,-7.1908,-7.2225,-7.2863,-7.2838,-7.3036,-7.3765,-7.3709,-7.3297,-7.2491,-7.2413,-7.2104,-7.1369,-7.1291,-7.1291,-7.1291,-7.1291,-7.1291,-7.1291,-7.1291,-7.1291,-7.1291,-7.1291,-7.1291,-7.1291,-7.1291,-7.1291,-7.1291,-7.1291,-7.1291,0.0,0.0,0.0,0.0,0.0,0.0,0.0,0.0,0.0,-7.4795,-7.4227,-7.3844,-7.3473,-7.3398,-7.3398,-7.3398,-7.2332,-7.1329,-7.0932,-6.9977,-6.9174,-6.88,-6.8908,-6.8952,-6.8786,-6.8763,-6.8707,-6.8506,-6.8481,-6.8171,-6.7354,-6.7217,-6.6797,-6.6007,-6.5928,-6.6,-6.6307,-6.6354,-6.656,-6.6912,-6.7304,-6.7461,-6.75,-6.875,-6.9805,-7.0742,-7.1601,-7.1992,-7.1992,-7.1992,-7.1992,-7.1992,-7.1992,-7.1992,-7.1992,-7.1992,-7.1992,-7.1992,-7.1992,-7.1992,-7.1992,-7.1992,-7.1992,-7.1992,-7.1992,-7.1992,-7.1992,-7.1992,-7.1992,-7.1992,-7.1992,-7.1992,-7.1992,-7.1992,-7.1992,-7.2148,-7.2617,-7.2344,-7.2148,-7.2617,-7.3125,-7.3437,-7.3392,-7.3436,-7.3554,-7.39,-7.3822,-7.3891,-7.4246,-7.4148,-7.3888,-7.3534,-7.3022,-7.2754,-7.288,-7.2405,-7.2124,-7.2037,-7.2026,-7.1794,-7.133,-7.1291,-7.1291,-7.1291,-7.1291,-7.1355,-7.1397,-7.1397,-7.1397,-7.1397,-7.1397,-7.1378,0.0,0.0,0.0,0.0,0.0,0.0,0.0,0.0,0.0,0.0,-7.3844,-7.3398,-7.3398,-7.3398,-7.3398,-7.3398,-7.1998,-7.0895,-7.0895,-6.9484,-6.8481,-6.8481,-6.8481,-6.8481,-6.8481,-6.8481,-6.8481,-6.8481,-6.8481,-6.806,-6.7057,-6.6746,-6.6307,-6.5704,-6.5416,-6.5615,-6.6243,-6.6368,-6.6588,-6.6914,-6.6914,-6.6914,-6.6914,-6.7812,-6.8867,-7.0117,-7.1211,-7.1797,-7.1992,-7.1992,-7.1992,-7.1992,-7.1992,-7.1992,-7.1992,-7.1992,-7.1992,-7.1992,-7.1992,-7.1992,-7.1992,-7.1992,-7.1992,-7.1992,-7.1992,-7.1992,-7.1992,-7.1992,-7.1992,-7.1992,-7.1992,-7.1992,-7.207,-7.2265,-7.2344,-7.25,-7.3164,-7.2969,-7.2851,-7.3515,-7.414,-7.4609,-7.4609,-7.4609,-7.4687,-7.4883,-7.4829,-7.4801,-7.5035,-7.4895,-7.4707,-7.4544,-7.3918,-7.3651,-7.4079,-7.3535,-7.3129,-7.3026,-7.3005,-7.2587,-7.1735,-7.1633,-7.1523,-7.1291,-7.1291,-7.1368,-7.1481,-7.1481,-7.1481,-7.1481,-7.1481,-7.1425,0.0,0.0,0.0,0.0,0.0,0.0,0.0,0.0,0.0,0.0,-7.3435,-7.3398,-7.3398,-7.3398,-7.3398,-7.3398,-7.1998,-7.0895,-7.0895,-6.9484,-6.8481,-6.8481,-6.8481,-6.8481,-6.8481,-6.8481,-6.8481,-6.8481,-6.8481,-6.7837,-6.6239,-6.6447,-6.6044,-6.4813,-6.5128,-6.5561,-6.6118,-6.6418,-6.6675,-6.6914,-6.6914,-6.6914,-6.6914,-6.7812,-6.8242,-6.8437,-7.0078,-7.125,-7.1992,-7.1992,-7.1992,-7.1992,-7.1992,-7.1992,-7.1992,-7.1992,-7.1992,-7.1992,-7.1992,-7.1992,-7.1992,-7.1992,-7.1992,-7.1992,-7.1992,-7.1992,-7.1992,-7.1992,-7.1992,-7.1992,-7.1992,-7.1992,-7.2226,-7.3047,-7.3242,-7.3242,-7.3281,-7.3906,-7.4492,-7.4531,-7.457,-7.4609,-7.4609,-7.4609,-7.4883,-7.5703,-7.5726,-7.593,-7.675,-7.6751,-7.6331,-7.5524,-7.5402,-7.5051,-7.4277,-7.416,-7.4116,-7.411,-7.4055,-7.3618,-7.2763,-7.2608,-7.2142,-7.133,-7.1291,-7.1368,-7.1481,-7.1481,-7.1481,-7.1481,-7.1481,-7.1425,0.0,0.0,0.0,0.0,0.0,0.0,0.0,0.0,0.0,-7.3421,-7.3398,-7.3398,-7.3398,-7.3398,-7.3398,-7.3398,-7.1998,-7.0895,-7.0895,-6.9484,-6.8481,-6.8481,-6.8481,-6.8481,-6.8481,-6.8481,-6.8481,-6.8481,-6.8023,-6.7323,-6.6484,-6.6287,-6.5876,-6.5112,-6.547,-6.589,-6.6299,-6.6512,-6.6717,-6.6914,-6.6914,-6.6914,-6.6914,-6.7226,-6.7656,-6.8242,-6.8828,-6.9883,-7.1211,-7.1758,-7.1992,-7.1992,-7.1992,-7.1992,-7.1992,-7.1992,-7.1992,-7.1992,-7.1992,-7.1992,-7.1992,-7.1992,-7.1992,-7.1992,-7.1992,-7.1992,-7.1992,-7.1992,-7.1992,-7.2148,-7.2695,-7.2812,-7.3047,-7.3945,-7.457,-7.4961,-7.4961,-7.5195,-7.543,-7.543,-7.5898,-7.6289,-7.6289,-7.6289,-7.6172,-7.5937,-7.6326,-7.6556,-7.6321,-7.6677,-7.6848,-7.6614,-7.5999,-7.5737,-7.5971,-7.5464,-7.5127,-7.5023,-7.5015,-7.4598,-7.3673,-7.3604,-7.3113,-7.2142,-7.2142,-7.1969,-7.1634,-7.1634,-7.1634,-7.1634,-7.1634,-7.1497,-6.6733,0.0,0.0,0.0,0.0,0.0,0.0,0.0,0.0,-7.3309,-7.3346,-7.332,-7.332,-7.332,-7.3357,-7.3372,-7.1998,-7.0895,-7.0895,-6.9484,-6.8481,-6.8481,-6.8481,-6.8481,-6.8481,-6.8481,-6.8481,-6.8481,-6.7763,-6.7118,-6.6645,-6.6201,-6.5872,-6.5523,-6.5768,-6.6046,-6.6387,-6.6507,-6.6658,-6.6914,-6.6914,-6.6914,-6.6914,-6.6914,-6.7226,-6.7773,-6.8086,-6.8984,-7.0312,-7.1211,-7.1562,-7.1601,-7.1875,-7.1992,-7.1992,-7.1992,-7.1992,-7.1992,-7.1992,-7.1992,-7.1992,-7.1992,-7.1992,-7.1992,-7.1992,-7.1992,-7.1992,-7.1992,-7.2226,-7.2578,-7.3164,-7.3711,-7.4336,-7.4883,-7.5703,-7.6328,-7.6328,-7.6328,-7.6328,-7.6328,-7.6797,-7.7187,-7.7187,-7.7187,-7.6992,-7.6406,-7.6836,-7.6992,-7.6406,-7.675,-7.7097,-7.7187,-7.6594,-7.6423,-7.7011,-7.6542,-7.6178,-7.6096,-7.6028,-7.5569,-7.4615,-7.4514,-7.407,-7.3121,-7.3111,-7.2918,-7.2613,-7.1956,-7.1659,-7.17,-7.1659,-7.1653,0.0,0.0,0.0,0.0,0.0,0.0,0.0,0.0,0.0,-7.3123,-7.3231,-7.3124,-7.3199,-7.3199,-7.3252,-7.3372,-7.2035,-7.0932,-7.0895,-6.9521,-6.8518,-6.8481,-6.8481,-6.8481,-6.8481,-6.8481,-6.8481,-6.8481,-6.7725,-6.7104,-6.6645,-6.6239,-6.595,-6.5885,-6.5897,-6.6046,-6.6387,-6.6387,-6.6568,-6.6914,-6.6914,-6.6914,-6.6914,-6.6914,-6.6914,-6.6953,-6.7773,-6.8594,-6.9414,-7.0273,-7.0664,-7.0781,-7.164,-7.1992,-7.1992,-7.1992,-7.1992,-7.1992,-7.1992,-7.1992,-7.1992,-7.1992,-7.1992,-7.1992,-7.1992,-7.1992,-7.1992,-7.1992,-7.2617,-7.332,-7.3359,-7.4648,-7.5937,-7.5937,-7.6562,-7.7187,-7.7187,-7.7187,-7.7187,-7.7187,-7.7187,-7.7187,-7.7187,-7.7187,-7.7187,-7.7187,-7.7148,-7.7148,-7.7148,-7.7148,-7.7187,-7.7187,-7.7187,-7.7187,-7.7187,-7.7187,-7.7187,-7.7187,-7.7052,-7.6564,-7.5569,-7.5424,-7.4939,-7.4131,-7.4131,-7.4211,-7.441,-7.2504,-7.1651,-7.1778,-7.1629,-7.1959,-6.442,0.0,0.0,0.0,0.0,0.0,0.0,0.0,0.0,-7.1935,-7.1372,-7.0972,-7.2997,-7.3278,-7.3252,-7.3372,-7.2518,-7.1626,-7.097,-7.0004,-6.915,-6.858,-6.8408,-6.8383,-6.8481,-6.8408,-6.8383,0.0,-6.7434,-6.6854,-6.7013,-6.6335,-6.5931,-6.5897,-6.5897,-6.6046,-6.6387,-6.6387,-6.6568,-6.6914,-6.6914,-6.6914,-6.6914,-6.6914,-6.6914,-6.6914,-6.7148,-6.7383,-6.7695,-6.914,-7.0117,-7.0703,-7.0976,-7.1445,-7.1992,-7.1992,-7.1992,-7.1992,-7.1992,-7.1992,-7.1992,-7.1992,-7.1992,-7.1992,-7.1992,-7.1992,-7.1992,-7.1992,-7.2617,-7.3594,-7.4844,-7.6015,-7.6836,-7.6836,-7.7031,-7.7187,-7.7187,-7.7187,-7.7187,-7.7187,-7.7187,-7.7187,-7.7187,-7.7187,-7.6992,-7.6367,-7.625,-7.625,-7.625,-7.625,-7.6484,-7.7148,-7.7187,-7.7187,-7.7187,-7.7187,-7.7187,-7.7187,-7.7052,-7.6833,-7.646,-7.6311,-7.5832,-7.4977,-7.4977,-7.4795,-7.441,-7.3753,-7.3457,-7.3487,-7.3333,-7.3358,-6.3062,-6.3957,0.0,0.0,0.0,0.0,-6.7405,-6.7504,0.0,0.0,-7.011,-6.9921,-7.1906,-7.1954,-7.1891,-7.2637,-7.2455,-7.1886,-7.1007,-7.0165,-6.9298,-6.8519,-6.8334,-6.8334,-6.8408,-6.8383,-6.8408,-6.8481,-6.7344,-6.6475,-6.6179,-6.5992,-6.5808,-6.5649,-6.5795,-6.6046,-6.6387,-6.6387,-6.6568,-6.6914,-6.6914,-6.6914,-6.6914,-6.6914,-6.6914,-6.6914,-6.6914,-6.6914,-6.6992,-6.7969,-6.8867,-6.9726,-7.043,-7.1015,-7.1484,-7.1875,-7.1992,-7.1992,-7.1992,-7.1992,-7.1992,-7.1992,-7.1992,-7.1992,-7.1992,-7.1992,-7.1992,-7.1992,-7.289,-7.4258,-7.5976,-7.6836,-7.7187,-7.7187,-7.7187,-7.7187,-7.7187,-7.7187,-7.7187,-7.7187,-7.7187,-7.7187,-7.7187,-7.7187,-7.7031,-7.6523,-7.6445,-7.6445,-7.6445,-7.6445,-7.664,-7.7148,-7.7187,-7.7187,-7.7187,-7.7187,-7.7187,-7.7187,-7.7142,-7.6984,-7.681,-7.6728,-7.6443,-7.5938,-7.5938,-7.5755,-7.5417,-7.4572,-7.4116,-7.4078,-7.4312,-7.4386,-6.1618,-6.2855,0.0,-6.407,-6.4857,0.0,-6.647,-6.7135,-6.7887,0.0,0.0,-6.9093,-7.0246,-6.9939,-6.9976,-7.142,-7.1958,-7.1886,-7.1007,-7.0163,-6.9309,-6.8395,-6.8284,-6.8284,-6.8284,-6.8408,-6.8481,-6.8481,-6.7344,-6.6044,-6.481,-6.5456,-6.5663,-6.5299,-6.569,-6.6056,-6.6387,-6.6393,-6.6572,-6.6914,-6.6914,-6.6914,-6.6914,-6.6914,-6.6914,-6.6914,-6.6914,-6.6914,-6.6914,-6.6914,-6.7422,-6.8359,-6.9961,-7.0625,-7.082,-7.168,-7.1992,-7.1992,-7.1992,-7.1992,-7.1992,-7.1992,-7.1992,-7.1992,-7.1992,-7.1992,-7.2031,-7.2109,-7.332,-7.4961,-7.664,-7.7148,-7.7187,-7.7187,-7.7187,-7.7187,-7.7187,-7.7187,-7.7187,-7.7187,-7.7187,-7.7187,-7.7187,-7.7187,-7.7187,-7.7187,-7.7109,-7.7109,-7.7187,-7.7109,-7.7109,-7.7187,-7.7187,-7.7187,-7.7187,-7.7187,-7.7187,-7.7187,-7.7187,-7.7044,-7.681,-7.6774,-7.6774,-7.6804,-7.6827,-7.6827,-7.6804,-7.5167,-7.4324,-7.4193,-7.4928,-7.5237,-6.1739,-6.2572,-6.3405,-6.3405,-6.4092,0.0,-6.5025,-6.4692,-6.4975,0.0,-6.6445,-6.6112,-6.8482,-6.9248,-6.9631,-7.0065,-7.1267,-7.1861,-7.0905,-7.0557,-6.9876,-6.8306,-6.8158,-6.8183,-6.8284,-6.8309,-6.8383,-6.8481,-6.7344,-6.618,-6.5155,-6.5284,-6.5397,-6.5299,-6.573,-6.6126,-6.6387,-6.6457,-6.6623,-6.6914,-6.6914,-6.6914,-6.6914,-6.6914,-6.6914,-6.6914,-6.6914,-6.6914,-6.6914,-6.6914,-6.7422,-6.8281,-6.9336,-7.0117,-7.082,-7.168,-7.1992,-7.1992,-7.1992,-7.1992,-7.1992,-7.1992,-7.1992,-7.1992,-7.1992,-7.1992,-7.2148,-7.2851,-7.3789,-7.4844,-7.5898,-7.668,-7.7187,-7.7187,-7.7187,-7.7187,-7.7187,-7.7187,-7.7187,-7.7187,-7.7187,-7.7187,-7.7187,-7.7187,-7.7187,-7.7187,-7.6601,-7.6406,-7.7109,-7.6601,-7.6365,-7.6966,-7.7039,-7.7039,-7.7039,-7.7039,-7.7094,-7.7187,-7.6981,-7.6848,-7.6804,-7.66,-7.6582,-7.6799,-7.7029,-7.7029,-7.6804,-7.6469,-7.6155,-7.5933,-7.6049,-7.6165,-6.1379,-6.2271,-6.3289,-6.3289,-6.3632,0.0,0.0,-6.3965,-6.4274,-6.5676,-6.5173,-6.5075,0.0,0.0,-6.7592,-6.889,-6.9806,-7.0276,-7.0112,-7.0369,-7.0106,-6.8767,-6.8303,-6.8158,-6.8208,-6.8309,-6.832,-6.8073,-6.717,-6.6209,-6.5256,-6.5253,-6.5222,-6.5025,-6.5692,-6.6167,-6.6387,-6.6517,-6.6664,-6.6914,-6.6914,-6.6914,-6.6914,-6.6914,-6.6914,-6.6914,-6.6914,-6.6914,-6.6914,-6.6914,-6.7148,-6.7656,-6.8515,-6.9375,-7.0195,-7.1055,-7.164,-7.1992,-7.1992,-7.1992,-7.1992,-7.1992,-7.1992,-7.1992,-7.1992,-7.1992,-7.2187,-7.3047,-7.3594,-7.4258,-7.5547,-7.6211,-7.664,-7.7109,-7.7187,-7.7187,-7.7187,-7.7187,-7.7187,-7.7187,-7.7187,-7.7187,-7.7187,-7.7187,-7.7187,-7.7187,-7.6836,-7.6719,-7.7148,-7.6836,-7.6677,-7.6951,-7.6984,-7.6972,-7.693,-7.6965,-7.7034,-7.7096,-7.6972,-7.6863,-7.6804,-7.6618,-7.66,-7.6799,-7.7048,-7.7097,-7.6886,-7.6833,-7.6653,-7.6397,-7.6397,-7.6397,-6.1223,-6.2225,-6.3465,-6.3465,-6.3465,-6.3465,0.0,0.0,0.0,0.0,0.0,0.0,0.0,0.0,0.0,0.0,0.0,0.0,0.0,-6.9492,0.0,-6.8762,-6.8351,-6.8058,-6.7936,-6.8111,-6.8044,-6.7606,-6.6737,-6.5897,-6.5218,-6.5171,-6.5041,-6.4734,-6.5613,-6.6243,-6.6432,-6.6533,-6.6694,-6.6914,-6.6914,-6.6914,-6.6914,-6.6914,-6.6914,-6.6914,-6.6914,-6.6914,-6.6914,-6.6914,-6.6914,-6.6992,-6.7851,-6.8711,-6.9609,-7.039,-7.125,-7.1992,-7.1992,-7.1992,-7.1992,-7.1992,-7.1992,-7.1992,-7.1992,-7.1992,-7.2148,-7.2851,-7.3164,-7.3672,-7.5234,-7.5781,-7.6133,-7.6992,-7.7187,-7.7187,-7.7187,-7.7187,-7.7187,-7.7187,-7.7187,-7.7187,-7.7187,-7.7187,-7.7147,-7.7147,-7.7144,-7.7143,-7.7146,-7.7147,-7.7101,-7.7029,-7.6972,-7.6938,-7.681,-7.6868,-7.6954,-7.6981,-7.6958,-7.6878,-7.6804,-7.6661,-7.6653,-7.6799,-7.7039,-7.7096,-7.6965,-7.6848,-7.6669,-7.6427,-7.6421,-7.6397,-6.2063,-6.2784,-6.3579,-6.3579,-6.3579,-6.3579,-6.3579,0.0,-6.3705,-6.3728,0.0,0.0,0.0,0.0,0.0,0.0,0.0,0.0,-6.7383,-6.7432,-6.742,-6.7183,-6.77,-6.7862,-6.7259,-6.7235,-6.733,-6.7494,-6.5849,-6.4911,-6.5089,-6.4879,-6.4786,-6.4782,-6.5685,-6.6283,-6.6507,-6.6635,-6.6777,-6.6914,-6.6914,-6.6914,-6.6914,-6.6914,-6.6914,-6.6914,-6.6914,-6.6914,-6.6914,-6.6914,-6.6914,-6.6992,-6.7851,-6.8711,-6.9609,-7.039,-7.125,-7.1992,-7.1992,-7.1992,-7.1992,-7.1992,-7.1992,-7.1992,-7.1992,-7.1992,-7.2031,-7.2109,-7.2695,-7.3515,-7.4492,-7.5312,-7.6133,-7.6992,-7.7187,-7.7187,-7.7187,-7.7187,-7.7187,-7.7187,-7.7187,-7.7187,-7.7187,-7.7097,-7.7034,-7.7034,-7.6938,-7.6878,-7.7026,-7.7034,-7.7032,-7.6984,-7.6882,-7.6816,-7.6804,-7.6699,-7.6748,-7.6975,-7.678,-7.6684,-7.6799,-7.6661,-7.6653,-7.6799,-7.6954,-7.6961,-7.6822,-7.681,-7.6721,-7.6564,-7.646,-7.6397,0.0,-6.2591,-6.3044,-6.349,-6.3602,-6.3602,-6.3602,-6.3602,-6.3602,-6.3602,0.0,0.0,0.0,0.0,0.0,0.0,-6.5362,0.0,0.0,0.0,-6.6457,0.0,0.0,0.0,-6.642,-6.5927,-6.5791,-6.6308,-6.4827,-6.4248,-6.4993,-6.4822,-6.4837,-6.513,-6.5894,-6.6386,-6.6513,-6.6714,-6.6833,-6.6914,-6.6914,-6.6914,-6.6914,-6.6914,-6.6914,-6.6914,-6.6914,-6.6914,-6.6914,-6.6914,-6.6914,-6.6953,-6.7305,-6.7969,-6.8828,-6.9648,-7.0508,-7.1328,-7.1836,-7.1992,-7.1992,-7.1992,-7.1992,-7.1992,-7.1992,-7.1992,-7.1992,-7.1992,-7.2265,-7.2734,-7.3633,-7.4492,-7.5351,-7.625,-7.6836,-7.7187,-7.7187,-7.7187,-7.7187,-7.7187,-7.7144,-7.7093,-7.7093,-7.7039,-7.6972,-7.6882,-7.6833,-7.6822,-7.6868,-7.6873,-7.6873,-7.6873,-7.6833,-7.6774,-7.6684,-7.678,-7.6843,-7.6873,-7.678,-7.6661,-7.6573,-7.6591,-7.6643,-7.6677,-7.6816,-7.6853,-7.6804,-7.6721,-7.6676,-7.66,-7.6471,-7.6397,-6.2428,-6.2562,-6.2896,-6.3453,-6.3602,-6.3602,-6.3602,-6.3602,-6.3602,-6.3602,-6.3602,0.0,0.0,0.0,0.0,0.0,0.0,-6.4693,0.0,0.0,0.0,0.0,0.0,0.0,0.0,-6.4794,-6.4488,-6.5432,-6.3957,-6.3562,-6.4778,-6.4727,-6.4888,-6.5238,-6.6002,-6.6444,-6.6524,-6.6776,-6.6914,-6.6914,-6.6914,-6.6914,-6.6914,-6.6914,-6.6914,-6.6914,-6.6914,-6.6914,-6.6914,-6.6914,-6.6914,-6.6914,-6.6914,-6.7305,-6.7969,-6.9023,-6.9961,-7.082,-7.1719,-7.1992,-7.1992,-7.1992,-7.1992,-7.1992,-7.1992,-7.1992,-7.1992,-7.1992,-7.1992,-7.2187,-7.3086,-7.3945,-7.4805,-7.5703,-7.6562,-7.7187,-7.7187,-7.7187,-7.7187,-7.7187,-7.7096,-7.6978,-7.6958,-7.6895,-7.6853,-7.6761,-7.6713,-7.6699,-7.6741,-7.6748,-7.6774,-7.6843,-7.6822,-7.678,-7.6713,-7.6848,-7.6886,-7.681,-7.6804,-7.6692,-7.6471,-7.6516,-7.6555,-7.66,-7.6692,-7.6748,-7.6748,-7.6668,-7.6573,-7.6526,-7.6438,-7.6397,-6.2636,-6.297,-6.3565,-6.3579,-6.3602,-6.3602,-6.3602,-6.3602,-6.3602,-6.3602,-6.3602,-6.3602,-6.3602,0.0,0.0,0.0,0.0,0.0,0.0,0.0,0.0,0.0,0.0,0.0,0.0,-6.4168,-6.38,0.0,-6.3344,-6.2738,-6.4327,-6.4607,-6.4748,-6.4894,-6.5877,-6.6457,-6.659,-6.6817,-6.6914,-6.6914,-6.6914,-6.6914,-6.6914,-6.6914,-6.6914,-6.6914,-6.6914,-6.6914,-6.6914,-6.6914,-6.6914,-6.6914,-6.6914,-6.6914,-6.7148,-6.8789,-6.9961,-7.082,-7.1719,-7.1992,-7.1992,-7.1992,-7.1992,-7.1992,-7.1992,-7.1992,-7.1992,-7.1992,-7.1992,-7.2187,-7.3086,-7.3945,-7.4805,-7.5703,-7.6562,-7.7187,-7.7187,-7.7187,-7.7187,-7.7187,-7.7096,-7.6961,-7.6827,-7.6692,-7.6618,-7.6618,-7.6485,-7.6471,-7.6591,-7.6609,-7.6699,-7.6965,-7.6868,-7.6848,-7.6972,-7.6868,-7.6804,-7.6804,-7.6804,-7.6741,-7.66,-7.6454,-7.6482,-7.66,-7.6609,-7.6609,-7.6609,-7.6609,-7.6546,-7.6409,-7.6409,-7.6397,-6.3119,-6.3007,-6.2933,-6.349,-6.3602,-6.3602,-6.3602,-6.3602,-6.3602,-6.3602,-6.3602,-6.3602,-6.3602,0.0,0.0,0.0,0.0,0.0,0.0,0.0,0.0,0.0,0.0,0.0,0.0,0.0,0.0,-6.3626,-6.2632,-6.2581,-6.3915,-6.4463,-6.4866,-6.5297,-6.6021,-6.6457,-6.659,-6.6817,-6.6914,-6.6914,-6.6914,-6.6914,-6.6914,-6.6914,-6.6914,-6.6914,-6.6914,-6.6914,-6.6914,-6.6914,-6.6914,-6.6914,-6.6914,-6.6914,-6.7109,-6.8789,-6.9609,-7.0117,-7.1523,-7.1992,-7.1992,-7.1992,-7.1992,-7.1992,-7.1992,-7.1992,-7.1992,-7.1992,-7.1992,-7.207,-7.2344,-7.3515,-7.4687,-7.4961,-7.6133,-7.7187,-7.7187,-7.7143,-7.7089,-7.7089,-7.6878,-7.6721,-7.6669,-7.6545,-7.6482,-7.6482,-7.6416,-7.6432,-7.6471,-7.6482,-7.6564,-7.6838,-7.6827,-7.6848,-7.6978,-7.6961,-7.6882,-7.681,-7.6804,-7.6699,-7.6493,-7.6405,-7.6405,-7.6482,-7.6482,-7.6482,-7.6482,-7.6482,-7.6438,-7.6397,-7.6397,-7.6397,-6.3119,-6.3007,-6.297,-6.349,-6.3602,-6.3602,-6.3602,-6.3602,-6.3602,-6.3602,-6.3602,-6.3602,-6.3602,0.0,0.0,0.0,0.0,0.0,0.0,-6.1078,0.0,0.0,0.0,0.0,0.0,0.0,-6.1337,-6.267,-6.1971,-6.2128,0.0,-6.4274,-6.4833,-6.5282,-6.6021,-6.6457,-6.659,-6.6817,-6.6914,-6.6914,-6.6914,-6.6914,-6.6914,-6.6914,-6.6914,-6.6914,-6.6914,-6.6914,-6.6914,-6.6914,-6.6914,-6.6914,-6.6914,-6.6914,-6.7109,-6.8789,-6.9805,-7.0547,-7.164,-7.1992,-7.1992,-7.1992,-7.1992,-7.1992,-7.1992,-7.1992,-7.1992,-7.1992,-7.1992,-7.1992,-7.1992,-7.3047,-7.4219,-7.4531,-7.5703,-7.6836,-7.7148,-7.7143,-7.7046,-7.7026,-7.6822,-7.6638,-7.6618,-7.6475,-7.6397,-7.6397,-7.6397,-7.6397,-7.6397,-7.6397,-7.6506,-7.6774,-7.6804,-7.6848,-7.6978,-7.6984,-7.6954,-7.681,-7.6804,-7.6699,-7.6465,-7.6444,-7.6397,-7.6397,-7.6397,-7.6397,-7.6397,-7.6397,-7.6397,-7.6397,-7.6397,-7.6397]},{"header":{"parameterUnit":"m.s-1","parameterCategory":1,"la1":30.6,"la2":29.2853,"lo1":-89.7004,"lo2":-87.6739,"dy":0.0162,"dx":0.0183,"nx":112,"ny":82,"refTime":"2026-03-15T00:00:00:Z","depth":0,"parameterNumber":3,"parameterNumberName":"V-component_of_WINDS"},"data":[0.0,0.0,0.0,0.0,0.0,0.0,0.0,0.0,0.0,0.0,0.0,0.0,0.0,0.0,0.0,0.0,0.0,0.0,0.0,0.0,0.0,0.0,0.0,0.0,0.0,0.0,0.0,0.0,0.0,0.0,0.0,0.0,0.0,0.0,0.0,0.0,0.0,0.0,0.0,0.0,0.0,0.0,0.0,0.0,0.0,0.0,0.0,0.0,0.0,0.0,0.0,0.0,0.0,0.0,0.0,0.0,0.0,0.0,0.0,0.0,0.0,0.0,0.0,0.0,0.0,0.0,0.0,0.0,0.0,0.0,0.0,0.0,0.0,0.0,0.0,0.0,0.0,0.0,0.0,0.0,0.0,0.0,0.0,0.0,0.0,0.0,0.0,0.0,0.0,0.0,0.4234,0.752,1.0189,1.0457,0.7633,0.5617,0.29,-0.1059,0.0,0.0,0.0,0.0,0.0,0.0,0.0,0.0,0.0,0.0,0.0,0.0,0.0,0.0,0.0,0.0,0.0,0.0,0.0,0.0,0.0,0.0,0.0,0.0,0.0,0.0,0.0,0.0,0.0,0.0,0.0,0.0,0.0,0.0,0.0,0.0,0.0,0.0,0.0,0.0,0.0,0.0,0.0,0.0,0.0,0.0,0.0,0.0,0.0,0.0,0.0,0.0,0.0,0.0,0.0,0.0,0.0,0.0,0.0,0.0,0.0,0.0,0.0,0.0,0.0,0.0,0.0,0.0,0.0,0.0,0.0,0.0,0.0,0.0,0.0,0.0,0.0,0.0,0.0,0.0,0.0,0.0,0.0,0.0,0.0,0.0,0.0,0.0,0.0,0.0,0.0,0.0,0.0,0.0,0.0,0.0,0.0,0.0,0.0,0.0,0.0,0.0,0.0,0.0,0.3322,0.7864,1.1538,1.1911,0.7551,0.6759,0.423,-0.0977,0.0,0.0,0.0,0.0,0.0,0.0,0.0,0.0,0.0,0.0,0.0,0.0,0.0,0.0,0.0,0.0,0.0,0.0,0.0,0.0,0.0,0.0,0.0,0.0,0.0,0.0,0.0,0.0,0.0,0.0,0.0,0.0,0.0,0.0,0.0,0.0,0.0,0.0,0.0,0.0,0.0,0.0,0.0,0.0,0.0,0.0,0.0,0.0,0.0,0.0,0.0,0.0,0.0,0.0,0.0,0.0,0.0,0.0,0.0,0.0,0.0,0.0,0.0,0.0,0.0,0.0,0.0,0.0,0.0,0.0,0.0,0.0,0.0,0.0,0.0,0.0,0.0,0.0,0.0,0.0,0.0,0.0,0.0,0.0,0.0,0.0,0.0,0.0,0.0,0.0,0.0,0.0,0.0,0.0,0.0,0.0,0.0,0.0,0.0,0.0,0.0,0.0,0.0,0.3874,0.6249,0.9418,1.2198,1.2069,0.7723,0.7038,0.4685,-0.0322,-0.1091,0.0,0.0,0.0,0.0,0.0,0.0,0.0,0.0,0.0,0.0,0.0,0.0,0.0,0.0,0.0,0.0,0.0,0.0,0.0,0.0,0.0,0.0,0.0,0.0,0.0,0.0,0.0,0.0,0.0,0.0,0.0,0.0,0.0,0.0,0.0,0.0,0.0,0.0,0.0,0.0,0.0,0.0,0.0,0.0,0.0,0.0,0.0,0.0,0.0,0.0,0.0,0.0,0.0,0.0,0.0,0.0,0.0,0.0,0.0,0.0,0.0,0.0,0.0,0.0,0.0,0.0,0.0,0.0,0.0,0.0,0.0,0.0,0.0,0.0,0.0,0.0,0.0,0.0,0.0,0.0,0.0,0.0,0.0,0.0,0.0,0.0,0.0,0.0,0.0,0.0,0.0,0.0,0.0,0.0,0.0,0.0,0.0,0.0,0.0,0.0,0.0,0.0,0.6469,0.8898,1.0699,1.2518,1.2162,0.848,0.73,0.496,0.0875,-0.046,0.0,0.0,0.0,0.0,0.0,0.0,0.0,0.0,0.0,0.0,0.0,0.0,0.0,0.0,0.0,0.0,0.0,0.0,0.0,0.0,0.0,0.0,0.0,0.0,0.0,0.0,0.0,0.0,0.0,0.0,0.0,0.0,0.0,0.0,0.0,0.0,0.0,0.0,0.0,0.0,0.0,0.0,0.0,0.0,0.0,0.0,0.0,0.0,0.0,0.0,0.0,0.0,0.0,0.0,0.0,0.0,0.0,0.0,0.0,0.0,0.0,0.0,0.0,0.0,0.0,0.0,0.0,0.0,0.0,0.0,0.0,0.0,0.0,0.0,0.0,0.0,0.0,0.0,0.0,0.0,0.0,0.0,0.0,0.0,0.0,0.0,0.0,0.0,0.0,0.0,0.0,0.0,0.0,0.0,0.0,0.0,0.0,0.0,0.0,0.0,0.0,0.0,0.6469,0.8898,1.0699,1.2518,1.2636,1.0148,0.7962,0.5483,0.2507,0.045,0.0,0.0,0.0,0.0,0.0,0.0,0.0,0.0,0.0,0.0,0.0,0.0,0.0,0.0,0.0,0.0,0.0,0.0,0.0,0.0,0.0,0.0,0.0,0.0,0.0,0.0,0.0,0.0,0.0,0.0,0.0,0.0,0.0,0.0,0.0,0.0,0.0,0.0,0.0,0.0,0.0,0.0,0.0,0.0,0.0,0.0,0.0,0.0,0.0,0.0,0.0,0.0,0.0,0.0,0.0,0.0,0.0,0.0,0.0,0.0,0.0,0.0,0.0,0.0,0.0,0.0,0.0,0.0,0.0,0.0,0.0,0.0,0.0,0.0,0.0,0.0,0.0,0.0,0.0,0.0,0.0,0.0,0.0,0.0,0.0,0.0,0.0,0.0,0.0,0.0,0.0,0.0,0.0,0.0,0.0,0.0,0.0,0.0,0.0,0.0,0.0,0.0,0.5762,0.8237,0.0,1.1605,1.2477,1.0519,0.7995,0.5767,0.3794,0.0,0.0,0.0,0.0,0.0,0.0,0.0,0.0,0.0,0.0,0.0,0.0,0.0,0.0,0.0,0.0,0.0,0.0,0.0,0.0,0.0,0.0,0.0,0.0,0.0,0.0,0.0,0.0,0.0,0.0,0.0,0.0,0.0,0.0,0.0,0.0,0.0,0.0,0.0,0.0,0.0,0.0,0.0,0.0,0.0,0.0,0.0,0.0,0.0,0.0,0.0,0.0,0.0,0.0,0.0,0.0,0.0,0.0,0.0,0.0,0.0,0.0,0.0,0.0,0.0,0.0,0.0,0.0,0.0,0.0,0.0,0.0,0.0,0.0,0.0,0.0,0.0,0.0,0.0,0.0,0.0,0.0,0.0,0.0,0.0,0.0,0.0,0.0,0.0,0.0,0.0,0.0,0.0,0.0,0.0,0.0,0.0,0.0,0.0,0.0,0.0,0.0,0.2609,0.5664,0.7993,0.0,1.1311,1.2494,1.1317,0.8914,0.6853,0.5428,0.0,0.0,0.0,0.0,0.0,0.0,0.0,0.0,0.0,0.0,0.0,0.0,0.0,0.0,0.0,0.0,0.0,0.0,0.0,0.0,0.0,0.0,0.0,0.0,0.0,0.0,0.0,0.0,0.0,0.0,0.0,0.0,0.0,0.0,0.0,0.0,0.0,0.0,0.0,0.0,0.0,0.0,0.0,0.0,0.0,0.0,0.0,0.0,0.0,0.0,0.0,0.0,0.0,0.0,0.0,0.0,0.0,0.0,0.0,0.0,0.0,0.0,0.0,0.0,0.0,0.0,0.0,0.0,0.0,0.0,0.0,0.0,0.0,0.0,0.0,0.0,0.0,0.0,0.0,0.0,0.0,0.0,0.0,0.0,0.0,0.0,0.0,0.0,0.0,0.0,0.0,0.0,0.0,0.0,0.0,0.0,0.0,0.0,0.0,0.0,0.0,0.0,0.4289,0.6414,0.8438,1.0249,1.198,1.2895,1.2745,1.0691,0.8815,0.0,0.0,0.0,0.0,0.0,0.0,0.0,0.0,0.0,0.0,0.0,0.0,0.0,0.0,0.0,0.0,0.0,0.0,0.0,0.0,0.0,0.0,0.0,0.0,0.0,0.0,0.0,0.0,0.0,0.0,0.0,0.0,0.0,0.0,0.0,0.0,0.0,0.0,0.0,0.0,0.0,0.0,0.0,0.0,0.0,0.0,0.0,0.0,0.0,0.0,0.0,0.0,0.0,0.0,0.0,0.0,0.0,0.0,0.0,0.0,0.0,0.0,0.0,0.0,0.0,0.0,0.0,0.0,0.0,0.0,0.0,0.0,0.0,0.0,0.0,0.0,0.0,0.0,0.0,0.0,0.0,0.0,0.0,0.0,0.0,0.0,0.0,0.0,0.0,0.0,0.0,0.0,0.0,0.0,0.0,0.0,0.0,0.0,0.0,0.0,0.0,0.0,0.0,0.2935,0.5723,0.7795,0.8459,1.1033,1.2664,1.2725,1.0615,0.9079,0.8568,0.0,0.0,0.0,0.0,0.0,0.0,0.0,0.0,0.0,0.0,0.0,0.0,0.0,0.0,0.0,0.0,0.0,0.0,0.0,0.0,0.0,0.0,0.0,0.0,0.0,0.0,0.0,0.0,0.0,0.0,0.0,0.0,0.0,0.0,0.0,0.0,0.0,0.0,0.0,0.0,0.0,0.0,0.0,0.0,0.0,0.0,0.0,0.0,0.0,0.0,0.0,0.0,0.0,0.0,0.0,0.0,0.0,0.0,0.0,0.0,0.0,0.0,0.0,0.0,0.0,0.0,0.0,0.0,0.0,0.0,0.0,0.0,0.0,0.0,0.0,0.0,0.0,0.0,0.0,0.0,0.0,0.0,0.0,0.0,0.0,0.0,0.0,0.0,0.0,0.0,0.0,0.0,0.0,0.0,0.0,0.0,0.0,0.0,0.0,0.0,0.0,0.0,0.2367,0.5422,0.7471,0.757,1.0514,1.2535,1.263,1.12,1.0099,0.9416,0.0,0.0,0.0,0.0,0.0,0.0,0.0,0.0,0.0,0.0,0.0,0.0,0.0,0.0,0.0,0.0,0.0,0.0,0.0,0.0,0.0,0.0,0.0,0.0,0.0,0.0,0.0,0.0,0.0,0.0,0.0,0.0,0.0,0.0,0.0,0.0,0.0,0.0,0.0,0.0,0.0,0.0,0.0,0.0,0.0,0.0,0.0,0.0,0.0,0.0,0.0,0.0,0.0,0.0,0.0,0.0,0.0,0.0,0.0,0.0,0.0,0.0,0.0,0.0,0.0,0.0,0.0,0.0,0.0,0.0,0.0,0.0,0.0,0.0,0.0,0.0,0.0,0.0,0.0,0.0,0.0,0.0,0.0,0.0,0.0,0.0,0.0,0.0,0.0,0.0,0.0,0.0,0.0,0.0,0.0,0.0,0.0,0.0,0.0,0.0,0.0,0.0,0.2567,0.5443,0.7473,0.773,1.0552,1.2501,1.2501,1.223,1.1488,1.0113,0.0,0.0,0.0,0.0,0.0,0.0,0.0,0.0,0.0,0.0,0.0,0.0,0.0,0.0,0.0,0.0,0.0,0.0,0.0,0.0,0.0,0.0,0.0,0.0,0.0,0.0,0.0,0.0,0.0,0.0,0.0,0.0,0.0,0.0,0.0,0.0,0.0,0.0,0.0,0.0,0.0,0.0,0.0,0.0,0.0,0.0,0.0,0.0,0.0,0.0,0.0,0.0,0.0,0.0,0.0,0.0,0.0,0.0,0.0,0.0,-0.3306,-0.3437,0.0,0.0,0.0,0.0,0.0,0.0,0.0,0.0,0.0,0.0,0.0,0.0,0.0,0.0,0.0,0.0,0.0,0.0,0.0,0.0,0.0,0.0,0.0,0.0,0.0,0.0,0.0,0.0,0.0,0.0,0.0,0.0,0.0,0.0,0.0,0.0,0.0,0.0,0.0,0.0,0.4148,0.6167,0.8008,0.9294,1.1256,1.2501,1.2501,1.223,1.171,1.0906,1.0146,0.0,0.0,0.0,0.0,0.0,0.0,0.0,0.0,0.0,0.0,0.0,0.0,0.0,0.0,0.0,0.0,0.0,0.0,0.0,0.0,0.0,0.0,0.0,0.0,0.0,0.0,0.0,0.0,0.0,0.0,0.0,0.0,0.0,0.0,0.0,0.0,0.0,0.0,0.0,0.0,0.0,0.0,0.0,0.0,0.0,0.0,0.0,0.0,0.0,0.0,0.0,0.0,0.0,0.0,0.0,0.0,0.0,0.0,0.0,-0.1989,-0.2115,0.0,0.0,0.0,0.0,0.0,0.0,0.0,0.0,0.0,0.0,0.0,0.0,0.0,0.0,0.0,0.0,0.0,0.0,0.0,0.0,0.0,0.0,0.0,0.0,0.0,0.0,0.0,0.0,0.0,0.0,0.0,0.0,0.0,0.0,0.0,0.0,0.0,0.0,0.0,0.0,0.4895,0.6528,0.813,0.9832,1.1488,1.2501,1.2501,1.223,1.1858,1.1345,1.0504,0.0,0.0,0.0,0.0,0.0,0.0,0.0,0.0,0.0,0.0,0.0,0.0,0.0,0.0,0.0,0.0,0.0,0.0,0.0,0.0,0.0,0.0,0.0,0.0,0.0,0.0,0.0,0.0,0.0,0.0,0.0,0.0,0.0,0.0,0.0,0.0,0.0,0.0,0.0,0.0,0.0,0.0,0.0,0.0,0.0,0.0,0.0,0.0,0.0,0.0,0.0,0.0,0.0,-0.0334,-0.0504,-0.0508,-0.0931,-0.0842,-0.0501,-0.0829,-0.0813,-0.0633,-0.1371,0.0,0.0,0.0,0.0,0.0,0.0,0.0,0.0,0.0,0.0,0.0,0.0,0.0,0.0,0.0,0.0,0.0,0.0,0.0,0.0,0.0,0.0,0.1417,0.1417,0.1428,0.1126,0.0073,0.0,0.0,0.0,0.0,0.0,0.0,0.0,0.0,0.0,0.0,0.0,0.5531,0.6986,0.8417,1.0152,1.1574,1.2427,1.2427,1.2176,1.1904,1.164,1.0809,0.9911,0.0,0.0,0.0,0.0,0.0,0.0,0.0,0.0,0.0,0.0,0.0,0.0,0.0,0.0,0.0,0.0,0.0,0.0,0.0,0.0,0.0,0.0,0.0,0.0,0.0,0.0,0.0,0.0,0.0,0.0,0.0,0.0,-0.5373,-0.2803,0.0,0.0,0.0,0.0,0.0,0.0,0.0,0.0,0.0,0.0,0.0,0.0,0.0,0.0245,-0.0082,-0.0084,-0.0085,0.0,-0.0086,-0.0086,-0.0087,-0.0173,-0.0173,-0.0086,-0.0174,0.0,-0.0648,-0.0731,0.0,0.0,0.0,0.0,0.0,0.0,0.0,0.0,0.0,0.0,0.0,0.0,0.0,0.0,0.0,0.0,0.0,0.0,0.0,0.0,0.0,0.0,0.2266,0.2266,0.1966,0.1658,0.1484,0.1186,0.0811,0.0503,0.043,0.0643,0.0,0.0,0.0,0.0,0.0,0.0,0.6849,0.8328,0.9922,1.1652,1.2046,1.2121,1.2121,1.1959,1.1789,1.1633,1.1109,1.0437,0.96,0.8776,0.0,0.0,0.0,0.0,0.0,0.0,0.0,0.0,0.0,0.0,0.0,0.0,0.0,0.0,0.0,0.0,0.0,0.0,0.0,0.0,0.0,0.0,0.0,0.0,0.0,0.0,0.0,0.0,0.0,-0.6343,-0.3847,-0.2477,-0.0778,0.0347,0.0,0.0,0.0,0.0,0.0,0.0,0.0,0.0,0.0,0.0659,0.0416,0.0168,0.0,0.0,0.0,0.0,0.0,0.0,0.0,0.0,0.0,0.0,0.0,-0.0088,-0.0256,-0.0253,-0.0497,-0.0896,0.0,0.0,0.0,0.0,-0.1113,-0.0876,-0.0881,-0.0723,-0.0562,-0.0561,0.0,0.0,0.0,0.0,0.0,0.0,0.0,0.134,0.1948,0.2275,0.2448,0.2448,0.2308,0.2158,0.2207,0.2038,0.1715,0.1091,0.0935,0.114,0.2109,0.2698,0.0,0.0,0.0,0.6885,0.8472,0.9181,1.019,1.1898,1.2135,1.2135,1.2135,1.1918,1.1803,1.1742,1.1314,1.09,1.0561,0.9817,0.8985,0.0,0.0,0.0,0.0,0.0,0.0,0.0,0.0,0.0,0.0,0.0,0.0,0.0,0.0,0.0,0.0,0.0,0.0,0.0,0.0,0.0,0.0,0.0,0.0,0.0,0.0,0.0,0.0,-0.4717,-0.2688,-0.1639,0.0175,0.1404,0.0,0.0,0.0,0.0,0.0,0.0,0.1689,0.1268,0.1014,0.0845,0.0427,0.0086,0.0,0.0,0.0,0.0,0.0,0.0,0.0,0.0,0.0,0.0,0.0,0.0,0.0,0.0,-0.0169,-0.0415,-0.0409,-0.0651,-0.0976,-0.0974,-0.0729,-0.0487,-0.0409,-0.0246,0.0,0.0,0.0,0.0,0.0153,0.0,0.0,0.0,0.0,0.1497,0.2275,0.2451,0.2472,0.2478,0.2497,0.2506,0.2476,0.2446,0.2181,0.1467,0.166,0.2133,0.2934,0.3969,0.0,0.6126,0.0,0.8089,0.9467,0.9919,1.0498,1.1864,1.1952,1.1952,1.1952,1.1843,1.1775,1.1775,1.143,1.1219,1.1219,1.0558,0.9888,0.9168,0.0,0.0,0.0,0.0,0.0,0.0,0.0,0.0,0.0,0.0,0.0,0.0,0.0,0.0,0.0,0.0,0.0,0.0,0.0,0.0,0.0,0.0,0.0,0.0,0.0,0.0,0.0,0.0,0.0,0.0881,0.212,0.0,0.0,0.0,0.0,0.2648,0.2649,0.2648,0.2649,0.2222,0.1709,0.1282,0.0777,0.0349,0.0,0.0,0.0,0.0,0.0,0.0,0.0,0.0,0.0,0.0,0.0,0.0,0.0,0.0,0.0,0.0,0.0,-0.0081,-0.0081,-0.008,-0.008,0.0,0.0,0.0,0.0,0.0,0.0,0.0077,0.0462,0.0535,0.0,0.0,0.1739,0.1897,0.2382,0.2467,0.2476,0.2506,0.2514,0.2506,0.2476,0.2446,0.2256,0.1831,0.2953,0.4032,0.4202,0.0,0.7007,0.6924,0.8654,0.9712,0.9098,1.0451,1.1561,1.164,1.164,1.164,1.164,1.1633,1.1633,1.1633,1.147,1.1382,1.1382,1.1022,1.0652,1.0174,0.918,0.0,0.0,0.0,0.0,0.0,0.0,0.0,0.0,0.0,0.0,0.0,0.0,0.0,0.0,0.0,0.0,0.0,0.0,0.0,0.0,0.0,0.0,0.0,0.0,0.0,0.0,0.0,0.0,0.107,0.2272,0.0,0.2848,0.2804,0.2777,0.2767,0.2748,0.2755,0.2793,0.2009,0.1578,0.1412,0.062,0.0178,0.0,0.0,0.0,0.0,0.0,0.0,0.0,0.0,0.0,0.0,0.0,0.0,0.0,0.0,0.0,0.0,0.0,0.0,0.0,0.0,0.0,0.0,0.0,0.0,0.0,0.0,0.0157,0.0385,0.0229,0.0608,0.1138,0.1376,0.1686,0.1998,0.2413,0.2499,0.25,0.2512,0.2499,0.2482,0.2472,0.3262,0.3801,0.3692,0.4056,0.4905,0.6407,0.7599,0.8486,0.885,1.0004,1.0649,1.0284,1.0852,1.1328,1.1328,1.1328,1.1328,1.1328,1.1328,1.1369,1.1463,1.1423,1.1436,1.1531,1.1246,1.0879,1.0396,0.9565,0.8699,0.0,0.0,0.0,0.0,0.0,0.0,0.0,0.0,0.0,0.0,0.0,0.0,0.0,0.0,0.0,0.0,0.0,0.0,0.0,0.0,0.0,0.0,0.0,0.0,0.0,-0.2974,-0.1157,0.1352,0.2488,0.2964,0.2896,0.2861,0.284,0.2829,0.28,0.2806,0.2856,0.1958,0.1426,0.1436,0.0449,0.0,0.0,0.0,0.0,0.0,0.0,0.0,0.0,0.0,0.0,0.0,0.0,0.0,0.0,0.0,0.0,0.0,0.0,0.0,0.0,0.0,0.0,0.0,0.0,0.0,0.0,0.0,0.0158,0.0387,0.0461,0.0843,0.1383,0.1627,0.1863,0.2177,0.243,0.2507,0.2499,0.2499,0.2476,0.2451,0.244,0.3606,0.4889,0.5382,0.5881,0.6654,0.8011,0.9062,0.9853,1.0152,1.0723,1.1056,1.0894,1.1077,1.1234,1.1234,1.1234,1.1234,1.1234,1.1234,1.1206,1.1307,1.1267,1.1287,1.1389,1.1151,1.0873,1.0525,0.9659,0.8897,0.8236,0.0,0.0,0.0,0.0,0.0,0.0,0.0,0.0,0.0,0.0,0.0,0.0,0.0,0.0,0.0,0.0,0.0,0.0,0.0,0.0,0.0,0.0,0.0,-0.4489,-0.2739,-0.081,0.1913,0.267,0.2953,0.2921,0.2893,0.2887,0.2913,0.289,0.2886,0.2913,0.1895,0.1436,0.1347,0.0449,0.0,0.0,0.0,0.0,0.0,0.0,0.0,0.0,0.0,0.0,0.0,0.0,0.0,0.0,0.0,0.0,0.0,0.0,0.0,0.0,0.0,0.0,0.0,0.0,0.0,0.0,0.0,0.0,0.0157,0.1021,0.1335,0.1492,0.2278,0.2514,0.2512,0.2512,0.2491,0.2546,0.2545,0.2444,0.2414,0.2533,0.371,0.5241,0.6769,0.8343,0.9281,0.8911,1.0191,1.1063,1.0772,1.0786,0.0,1.0873,1.1063,1.1151,1.1151,1.1151,1.1151,1.1151,1.1151,1.1151,1.1151,1.1016,1.0873,1.0873,1.0725,1.0643,1.0487,0.9665,0.9016,0.8712,0.0,0.0,0.0,0.0,0.0,0.0,0.0,0.0,0.0,0.0,0.0,0.0,0.0,0.0,0.0,0.0,0.0,0.0,0.0,0.0,0.0,-0.9913,-0.826,-0.4112,-0.3106,-0.1352,0.2299,0.2995,0.3016,0.2984,0.2954,0.2931,0.2917,0.289,0.2788,0.2434,0.1798,0.1257,0.0898,0.0269,0.0,0.0,0.0,0.0,0.0,0.0,0.0,0.0,0.0,0.0,0.0,0.0,0.0171,0.0508,0.0169,0.0169,0.0505,0.0168,0.0,0.0,0.0,0.0,0.0,0.0,0.0,0.0,0.0,0.0159,0.0471,0.0707,0.1171,0.1709,0.1959,0.2263,0.2481,0.2481,0.2476,0.2771,0.381,0.324,0.2983,0.5265,0.6103,0.6853,0.8353,0.987,1.078,1.0703,1.0955,1.1097,1.0914,1.0853,1.084,1.0799,1.0819,1.0839,1.0839,1.0839,1.0839,1.0839,1.0839,1.0839,1.0839,1.0806,1.0785,1.0785,1.0636,1.035,0.9947,0.963,0.9265,0.0,0.0,0.0,0.0,0.0,0.0,0.0,0.0,0.0,0.0,0.0,0.0,0.0,0.0,0.0,0.0,0.0,0.0,0.0,0.0,0.0,0.0,-0.9385,-0.73,-0.3964,-0.317,-0.146,0.2509,0.3022,0.3046,0.3028,0.2998,0.2973,0.2956,0.2915,0.2801,0.253,0.18,0.1257,0.0988,0.0358,0.0,0.0,0.0,0.0,0.0,0.0,0.0,0.0,0.0,0.0,0.0,0.017,0.0339,0.0421,0.0337,0.0336,0.0418,0.0,0.0,0.0,0.0,0.0,0.0,0.0,0.0,0.0,0.0,0.0158,0.0393,0.0785,0.1251,0.1635,0.2038,0.2336,0.2469,0.2469,0.2985,0.3637,0.4509,0.453,0.4853,0.6608,0.7515,0.8203,0.9147,1.0367,0.0,1.1294,1.1172,1.1023,1.0806,1.0786,1.0819,1.0731,1.0717,1.0717,1.0717,1.0717,1.0717,1.0717,1.0717,0.0,0.0,0.0,1.048,1.0351,1.0256,0.0,0.0,0.0,0.0,0.0,0.0,0.0,0.0,0.9153,0.9105,0.0,0.0,0.0,0.0,0.0,0.0,0.0,0.0,0.0,0.0,0.0,0.0,0.0,0.0,0.0,0.0,-0.8745,-0.6099,-0.3913,-0.2977,-0.1116,0.2538,0.3036,0.3148,0.3148,0.3025,0.3005,0.3002,0.2949,0.2915,0.282,0.1894,0.0,0.0,0.0,0.0,0.0,0.0,0.0,0.0,0.0,0.0,0.0,0.0,0.0,0.0,0.0421,0.0421,0.0084,0.0505,0.0417,0.0,0.0,0.0,0.0,0.0,0.0,0.0,0.0,0.0,0.0,0.0,0.0,0.0157,0.1021,0.1333,0.1486,0.2507,0.272,0.277,0.2767,0.37,0.4747,0.4886,0.5863,0.6898,0.7404,0.8492,0.9357,0.949,1.0434,1.1158,1.1138,1.1016,1.0806,1.0744,1.0717,1.0717,1.0717,1.0717,1.0717,1.0717,1.0717,0.0,1.0717,1.0717,1.0656,1.05,1.0358,1.0161,0.9883,0.9869,0.9869,0.9869,0.9943,1.0011,1.0011,1.0215,1.0283,1.0276,0.989,0.9705,0.0,0.0,0.0,0.0,0.0,0.0,0.0,0.0,0.0,0.0,0.0,0.0,0.0,0.0,0.0,-1.1555,-0.9041,-0.6342,-0.4018,-0.1884,0.0379,0.2756,0.3048,0.3148,0.3148,0.3025,0.2996,0.2972,0.2936,0.2725,0.2343,0.1707,0.1252,0.0887,0.0265,0.0,0.0,0.0,0.0,0.0,0.0,0.0,0.0,0.0,0.0,0.0,0.0084,0.0337,0.0505,0.025,0.0082,0.0,0.0,0.0,0.0,0.0,0.0,0.0,0.0,0.0,0.0,0.0,0.0,0.0155,0.1018,0.1239,0.0,0.3775,0.4288,0.424,0.4272,0.4468,0.5028,0.6286,0.5825,0.6177,0.9873,0.9945,0.9623,1.0741,1.1078,1.1124,1.1009,1.0867,1.0751,1.0724,1.0717,1.0717,1.0717,1.0717,1.0717,1.0717,1.0717,1.0717,1.0717,1.0717,1.0656,1.05,1.0358,1.0256,1.0195,1.0195,1.0195,1.0195,1.0222,1.0236,1.0236,1.0263,1.0283,1.0283,1.0186,1.0172,0.0,0.0,0.0,0.0,0.0,0.0,0.0,0.0,0.0,0.0,0.0,-1.3244,-1.3469,0.0,-1.2501,-1.204,-0.8549,-0.5313,-0.3957,-0.0664,0.1906,0.2957,0.3148,0.3148,0.3148,0.3025,0.2994,0.2964,0.2932,0.2722,0.2246,0.1706,0.1162,0.0707,0.0264,0.0,0.0,0.0,0.0,0.0,0.0,0.0,0.0,0.0,0.0,0.0,0.0253,0.0336,0.0334,0.0082,0.0,0.0,0.0,0.0,0.0,0.0,0.0,0.0,0.0,0.0,0.0,0.0,0.0,0.0156,0.1019,0.1246,0.1619,0.3159,0.4123,0.4522,0.3724,0.4722,0.6078,0.6837,0.697,0.7842,1.0966,1.0966,1.0628,1.1275,1.1267,1.1118,1.0907,1.0819,1.0717,1.0717,1.0717,1.0717,1.0717,1.0717,1.0717,1.0717,1.0717,1.0717,1.0717,1.0649,1.0575,1.0493,1.0358,1.0283,1.0283,1.0283,1.0283,1.0283,1.0351,1.0385,1.0385,1.0466,1.05,1.05,1.05,1.046,0.0,0.0,0.0,0.0,0.0,0.0,0.0,0.0,-1.2787,-1.3068,-1.333,-1.3752,-1.4109,-1.3483,-1.2849,-1.2724,-0.8013,-0.433,-0.3988,0.0095,0.2957,0.2574,0.286,0.3148,0.3148,0.3029,0.3001,0.2964,0.2846,0.2637,0.2246,0.1616,0.1071,0.0705,0.0262,0.0,0.0,0.0,0.0,0.0,0.0,0.0,0.0,0.0,0.0,0.0,0.042,0.0333,0.0,0.0,0.0,0.0,0.0,0.0,0.0,0.0,0.0,0.0,0.0,0.0,0.0,0.0,0.0,0.0157,0.0939,0.1172,0.14,0.2382,0.3797,0.4729,0.3487,0.5275,0.7476,0.7476,0.842,0.9723,1.1253,1.1619,1.1565,1.1382,1.1246,1.1111,1.0867,1.0806,1.0717,1.0717,1.0717,1.0717,1.0717,1.0717,1.0717,1.0717,1.0717,1.0717,1.0717,1.0609,1.0534,1.0534,1.0426,1.0365,1.0365,1.0365,1.0365,1.0365,1.048,1.0534,1.0534,1.0663,1.0717,1.0717,1.0717,1.0656,-1.455,-1.3783,-1.2958,-1.2396,-1.1863,-1.1538,0.0,0.0,-1.24,-1.3224,-1.352,-1.3742,-1.4345,-1.3771,-1.3187,-1.3339,-0.8473,-0.4553,-0.4559,-0.0095,0.2384,0.0571,0.2002,0.3148,0.3148,0.305,0.3024,0.2965,0.2589,0.229,0.2247,0.1257,0.0712,0.0697,0.0261,0.0,0.0,0.0,0.0,0.0,0.0,0.0,0.0,0.0,0.0,0.0,0.0083,0.0082,0.0,0.0,0.0,0.0,0.0,0.0,0.0,0.0,0.0,0.0,0.0,0.0,0.0,0.0,0.0,0.0077,0.0541,0.069,0.1061,0.2841,0.4755,0.6138,0.5991,0.7489,0.9069,0.9069,0.9147,0.9723,1.1253,1.1619,1.1531,1.1246,1.1241,1.1077,1.0792,1.0731,1.0717,1.0717,1.0717,1.0717,1.0717,1.0717,1.0717,1.0717,1.0717,1.0717,1.0717,1.0704,1.0697,1.0697,1.0677,1.067,1.067,1.067,1.067,1.067,1.0683,1.0697,1.0697,1.0711,1.0717,1.0717,1.0717,1.0711,-1.4251,-1.3366,-1.2454,0.0,-1.1933,-1.1675,-1.2191,-1.2472,-1.2926,-1.3624,-1.3975,-1.4226,-1.4733,-1.4002,-1.3437,0.0,-0.8519,-0.4559,-0.4559,-0.1237,0.0953,0.0095,-0.0473,-0.0662,-0.0476,0.0284,0.0938,0.1203,0.1841,0.2097,0.1707,0.1071,0.0618,0.0261,0.0086,0.0,0.0,0.0,0.0,0.0,0.0,0.0,0.0,0.0,0.0,0.0,0.0,0.0,0.0,0.0,0.0,0.0,0.0,0.0,0.0,0.0,0.0,0.0,0.0,0.0,0.0,0.0,0.0,0.0078,0.0464,0.0615,0.0839,0.1866,0.3409,0.4728,0.4743,0.596,0.7553,0.8714,0.893,0.9441,1.1253,1.1619,1.1552,1.1341,1.1226,1.1097,1.0887,1.0778,1.0717,1.0717,1.0717,1.0717,1.0717,1.0717,1.0717,1.0717,1.0717,1.0717,1.0717,1.0717,1.0717,1.0717,1.0717,1.0717,1.0717,1.0717,1.0717,1.0717,1.0717,1.0717,1.0717,1.0717,1.0717,1.0717,1.0717,1.0717,-1.3935,0.0,0.0,-1.2238,-1.2077,-1.1987,-1.2449,-1.2954,-1.3462,-1.4042,-1.4453,-1.4767,-1.4991,-1.4187,-1.3572,-1.367,-0.9208,-0.5605,-0.5415,-0.3041,-0.1426,-0.1801,-0.3668,-0.4876,-0.4997,-0.2998,-0.1394,-0.0552,0.0457,0.1089,0.1168,0.08,0.0352,0.0,0.0,0.0,0.0,0.0,0.0,0.0,0.0,0.0,0.0,0.0,0.0,0.0,0.0,0.0,0.0,0.0,0.0,0.0,0.0,0.0,0.0,0.0,0.0,0.0,0.0,0.0,0.0,0.0,0.0,0.0078,0.0308,0.0459,0.0532,0.0818,0.2067,0.3312,0.3356,0.4872,0.6757,0.8203,0.893,0.9729,1.1109,1.1548,1.1572,1.1423,1.1267,1.1118,1.0907,1.0819,1.0717,1.0717,1.0717,1.0717,1.0717,1.0717,1.0717,1.0717,1.0717,1.0717,1.0717,1.0717,1.0717,1.0717,1.0717,1.0717,1.0717,1.0717,1.0717,1.0717,1.0717,1.0717,1.0717,1.0717,1.0717,1.0717,1.0717,1.0717,0.0,0.0,-1.2506,-1.1932,-1.1987,-1.235,-1.2816,-1.3387,-1.3895,-1.4495,-1.4979,-1.5167,-1.5174,-1.4335,-1.3682,-1.3682,-1.0635,-0.8076,-0.7602,-0.5795,-0.4923,-0.638,-0.7397,-0.8579,0.0,-0.646,-0.3309,-0.1458,-0.1729,-0.1178,0.0629,0.0267,0.0,0.0,0.0,0.0,0.0,0.0,0.0,0.0,0.0,0.0,0.0,0.0,0.0,0.0,0.0,0.0,0.0,0.0,0.0,0.0,0.0,0.0,0.0,0.0,0.0,0.0,0.0,0.0,0.0,0.0,0.0,0.0,0.0,0.0,0.0,0.0,0.1457,0.2909,0.2909,0.5446,0.8054,0.8126,0.9585,1.0972,1.1044,1.1332,1.1572,1.1423,1.1267,1.1118,1.0907,1.0819,1.0717,1.0717,1.0717,1.0717,1.0717,1.0717,1.0717,1.0717,1.0717,1.0717,1.0717,1.0717,1.0717,1.0717,1.0717,1.0717,1.0717,1.0717,1.0717,1.0717,1.0717,1.0717,1.0717,1.0717,1.0717,1.0717,1.0717,1.0717,-1.3802,0.0,-1.2682,-1.2256,-1.2578,-1.308,-1.356,-1.4047,-1.461,-1.5036,-1.5195,-1.5153,-1.5059,-1.4486,-1.3921,-1.3641,-1.0811,-0.8575,-0.816,-0.6939,-0.6252,-0.6658,-0.8377,0.0,0.0,0.0,0.0,-0.5364,-0.3343,-0.1793,-0.1154,-0.0439,0.0,0.0,0.0,0.0,0.0,0.0,0.0,0.0,0.0,0.0,0.0,0.0,0.0,0.0,0.0,0.0,0.0,0.0,0.0,0.0,0.0,0.0,0.0,0.0,0.0,0.0,0.0,0.0,0.0,0.0,0.0,0.0,0.0,0.0,0.0,0.0,0.0437,0.1239,0.2256,0.4146,0.6177,0.748,0.9074,1.0311,1.0606,1.0743,1.0875,1.083,1.0638,1.0569,1.0705,1.0351,1.0155,1.0339,1.0591,1.0717,1.0717,1.0717,1.0717,1.0717,1.0717,1.0717,1.0717,1.0717,1.0717,1.0717,1.0717,1.0717,1.0717,1.0717,1.0717,1.0717,1.0717,1.0717,1.0717,1.0717,1.0717,1.0717,1.0717,1.0717,-1.3938,-1.3441,-1.3045,-1.2508,-1.2926,-1.3528,-1.4067,-1.4504,-1.4912,-1.5343,-1.5248,-1.5065,-1.4916,-1.429,-1.3738,-1.3555,-1.1475,-0.9728,-0.9294,-0.8814,-0.8293,-0.7838,-0.9237,-1.0245,0.0,0.0,0.0,-0.7858,-0.5029,-0.3119,-0.2381,-0.0874,0.0,0.0,0.0,0.0,0.0,0.0,0.0,0.0,0.0,0.0,0.0,0.0,0.0,0.0,0.0,0.0,0.0,0.0,0.0,0.0,0.0,0.0,0.0,0.0,0.0,0.0,0.0,0.0,0.0,0.0,0.0,0.0,0.0,0.0,0.0,0.0,0.0,0.0219,0.1239,0.3057,0.502,0.625,0.828,0.9951,1.0239,1.0383,1.0527,1.0527,1.0352,1.0235,1.0423,1.011,0.9875,1.0013,1.0193,1.0452,1.0658,1.0717,1.0717,1.0717,1.0717,1.0717,1.0717,1.0717,1.0717,1.0717,1.0717,1.0717,1.0717,1.0717,1.0717,1.0717,1.0717,1.0717,1.0717,1.0717,1.0717,1.0717,1.0717,1.0717,-1.4075,-1.3691,-1.3372,-1.2775,-1.3116,-1.3854,-1.4219,-1.4567,-1.4906,-1.5336,-1.5167,-1.4909,0.0,0.0,-1.3259,-1.3425,-1.2535,-1.1623,-1.0913,-1.1038,-1.0835,0.0,0.0,0.0,0.0,0.0,0.0,-0.885,0.0,-0.4982,-0.3173,-0.1222,-0.0086,0.0,0.0,0.0,0.0,0.0,0.0,0.0,0.0,0.0,0.0,0.0,0.0,0.0,0.0,0.0,0.0,0.0,0.0,0.0,0.0,0.0,0.0,0.0,0.0,0.0,0.0,0.0,0.0,0.0,0.0077,0.0076,0.0,0.0074,0.0073,0.0,0.0,0.0,0.0,0.2258,0.4584,0.4657,0.7268,0.9807,0.9879,1.0167,1.0455,1.0455,1.028,1.0189,1.0113,0.9959,0.974,0.9679,0.9661,0.9927,1.0591,1.0651,1.0651,1.0658,1.0658,1.0651,1.0717,1.0717,1.0717,1.0717,1.0717,1.0717,1.0717,1.0717,1.0717,1.0717,1.0717,1.0717,1.0717,1.0717,1.0717,1.0717,1.0717,1.0717,-1.4161,-1.4055,-1.4004,-1.3481,-1.3837,-1.4446,-1.481,-1.5074,-1.5234,-1.5269,-1.5004,-1.4753,0.0,0.0,0.0,-1.3388,-1.3022,0.0,-1.1951,-1.1296,0.0,-1.0272,0.0,-0.9867,-1.0139,-1.0451,0.0,0.0,-0.882,-0.6809,-0.5048,-0.3106,-0.1367,-0.0085,0.0,0.0,0.0,0.0,0.0,0.0,0.0,0.0,0.0,0.0,0.0,0.0,0.0,0.0,0.0,0.0,0.0,0.0,0.0,0.0,0.0,0.0,0.0,0.0,0.0,0.0,0.0,0.0,0.0764,0.151,0.0373,0.081,0.1457,0.0292,0.0,0.0,0.0,0.1457,0.3201,0.4439,0.6253,0.8068,0.923,0.9518,0.959,0.959,0.9709,0.9665,0.9293,0.9555,0.9673,0.934,0.9522,0.9728,0.9927,0.9927,1.006,1.0326,1.0326,1.0452,1.0651,1.0717,1.0717,1.0717,1.0717,1.0717,1.0717,1.0717,1.0717,1.0717,1.0717,1.0717,1.0717,1.0717,1.0717,1.0717,1.0717,1.0717,-1.4711,-1.4563,-1.4589,-1.4165,-1.444,-1.4774,-1.5093,-1.5188,-1.5269,-1.512,-1.4848,0.0,0.0,0.0,0.0,0.0,0.0,0.0,-1.2152,-1.1433,-1.0712,0.0,-0.9936,0.0,-0.9955,-1.0431,-1.0843,0.0,-0.949,-0.749,-0.5807,-0.3778,-0.1871,-0.0084,0.0,0.0,0.0,0.0,0.0,0.0,0.0,0.0,0.0,0.0,0.0,0.0,0.0,0.0,0.0,0.0,0.0,0.0,0.0,0.0,0.0,0.0,0.0,0.0,0.0,0.0,0.0,0.0,0.0612,0.1133,0.0299,0.0589,0.1093,0.0219,0.0,0.0,0.0,0.1166,0.2692,0.4293,0.5891,0.7412,0.8941,0.9302,0.9302,0.9302,0.9396,0.9385,0.9052,0.9204,0.9285,0.9019,0.909,0.9189,0.9189,0.9528,0.9794,0.9927,1.0127,1.0259,1.0459,1.0591,1.0717,1.0717,1.0717,1.0717,1.0717,1.0717,1.0717,1.0717,1.0717,1.0717,1.0717,1.0717,1.0717,1.0717,1.0717,1.0717,-1.527,-1.5177,-1.5174,-1.4657,-1.4848,-1.5041,-1.51,-1.5152,-1.5086,-1.4936,0.0,-1.4448,-1.4326,-1.3839,-1.3575,-1.3745,0.0,-1.2357,-1.2048,-1.1605,-1.0908,-0.9889,-1.0072,-1.0149,-1.0129,-1.0386,-1.0765,-1.1275,-0.9757,-0.7955,-0.6141,-0.4368,-0.2462,-0.0421,-0.0084,0.0,0.0,0.0,0.0,0.0,0.0,0.0,0.0,0.0,0.0,0.0,0.0,0.0,0.0,0.0,0.0,0.0,0.0,0.0,0.0,0.0,0.0,0.0,0.0,0.0,0.0,0.0,0.0153,0.0303,0.0075,0.0148,0.0293,0.0073,0.0,0.0,0.0,0.1169,0.2698,0.4296,0.5891,0.7412,0.8941,0.9302,0.9302,0.9302,0.9302,0.9269,0.9155,0.8976,0.8927,0.8791,0.8682,0.8606,0.859,0.9123,0.9594,0.9594,0.9861,1.006,1.0193,1.0459,1.0651,1.0717,1.0717,1.0717,1.0717,1.0717,1.0717,1.0717,1.0717,1.0717,1.0717,1.0717,1.0717,1.0717,1.0717,1.0717,-1.5244,-1.5177,-1.5254,-1.5039,-1.4905,-1.4932,-1.5167,-1.4959,0.0,0.0,0.0,-1.4333,-1.4306,-1.419,-1.4047,-1.3854,0.0,0.0,0.0,0.0,-1.1105,0.0,0.0,0.0,0.0,0.0,0.0,0.0,-1.0922,-0.9779,-0.7874,-0.7362,-0.5633,-0.2354,-0.075,0.0,0.0,0.0,0.0,0.0,0.0,0.0,0.0,0.0,0.0,0.0,0.0,0.0,0.0,0.0,0.0,0.0,0.0,0.0,0.0,0.0,0.0,0.0,0.0,0.0,0.0,0.0,0.0847,0.1686,0.0379,0.0905,0.1654,0.0376,0.0,0.0,0.0,0.1111,0.2728,0.4304,0.5891,0.7412,0.8941,0.9302,0.9302,0.9302,0.9302,0.9269,0.9155,0.9117,0.9024,0.8802,0.8753,0.8704,0.86,0.8723,0.8923,0.9183,0.925,0.9522,1.0127,1.0259,1.0392,1.0651,1.0717,1.0717,1.0717,1.0717,1.0717,1.0717,1.0717,1.0717,1.0717,1.0717,1.0717,1.0717,1.0717,1.0717,-1.5684,-1.5685,-1.5764,-1.5618,-1.5354,-1.5192,-1.5235,0.0,0.0,0.0,0.0,-1.4299,-1.4299,0.0,0.0,0.0,0.0,0.0,0.0,0.0,0.0,0.0,0.0,0.0,0.0,0.0,-1.1113,-1.1199,-1.1134,-1.027,-0.828,-0.633,-0.4521,-0.2748,-0.0907,0.0,0.0,0.0,0.0,0.0,0.0,0.0,0.0,0.0,0.0,0.0,0.0,0.0,0.0,0.0,0.0,0.0,0.0,0.0,0.0,0.0,0.0,0.0,0.0,0.0,0.0,0.0,0.0465,0.1001,0.023,0.0533,0.0984,0.0227,0.0,0.0,0.0,0.1201,0.2768,0.4384,0.6566,0.8504,0.9173,0.9302,0.9302,0.9302,0.9302,0.9285,0.9231,0.9171,0.9095,0.8976,0.8851,0.8747,0.8687,0.8628,0.8656,0.8851,0.8984,0.9316,0.9861,1.0127,1.0326,1.0651,1.0717,1.0717,1.0717,1.0717,1.0717,1.0717,1.0717,1.0717,1.0717,1.0717,1.0717,1.0717,1.0717,1.0717,-1.6117,-1.6171,-1.6218,-1.6035,-1.5696,-1.5384,-1.5289,-1.4875,0.0,0.0,-1.438,-1.4299,-1.4299,0.0,0.0,0.0,0.0,0.0,0.0,0.0,0.0,0.0,0.0,0.0,0.0,0.0,0.0,-1.1118,-1.1052,-1.0379,-0.8844,-0.5651,-0.3675,-0.3304,-0.1554,-0.0404,0.0,0.0,0.0,0.0,0.0,0.0,0.0,0.0,0.0,0.0,0.0,0.0,0.0,0.0,0.0,0.0,0.0,0.0,0.0,0.0,0.0,0.0,0.0,0.0,0.0,0.0,0.0,0.0,0.0,0.0,0.0,0.0,0.0,0.0076,0.0457,0.1747,0.3487,0.5365,0.7699,0.9459,0.9362,0.9323,0.9302,0.9302,0.9302,0.9302,0.9302,0.9231,0.916,0.9139,0.897,0.884,0.8812,0.8704,0.8628,0.8628,0.8867,0.9123,0.9528,0.9861,1.0259,1.0591,1.0651,1.0717,1.0717,1.0717,1.0717,1.0717,1.0717,1.0738,1.0772,1.0738,1.0751,1.0812,1.0785,1.0785,-1.6282,-1.609,-1.6035,-1.575,-1.5547,-1.5303,-1.4896,0.0,0.0,-1.4346,-1.4306,-1.4299,-1.4299,0.0,0.0,0.0,0.0,0.0,0.0,0.0,0.0,0.0,0.0,0.0,0.0,0.0,0.0,-1.1112,-1.0895,-1.0681,-1.0503,-0.8641,-0.6843,-0.5198,-0.343,-0.1696,0.0,0.0,0.0,0.0,0.0,0.0,0.0,0.0,0.0,0.0,0.0,0.0,0.0,0.0,0.0,0.0,0.0,0.0,0.0,0.0,0.0,0.0,0.0,0.0,0.0,0.0,0.0,0.0,0.0,0.0,0.0,0.0,0.0,0.0312,0.1852,0.3458,0.5361,0.8478,0.9351,0.9487,0.947,0.9383,0.9302,0.9302,0.9302,0.9302,0.9302,0.9296,0.9253,0.915,0.9117,0.9063,0.8879,0.8829,0.8753,0.8753,0.8722,0.8784,0.9117,0.9522,0.9861,1.0193,1.0518,1.0717,1.0717,1.0717,1.0717,1.0717,1.0717,1.0785,1.086,1.0785,1.086,1.1118,1.0989,1.0995,-1.7629,-1.6963,-1.6144,-1.5845,-1.5588,-1.5316,-1.4957,0.0,-1.4468,-1.4333,-1.4224,-1.4163,-1.4163,-1.4034,0.0,0.0,0.0,0.0,0.0,0.0,0.0,0.0,0.0,0.0,0.0,0.0,-1.1194,-1.1009,-1.0835,-1.0737,-1.0737,-0.9059,-0.7237,-0.5474,-0.3661,-0.1852,0.0,0.0,0.0,0.0,0.0,0.0,0.0,0.0,0.0,0.0,0.0,0.0,0.0,0.0,0.0,0.0,0.0,0.0,0.0,0.0,0.0,0.0,0.0,0.0,0.0,0.0,0.0,0.0,0.0,0.0,0.0,0.0,0.0,0.0157,0.0859,0.2957,0.5736,0.8954,0.9731,0.9661,0.9519,0.9449,0.9394,0.9318,0.9302,0.9302,0.9302,0.9302,0.9291,0.9242,0.9177,0.9117,0.8998,0.8954,0.8878,0.8878,0.8704,0.8717,0.905,0.9455,0.9861,1.0193,1.0525,1.0765,1.0786,1.0793,1.09,1.0989,1.0989,1.1016,1.1077,1.1016,1.105,1.1227,1.1104,1.1104,-1.8216,-1.7323,-1.6171,-1.5866,-1.5601,-1.5323,0.0,0.0,-1.4462,-1.4272,-1.415,-1.4055,-1.4014,-1.3878,-1.3777,0.0,0.0,0.0,0.0,0.0,0.0,0.0,0.0,0.0,0.0,-1.1237,-1.1085,-1.0878,-1.0786,-1.0737,-1.0737,-0.953,-0.8024,-0.6165,-0.4462,-0.265,-0.0785,-0.0236,0.0,0.0,0.0,0.0,0.0,0.0,0.0,0.0,0.0,0.0,0.0,0.0,0.0,0.0,0.0,0.0,0.0,0.0,0.0,0.0,0.0,0.0,0.0,0.0,0.0,0.0,0.0,0.0,0.0,0.0,0.0392,0.0863,0.1334,0.3605,0.6407,0.9213,0.9862,0.9791,0.9628,0.9536,0.9459,0.9372,0.9329,0.9302,0.9302,0.9302,0.9302,0.9302,0.9237,0.9182,0.9182,0.9008,0.8933,0.8933,0.8818,0.876,0.903,0.9508,0.9912,1.0181,1.0584,1.09,1.1009,1.1009,1.1056,1.1227,1.1234,1.1185,1.1226,1.1185,1.1206,1.1294,1.1253,1.1253,-1.7411,-1.675,-1.6015,-1.5716,-1.5527,-1.5296,0.0,-1.4624,-1.4428,-1.4136,-1.4075,-1.4027,-1.3871,-1.3729,-1.3634,-1.3634,0.0,0.0,0.0,0.0,0.0,0.0,0.0,0.0,-1.1107,-1.0998,-1.0873,-1.0748,-1.0737,0.0,-1.0737,-1.0623,-0.9759,-0.7944,-0.624,-0.441,-0.2508,-0.0863,0.0,0.0,0.0,0.0,0.0,0.0,0.0,0.0,0.0,0.0,0.0,0.0,0.0,0.0,0.0,0.0,0.0,0.0,0.0,0.0,0.0,0.0,0.0,0.0,0.0,0.0,0.0,0.0,0.0,0.0,0.1177,0.282,0.4544,0.6186,0.7907,0.9625,0.9927,0.9835,0.9835,0.965,0.9487,0.9487,0.9389,0.9302,0.9302,0.9302,0.9302,0.9302,0.9302,0.9302,0.9302,0.9204,0.9133,0.9133,0.8954,0.8879,0.8879,0.9637,1.0121,1.0121,1.0813,1.1227,1.1227,1.1227,1.1227,1.1234,1.1234,1.124,1.1389,1.124,1.1321,1.1613,1.1457,1.147,-1.9456,-1.7966,-1.6307,-1.6103,-1.5649,-1.5167,-1.4821,-1.4624,-1.4428,-1.4136,-1.3987,-1.3871,-1.3722,-1.3573,-1.3471,-1.3471,0.0,0.0,0.0,0.0,0.0,0.0,0.0,0.0,0.0,0.0,-1.0867,-1.0748,-1.0737,-1.0737,-1.0737,-1.0623,-0.9759,-0.7944,-0.6194,-0.4375,-0.2507,-0.0863,0.0,0.0,0.0,-0.0157,-0.0393,-0.0156,-0.0155,-0.0388,-0.0155,0.0,0.0,0.0,0.0,0.0,0.0,0.0,0.0,0.0,0.0,0.0,0.0,0.0,0.0,0.0,0.0,0.0,0.0,0.0,0.0,0.0,0.0392,0.1412,0.4231,0.5405,0.6499,0.9314,0.9992,0.9938,0.9856,0.978,0.9677,0.9519,0.9454,0.94,0.9318,0.9302,0.9302,0.9302,0.9302,0.9302,0.9302,0.9275,0.9253,0.9253,0.9215,0.9128,0.8895,0.9365,0.9781,1.0058,1.0543,1.0928,1.1314,1.1321,1.1369,1.147,1.1477,1.1497,1.1545,1.1497,1.1525,1.1619,1.1572,1.1572,0.0,-1.8363,-1.6664,-1.6314,-1.5781,-1.5234,-1.4986,-1.4585,-1.4278,-1.4034,-1.3865,-1.3715,-1.3566,-1.3464,-1.3403,-1.3403,0.0,0.0,0.0,0.0,0.0,0.0,0.0,0.0,0.0,-1.0851,-1.0819,-1.0742,-1.0737,-1.0715,-1.0672,-1.0558,-0.9946,-0.8781,-0.6477,-0.4596,-0.3447,-0.1177,0.0,0.0,0.0,-0.0236,-0.055,-0.0156,-0.0233,-0.0544,-0.0155,0.0,0.0,0.0,0.0,0.0,0.0,0.0,0.0,0.0,0.0,0.0,0.0,0.0,0.0,0.0,0.0,0.0,0.0,0.0,0.0,0.0,0.0,0.0628,0.337,0.4544,0.5717,0.8375,0.9553,0.9998,0.9921,0.9867,0.9791,0.965,0.9584,0.953,0.9454,0.9443,0.9427,0.9378,0.9372,0.9356,0.9307,0.9302,0.9302,0.9302,0.9302,0.9242,0.9095,0.9437,0.9789,0.9994,1.0492,1.0882,1.1257,1.1406,1.1525,1.1619,1.1619,1.1619,1.1619,1.1619,1.1619,1.1619,1.1619,1.1619,0.0,-1.7989,-1.7173,-1.6557,-1.5935,-1.5321,-1.5255,-1.4632,0.0,-1.3858,-1.3722,-1.358,-1.3417,-1.3383,-1.3383,-1.337,0.0,0.0,0.0,0.0,0.0,0.0,-1.0737,0.0,-1.0737,-1.0737,-1.0737,-1.0737,-1.0737,-1.0683,-1.0645,-1.0449,-1.0329,-1.021,-0.7084,-0.5226,-0.5014,-0.1804,-0.0157,0.0,0.0,-0.0236,-0.055,-0.0157,-0.0236,-0.055,-0.0157,0.0,0.0,0.0,0.0,0.0,0.0,0.0,0.0,0.0,0.0,0.0,0.0,0.0,0.0,0.0,0.0,0.0,0.0,0.0,0.0,0.0,0.0,0.0392,0.2038,0.3681,0.5248,0.7045,0.8686,0.9864,0.9942,0.9932,0.9845,0.984,0.9753,0.9677,0.9671,0.9671,0.9633,0.9514,0.9497,0.9454,0.9334,0.9318,0.9313,0.9307,0.9302,0.9302,0.9302,0.9663,0.9879,0.9879,1.0534,1.0972,1.0972,1.1332,1.1548,1.1619,1.1619,1.1619,1.1619,1.1619,1.1619,1.1619,1.1619,1.1619,-1.9836,0.0,-1.7397,-1.6902,-1.6039,-1.5248,0.0,-1.4555,-1.4,-1.3736,0.0,0.0,-1.3275,-1.3227,-1.3193,0.0,0.0,0.0,0.0,0.0,0.0,-1.0721,-1.0737,-1.0737,-1.0737,-1.0987,-1.107,-1.0737,-1.107,-1.1014,-1.0645,-1.0449,-1.0329,-1.021,-0.8054,-0.636,-0.5014,-0.2978,-0.1255,0.0,0.0,-0.0236,-0.055,-0.0157,-0.0236,-0.055,-0.0157,0.0,0.0,0.0,0.0,0.0,0.0,0.0,0.0,0.0,0.0,0.0,0.0,0.0,0.0,0.0,0.0,0.0,0.0,0.0,0.0,0.0,0.0,0.0392,0.2038,0.282,0.3838,0.6811,0.7829,0.8453,0.9708,0.9998,0.9949,0.9856,0.9818,0.9769,0.9688,0.9671,0.9661,0.9633,0.9628,0.9584,0.9459,0.9443,0.941,0.9313,0.9302,0.9302,0.9302,0.9374,0.959,0.9879,1.0023,1.0389,1.0972,1.1116,1.126,1.1619,1.1619,1.1619,1.1619,1.1619,1.1619,1.1619,1.1619,1.1619,-2.0163,-1.9007,-1.7932,-1.7404,-1.629,-1.5344,-1.5257,0.0,0.0,0.0,0.0,0.0,0.0,0.0,0.0,0.0,-1.284,0.0,0.0,0.0,0.0,-1.1048,-1.082,-1.082,0.0,-1.1237,-1.1403,-1.132,-1.1511,-1.1423,-1.1132,-1.093,-1.0798,-1.0672,-0.8793,-0.6889,-0.5014,-0.3368,-0.1646,0.0,0.0,-0.0236,-0.055,-0.0157,-0.0236,-0.055,-0.0157,0.0,0.0,0.0,0.0,0.0,0.0,0.0,0.0,0.0,0.0,0.0,0.0,0.0,0.0,0.0,0.0,0.0,0.0,0.0,0.0,0.0,0.0,0.0236,0.1098,0.196,0.2977,0.4776,0.5792,0.6811,0.8453,0.8847,0.9061,0.9778,0.9921,0.99,0.984,0.9829,0.9813,0.9753,0.9748,0.9704,0.9584,0.9574,0.9546,0.9476,0.9421,0.9389,0.9389,0.9334,0.9374,0.959,0.9807,1.0095,1.0462,1.0678,1.0966,1.1332,1.1476,1.1619,1.1619,1.1619,1.1619,1.1619,1.1619,1.1619,-2.0279,-1.9246,-1.8305,-1.7814,-1.6625,-1.5451,-1.5335,0.0,0.0,0.0,0.0,0.0,0.0,-1.33,0.0,0.0,0.0,0.0,0.0,0.0,0.0,-1.1457,-1.107,0.0,-1.1486,-1.157,-1.1736,-1.2069,-1.194,-1.1887,-1.1678,-1.1543,-1.1403,-1.1268,-0.9542,-0.7431,-0.5092,-0.3368,-0.1646,0.0,0.0,-0.0236,-0.055,-0.0157,-0.0236,-0.055,-0.0157,0.0,0.0,0.0,0.0,0.0,0.0,0.0,0.0,0.0,0.0,0.0,0.0,0.0,0.0,0.0,0.0,0.0,0.0,0.0,0.0,0.0,0.0,0.0,0.0,0.102,0.2195,0.2429,0.3603,0.5092,0.6733,0.7357,0.7907,0.9314,0.9864,1.0019,1.0019,1.0019,0.9987,0.9883,0.9867,0.9824,0.9709,0.9693,0.9688,0.9671,0.9579,0.9514,0.9514,0.9421,0.9362,0.9362,0.9613,0.9807,0.9879,1.0311,1.0671,1.0972,1.1332,1.1548,1.1619,1.164,1.1653,1.1653,1.1674,1.1687,-2.0968,-1.9465,-1.8035,-1.7334,-1.6364,-1.5335,-1.4858,0.0,0.0,0.0,0.0,0.0,0.0,0.0,-1.3596,0.0,0.0,-1.4207,0.0,0.0,-1.3356,-1.1635,0.0,-1.1902,-1.1986,-1.2318,-1.2401,-1.2152,-1.2269,-1.2212,-1.1678,-1.1543,-1.1403,-1.1268,-1.0946,-0.9071,-0.5558,-0.3525,-0.1646,0.0,0.0,-0.0236,-0.055,-0.0157,-0.0236,-0.055,-0.0157,0.0,0.0,0.0,0.0,0.0,0.0,0.0,0.0,0.0,0.0,0.0,0.0,0.0,0.0,0.0,0.0,0.0,0.0,0.0,0.0,0.0,0.0,0.0,0.0,0.0157,0.0706,0.2195,0.2664,0.3368,0.5014,0.6499,0.7591,0.7829,0.9003,1.0019,1.0019,1.0019,1.0014,0.9992,0.9992,0.9949,0.9829,0.9813,0.9775,0.9677,0.9655,0.9644,0.9644,0.9622,0.9612,0.9612,0.9494,0.9518,0.9879,1.0311,1.0671,1.0972,1.1044,1.126,1.1619,1.1742,1.1796,1.1803,1.1932,1.1993,-2.1263,-1.9929,-1.8452,-1.7264,-1.5963,-1.4966,-1.4636,-1.3944,0.0,0.0,0.0,0.0,0.0,0.0,-1.3911,-1.4137,0.0,-1.4121,-1.5231,-1.4047,-1.3132,0.0,0.0,-1.2152,-1.2401,-1.2567,-1.2701,-1.2706,-1.2732,-1.2588,-1.2284,-1.2056,-1.1953,-1.196,-1.0862,-0.891,-0.6023,-0.3914,-0.188,0.0,0.0,-0.0236,-0.055,-0.0157,-0.0236,-0.055,-0.0157,0.0,0.0,0.0,0.0,0.0,0.0,0.0,0.0,0.0,0.0,0.0,0.0,0.0,0.0,0.0,0.0,0.0,0.0,0.0,0.0,0.0,0.0,0.0,0.0,0.0,0.0157,0.0941,0.1177,0.1647,0.329,0.4933,0.642,0.7357,0.8847,1.0019,1.0019,1.0019,1.0019,1.0019,1.0019,1.0003,0.9943,0.9938,0.9916,0.9867,0.9802,0.9758,0.9758,0.9704,0.9671,0.9671,0.9563,0.9577,0.9798,1.0096,1.0383,1.0534,1.0973,1.1265,1.149,1.1777,1.1952,1.1959,1.2026,1.2135,-2.1535,-2.0386,-1.9091,-1.7579,0.0,-1.492,-1.4572,-1.4216,0.0,0.0,0.0,0.0,0.0,0.0,0.0,-1.5615,-1.4769,-1.4792,-1.7324,-1.5147,-1.3575,-1.4593,-1.33,-1.2567,-1.2816,-1.2899,-1.2923,-1.3186,-1.3044,-1.2895,-1.2739,-1.2583,-1.2501,-1.2501,-1.0934,-0.8905,-0.6336,-0.4693,-0.2584,0.0,-0.0079,-0.0393,-0.0785,-0.0471,-0.0471,-0.0707,-0.0314,-0.0079,0.0,0.0,0.0,0.0,0.0,0.0,0.0,0.0,0.0,0.0,0.0,0.0,0.0,0.0,0.0,0.0,0.0,0.0,0.0,0.0,0.0,0.0,0.0,0.0,0.0,0.0,0.0,0.0314,0.1646,0.3527,0.5405,0.6655,0.8608,1.0019,1.0019,1.0019,1.0019,1.0019,1.0019,1.0019,1.0019,1.0019,1.0019,1.0019,0.9938,0.9878,0.9878,0.9802,0.9753,0.9753,0.9699,0.9671,0.9671,0.9876,1.0093,1.0191,1.0835,1.1279,1.1388,1.187,1.2115,1.204,1.2149,1.2162,-2.1834,-2.0889,-1.9864,-1.8651,-1.7298,0.0,-1.4426,-1.5302,0.0,-1.6734,0.0,0.0,0.0,-1.5884,-1.5247,-1.7191,-1.7753,-1.7423,-1.5787,0.0,-1.641,-1.3224,-1.3148,-1.3321,-1.3321,-1.3321,-1.3336,-1.3186,-1.3044,-1.2895,-1.2739,-1.2583,-1.2501,-1.2501,-1.2347,-1.0314,-0.6336,-0.6176,-0.3992,0.0,-0.0393,-0.0785,-0.1256,-0.1256,-0.1256,-0.1256,-0.0785,-0.0314,0.0,0.0,0.0,0.0,0.0,0.0,0.0,0.0,0.0,0.0,0.0,0.0,0.0,0.0,0.0,0.0,0.0,0.0,0.0,0.0,0.0,0.0,0.0,0.0,0.0,0.0,0.0,0.0,0.0157,0.2743,0.5014,0.517,0.7829,1.0019,1.0019,1.0019,1.0019,1.0019,1.0019,1.0019,1.0019,1.0019,1.0019,1.0019,1.0014,1.0008,1.0008,0.9998,0.9998,0.9998,0.9791,0.9671,0.9671,0.9736,0.9885,1.0191,1.0709,1.1077,1.1388,1.1976,1.2119,1.1745,1.2253,1.2236,-2.2439,-2.1842,-2.1082,-1.9897,-1.9154,0.0,0.0,-1.6073,-1.7052,-1.6593,-1.6687,0.0,0.0,0.0,-1.8659,-1.9353,-1.8779,-1.8437,-1.8942,-1.7465,-1.5925,-1.4863,-1.3969,-1.3811,-1.4946,-1.3967,-1.3683,-1.4639,-1.3532,-1.2752,-1.2596,-1.2535,-1.2501,-1.2501,-1.2501,-1.0624,-0.6725,-0.6414,-0.4305,-0.0393,-0.055,-0.0864,-0.1336,-0.1336,-0.1336,-0.1256,-0.0785,-0.0393,0.0,0.0,0.0,0.0,0.0,0.0,0.0,0.0,0.0,0.0,0.0,0.0,0.0,0.0,0.0,0.0,0.0,0.0,0.0,0.0,0.0,0.0,0.0,0.0,0.0,0.0,0.0,0.0314,0.1334,0.337,0.5327,0.6342,0.8453,1.0019,1.0019,1.0019,1.0019,1.0019,1.0019,1.0019,1.0019,1.0019,1.0019,1.0019,1.0019,1.0019,1.0019,1.0019,1.0019,1.0019,0.9938,0.9889,0.9889,0.9813,0.9883,1.0037,1.0422,1.072,1.088,1.1395,1.1574,1.1426,1.1624,1.165,-2.3185,-2.292,-2.2555,-2.1211,0.0,0.0,-1.7539,-1.7933,-1.8723,-1.8411,-1.8733,-1.8627,-1.7547,0.0,0.0,0.0,-1.9519,-1.8777,-2.0191,-1.7547,-1.5432,-1.5193,-1.4135,-1.4038,-1.5681,-1.4282,-1.3813,-1.5336,-1.3727,-1.2664,-1.2508,-1.2501,-1.2501,-1.2501,-1.2501,-1.0701,-0.6963,-0.6622,-0.4522,-0.0628,-0.0861,-0.1096,-0.1336,-0.1414,-0.1414,-0.1256,-0.0942,-0.0471,0.0,0.0,0.0,0.0,0.0,0.0,0.0,0.0,0.0,0.0,0.0,0.0,0.0,0.0,0.0,0.0,0.0,0.0,0.0,0.0,0.0,0.0,0.0,0.0,0.0,0.0,0.0,0.0314,0.149,0.3448,0.5327,0.6499,0.8453,1.0019,1.0019,1.0019,1.0019,1.0019,1.0019,1.0019,1.0019,1.0019,1.0019,1.0019,1.0019,1.0019,1.0019,1.0019,1.0019,1.0019,1.0019,1.0019,1.0019,0.9938,0.9932,1.0019,1.0323,1.0549,1.0563,1.1107,1.1184,1.1107,1.1262,1.1184,-2.4211,-2.4256,-2.4172,0.0,0.0,0.0,-2.1124,-2.127,-2.1976,-2.277,-2.2921,-2.2196,-1.9796,-1.9634,0.0,-2.1964,-2.0188,-1.8626,-1.8626,-1.7074,-1.5358,-1.3645,-1.3397,-1.3988,-1.544,-1.4135,-1.3762,-1.5088,-1.3661,-1.2664,-1.2508,-1.2501,-1.2501,-1.2501,-1.2501,-1.0701,-0.6959,-0.6799,-0.4717,-0.0628,-0.1397,-0.163,-0.1336,-0.1728,-0.165,-0.1336,-0.1336,-0.0785,0.0,0.0,0.0,0.0,0.0,0.0,0.0,0.0,0.0,0.0,0.0,0.0,0.0,0.0,0.0,0.0,0.0,0.0,0.0,0.0,0.0,0.0,0.0,0.0,0.0,0.0,0.0,0.0,0.0,0.2665,0.5014,0.5014,0.7669,1.0019,1.0019,1.0019,1.0019,0.9942,0.9942,0.9942,0.9942,0.9942,1.0019,1.0019,1.0019,1.0019,1.0019,1.0019,1.0019,1.0019,1.0019,1.0019,1.0019,1.0019,1.0019,1.0019,1.0408,1.0563,1.0563,1.1029,1.1029,1.0641,1.1107,1.1029,-2.4857,-2.4761,0.0,-2.434,0.0,0.0,0.0,0.0,0.0,0.0,-2.2755,-2.251,-2.0579,-2.1406,0.0,-2.283,-2.1512,-1.9998,-1.8789,-1.7074,-1.5358,-1.3645,-1.3308,-1.4356,-1.7199,-1.568,-1.5255,-1.6925,-1.5322,-1.3774,-1.2579,-1.2501,-1.2501,-1.2501,-1.2406,-1.0732,-0.7342,-0.6869,-0.4788,-0.0995,-0.1,-0.1087,-0.1336,-0.2043,-0.1964,-0.1336,-0.1336,-0.0785,0.0,0.0,0.0,0.0,0.0,0.0,0.0,0.0,0.0,0.0,0.0,0.0,0.0,0.0,0.0,0.0,0.0,0.0,0.0,0.0,0.0,0.0,0.0,0.0,0.0,0.0,0.0,0.0314,0.149,0.2507,0.3916,0.6264,0.7595,0.8608,0.9786,1.0019,0.963,0.8453,0.8219,0.8219,0.8219,0.8219,0.8686,0.9864,1.0019,1.0019,1.0019,1.0019,1.0019,1.0019,1.0019,1.0019,1.0019,1.0019,1.0019,1.0019,1.0097,1.0175,1.0175,1.033,1.033,1.0175,1.033,1.033,-2.5322,-2.5335,0.0,-2.5452,-2.5385,-2.5378,-2.5792,0.0,0.0,0.0,-2.3387,-2.3329,-2.1961,-2.2749,0.0,-2.3285,-2.1501,-1.9806,-1.8675,-1.6391,-1.4505,-1.3398,-1.3146,-1.4099,-1.673,-1.5892,-1.5879,-1.7491,-1.5923,-1.4483,-1.3491,-1.2881,-1.2501,-1.2501,-1.2366,-1.075,-0.7531,-0.6871,-0.4807,-0.1211,-0.0987,-0.0997,-0.1326,-0.1646,-0.1571,-0.1256,-0.0942,-0.0471,0.0,0.0,0.0,0.0,0.0,0.0,0.0,0.0,0.0,0.0,0.0,0.0,0.0,0.0,0.0,0.0,0.0,0.0,0.0,0.0,0.0,0.0,0.0,0.0,0.0,0.0,0.0,0.0314,0.1255,0.2038,0.3133,0.5089,0.6027,0.6811,0.7829,0.7985,0.7673,0.6655,0.6499,0.6733,0.7435,0.7513,0.8141,0.9786,1.0019,1.0019,1.0019,1.0019,1.0019,1.0019,1.0019,1.0019,1.0019,1.0019,1.0019,1.0019,1.0019,1.0019,1.0019,1.0019,1.0019,1.0019,1.0019,1.0019,-2.5732,0.0,0.0,-2.6211,-2.6175,0.0,-2.587,-2.593,-2.5773,-2.4816,0.0,-2.4395,-2.3556,-2.3604,-2.3688,-2.3447,-2.0852,-1.8794,-1.8654,-1.5667,-1.3362,-1.3217,-1.3109,-1.3598,-1.5236,-1.5437,-1.6052,-1.755,-1.6236,-1.5242,-1.5165,-1.3568,-1.2726,-1.2713,-1.2422,-1.0726,-0.7506,-0.688,-0.476,-0.1207,-0.1195,-0.1204,-0.1233,-0.0858,-0.0863,-0.1178,-0.0393,0.0,0.0,0.0,0.0,0.0,0.0,0.0,0.0,0.0,0.0,0.0,0.0,0.0,0.0,0.0,0.0,0.0,0.0,0.0,0.0,0.0,0.0,0.0,0.0,0.0,0.0,0.0,0.0,0.0,0.0,0.1177,0.235,0.2507,0.376,0.4857,0.4936,0.5092,0.517,0.5014,0.4857,0.5405,0.7045,0.7435,0.8141,0.9786,1.0019,1.0019,1.0019,1.0019,1.0019,1.0019,1.0019,1.0019,1.0019,1.0019,1.0019,1.0019,1.0019,1.0019,1.0019,1.0019,1.0019,1.0019,1.0019,1.0019,0.0,-2.6293,0.0,0.0,0.0,-2.6786,-2.6618,-2.6321,-2.5773,-2.4816,-2.4625,-2.4456,-2.3784,-2.3724,-2.3748,-2.3688,-2.2006,-2.0572,-2.0342,-1.7351,-1.5127,-1.4875,-1.3641,-1.3934,-1.6769,-1.7011,-1.7578,-1.9132,-1.8971,-1.8214,-1.6922,-1.5327,-1.4352,-1.4218,-1.286,-1.0548,-0.7315,-0.6689,-0.4679,-0.1177,-0.0889,-0.075,-0.0761,-0.1001,-0.1012,-0.0707,-0.0236,0.0,0.0,0.0,0.0,0.0,0.0,0.0,0.0,0.0,0.0,0.0,0.0,0.0,0.0,0.0,0.0,0.0,0.0,0.0,0.0,0.0,0.0,0.0,0.0,0.0,0.0,0.0,0.0,0.0,0.0,0.0314,0.0942,0.2272,0.282,0.3447,0.4779,0.6108,0.6499,0.517,0.3916,0.3681,0.5327,0.6655,0.8141,0.9786,1.0019,1.0019,1.0019,1.0019,1.0019,1.0019,1.0019,1.0019,1.0019,1.0019,1.0019,1.0019,1.0019,1.0019,1.0019,1.0019,1.0019,1.0019,1.0019,1.0019,0.0,0.0,0.0,0.0,0.0,0.0,0.0,-2.6512,-2.5961,-2.4792,-2.4625,-2.4468,-2.3856,-2.376,-2.376,-2.376,-2.227,-2.0974,-2.0737,-1.8394,-1.6608,-1.6416,-1.5527,-1.5623,-1.7318,-1.8131,-1.8905,-1.9736,-1.9811,-1.9434,-1.8592,-1.6906,-1.553,-1.4767,-1.3616,-1.1154,-0.7252,-0.6505,-0.4436,-0.1168,-0.0588,-0.0297,-0.03,-0.077,-0.0703,-0.0314,-0.0079,0.0,0.0,0.0,0.0,0.0,0.0,0.0,0.0,0.0,0.0,0.0,0.0,0.0,0.0,0.0,0.0,0.0,0.0,0.0,0.0,0.0,0.0,0.0,0.0,0.0,0.0,0.0,0.0,0.0,0.0,0.0,0.0236,0.1098,0.1334,0.1569,0.243,0.337,0.3603,0.2743,0.2508,0.3133,0.4779,0.6499,0.8141,0.9786,1.0019,1.0019,1.0019,1.0019,1.0019,1.0019,1.0019,1.0019,1.0019,1.0019,1.0019,1.0019,1.0019,1.0019,1.0019,1.0019,1.0019,1.0019,1.0019,1.0019,0.0,0.0,0.0,0.0,0.0,0.0,0.0,0.0,0.0,-2.479,-2.4552,-2.4407,-2.3856,-2.376,-2.376,-2.376,-2.2328,-2.1197,-2.1034,-1.9311,-1.8,-1.7864,-1.7531,-1.7531,-1.7759,-1.9057,-1.9887,-2.0199,-2.0199,-2.0177,-2.0133,-1.8445,-1.6675,-1.5043,-1.4457,-1.1862,-0.7231,-0.6279,-0.4218,-0.1168,-0.0366,0.0,0.0,-0.0308,-0.0313,0.0,0.0,0.0,0.0,0.0,0.0,0.0,0.0,0.0,0.0,0.0,0.0,0.0,0.0,0.0,0.0,0.0,0.0,0.0,0.0,0.0,0.0,0.0,0.0,0.0,0.0,0.0,0.0,0.0,0.0,0.0,0.0,0.0,0.0,0.0,0.0,0.0079,0.0392,0.0157,0.0079,0.0394,0.1888,0.346,0.4884,0.6773,0.8498,0.9896,1.0052,1.0041,1.0019,1.0019,1.0019,1.0019,1.0019,1.0019,1.0019,1.0019,1.0019,1.0019,1.0019,1.0019,1.0019,1.0019,1.0019,1.0019,1.0019,1.0019,0.0,0.0,0.0,0.0,0.0,0.0,0.0,0.0,0.0,0.0,-2.4287,-2.419,-2.39,-2.376,-2.376,-2.376,-2.3385,-2.2953,-2.2769,-2.1089,-1.9764,-1.9542,-1.8214,-1.7986,-1.9359,-1.9661,-2.0425,-2.1873,-2.196,-2.1853,-2.1638,-2.0007,-1.8244,-1.6339,-1.4826,-1.1814,-0.7059,-0.6177,-0.4218,-0.1168,-0.0369,0.0,0.0,-0.0076,-0.0077,0.0,0.0,0.0,0.0,0.0,0.0,0.0,0.0,0.0,0.0,0.0,0.0,0.0,0.0,0.0,0.0,0.0,0.0,0.0,0.0,0.0,0.0,0.0,0.0,0.0,0.0,0.0,0.0,0.0,0.0,0.0,0.0,0.0,0.0,0.0,0.0,0.0471,0.1881,0.0941,0.0473,0.1988,0.3658,0.4947,0.5158,0.7991,1.0057,1.0188,1.0177,1.0134,1.003,1.0019,1.0019,1.0019,1.0019,1.0019,1.0019,1.0019,1.0019,1.0019,1.0019,1.0019,1.0019,1.0019,1.0019,1.0019,1.0019,1.0019,0.0,0.0,0.0,0.0,0.0,0.0,0.0,0.0,0.0,-2.4392,-2.4118,-2.3904,-2.3784,-2.376,-2.376,-2.376,-2.3502,-2.3176,-2.3133,-2.2148,-2.1314,-2.1199,-2.0575,-2.0425,-2.1112,-2.1187,-2.1499,-2.2259,-2.2334,-2.215,-2.1885,-2.023,-1.8446,-1.6534,-1.4842,-1.1712,-0.7042,-0.617,-0.3998,-0.0511,-0.0147,0.0,0.0,0.0,0.0,0.0,0.0,0.0,0.0,0.0,0.0,0.0,0.0,0.0,0.0,0.0,0.0,0.0,0.0,0.0,0.0,0.0,0.0,0.0,0.0,0.0,0.0,0.0,0.0,0.0,0.0,0.0,0.0,0.0,0.0,0.0,0.0,0.0,0.0,0.0,0.0,0.024,0.0961,0.0481,0.0241,0.0967,0.2578,0.3711,0.3647,0.6732,0.85,0.7405,0.8158,0.8772,0.8707,0.873,0.9095,1.0044,1.0123,1.009,1.0025,1.0019,1.0019,1.0019,1.0019,0.9553,0.8608,0.8608,0.8608,0.8608,0.8608,0.908,0.0,0.0,0.0,0.0,0.0,0.0,0.0,0.0,0.0,0.0,-2.3904,-2.376,-2.376,-2.376,-2.376,-2.376,-2.3393,-2.3121,-2.3121,-2.2661,-2.2334,-2.2334,-2.2334,-2.2334,-2.2334,-2.2334,-2.2334,-2.2334,-2.2334,-2.2114,-2.1788,-2.0168,-1.8311,-1.6458,-1.4802,-1.1865,-0.7621,-0.6025,-0.349,0.0,0.0,0.0,0.0,0.0,0.0,0.0,0.0,0.0,0.0,0.0,0.0,0.0,0.0,0.0,0.0,0.0,0.0,0.0,0.0,0.0,0.0,0.0,0.0,0.0,0.0,0.0,0.0,0.0,0.0,0.0,0.0,0.0,0.0,0.0,0.0,0.0,0.0,0.0,0.0,0.0,0.0,0.0,0.0,0.0,0.0,0.0,0.1469,0.253,0.2538,0.5237,0.6618,0.5213,0.6223,0.7011,0.7051,0.7,0.7525,0.8805,0.9287,0.9476,0.9364,0.9828,1.0052,1.0019,1.0019,0.9158,0.7513,0.7513,0.7513,0.7513,0.7513,0.8375,0.0,0.0,0.0,0.0,0.0,0.0,0.0,0.0,0.0,0.0,-2.3772,-2.376,-2.376,-2.376,-2.376,-2.376,-2.3393,-2.3121,-2.3121,-2.2661,-2.2334,-2.2334,-2.2334,-2.2334,-2.2334,-2.2334,-2.2334,-2.2334,-2.2334,-2.2042,-2.1523,-2.0077,-1.8238,-1.616,-1.4662,-1.2373,-0.9219,-0.5446,-0.2401,0.0,0.0,0.0,0.0,0.0,0.0,0.0,0.0,0.0,0.0,0.0,0.0,0.0,0.0,0.0,0.0,0.0,0.0,0.0,0.0,0.0,0.0,0.0,0.0,0.0,0.0,0.0,0.0,0.0,0.0,0.0,0.0,0.0,0.0,0.0,0.0,0.0,0.0,0.0,0.0,0.0,0.0,0.0,0.0,0.0,0.0,0.0,0.157,0.2652,0.268,0.4358,0.5421,0.5198,0.5273,0.5248,0.5113,0.5105,0.5183,0.5264,0.6886,0.7738,0.7648,0.9317,1.0139,1.0025,1.0019,0.9158,0.7513,0.7513,0.7513,0.7513,0.7513,0.8375,0.0,0.0,0.0,0.0,0.0,0.0,0.0,0.0,0.0,-2.3944,-2.376,-2.376,-2.376,-2.376,-2.376,-2.376,-2.3393,-2.3121,-2.3121,-2.2661,-2.2334,-2.2334,-2.2334,-2.2334,-2.2334,-2.2334,-2.2334,-2.2334,-2.2102,-2.1469,-2.0089,-1.8383,-1.6577,-1.4733,-1.3246,-1.0731,-0.7115,-0.4724,-0.233,0.0,0.0,0.0,0.0,0.0,0.0,0.0,0.0,0.0,0.0,0.0,0.0,0.0,0.0,0.0,0.0,0.0,0.0,0.0,0.0,0.0,0.0,0.0,0.0,0.0,0.0,0.0,0.0,0.0,0.0,0.0,0.0,0.0,0.0,0.0,0.0,0.0,0.0,0.0,0.0,0.0,0.0,0.0,0.0,0.0,0.0,0.0,0.0583,0.1002,0.0999,0.251,0.3187,0.2006,0.2903,0.3555,0.3566,0.3542,0.4019,0.5082,0.5739,0.6526,0.7581,0.8224,0.9058,1.0139,1.0139,0.8757,0.5874,0.5874,0.5874,0.5874,0.5874,0.7357,-2.4289,0.0,0.0,0.0,0.0,0.0,0.0,0.0,0.0,-2.3908,-2.392,-2.4,-2.4,-2.4,-2.4012,-2.384,-2.3393,-2.3121,-2.3121,-2.2661,-2.2334,-2.2334,-2.2334,-2.2334,-2.2334,-2.2334,-2.2334,-2.2334,-2.2017,-2.1082,-1.9268,-1.7506,-1.5435,-1.3182,-1.2115,-0.9723,-0.5808,-0.4796,-0.2838,0.0,0.0,0.0,0.0,0.0,0.0,0.0,0.0,0.0,0.0,0.0,0.0,0.0,0.0,0.0,0.0,0.0,0.0,0.0,0.0,0.0,0.0,0.0,0.0,0.0,0.0,0.0,0.0,0.0,0.0,0.0,0.0,0.0,0.0,0.0,0.0,0.0,0.0,0.0,0.0,0.0,0.0,0.0,0.0,0.0,0.0,0.0,0.0,0.0,0.0,0.1088,0.1346,0.0168,0.1086,0.1834,0.1764,0.1754,0.2244,0.3406,0.3984,0.5119,0.6774,0.7421,0.8276,0.9302,0.9382,0.7664,0.4203,0.5268,0.5561,0.5014,0.5561,0.7373,0.0,0.0,0.0,0.0,0.0,0.0,0.0,0.0,0.0,-2.3847,-2.4148,-2.4467,-2.4492,-2.4492,-2.4332,-2.384,-2.3406,-2.3133,-2.3121,-2.2673,-2.2346,-2.2334,-2.2334,-2.2334,-2.2334,-2.2334,-2.2334,-2.2334,-2.2005,-2.0997,-1.9268,-1.7362,-1.4923,-1.1691,-1.1619,-0.9723,-0.5808,-0.5808,-0.3853,0.0,0.0,0.0,0.0,0.0,0.0,0.0,0.0,0.0,0.0,0.0,0.0,0.0,0.0,0.0,0.0,0.0,0.0,0.0,0.0,0.0,0.0,0.0,0.0,0.0,0.0,0.0,0.0,0.0,0.0,0.0,0.0,0.0,0.0,0.0,0.0,0.0,0.0,0.0,0.0,0.0,0.0,0.0,0.0,0.0,0.0,0.0,0.0,0.0,0.0,0.0,0.0,0.0,0.0,0.0,0.0,0.0,0.0,0.0,0.1681,0.3427,0.5119,0.6931,0.7876,0.771,0.771,0.6003,0.2517,0.5786,0.6584,0.5019,0.6818,0.8517,-2.3447,0.0,0.0,0.0,0.0,0.0,0.0,0.0,0.0,-2.346,-2.3794,-2.4005,-2.3983,-2.4252,-2.4332,-2.384,-2.3562,-2.3273,-2.3145,-2.283,-2.2552,-2.2283,-2.2558,-2.2632,-2.2334,-2.2558,-2.2632,0.0,-2.0858,-1.9249,-1.7643,-1.463,-1.2517,-1.1619,-1.1619,-0.9723,-0.5808,-0.5808,-0.3853,0.0,0.0,0.0,0.0,0.0,0.0,0.0,0.0,0.0,0.0,0.0,0.0,0.0,0.0,0.0,0.0,0.0,0.0,0.0,0.0,0.0,0.0,0.0,0.0,0.0,0.0,0.0,0.0,0.0,0.0,0.0,0.0,0.0,0.0,0.0,0.0,0.0,0.0,0.0,0.0,0.0,0.0,0.0,0.0,0.0,0.0,0.0,0.0,0.0,0.0,0.0,0.0,0.0,0.0,0.0,0.0,0.0,0.0,0.0,0.1681,0.3523,0.5263,0.7096,0.797,0.788,0.788,0.6051,0.2517,0.4753,0.562,0.5219,0.8193,0.9902,-2.2953,-2.3121,0.0,0.0,0.0,0.0,-2.3209,-2.3161,0.0,0.0,-2.3629,-2.382,-2.3798,-2.3901,-2.3967,-2.3952,-2.3629,-2.3357,-2.3157,-2.2967,-2.2851,-2.2594,-2.2781,-2.2781,-2.2558,-2.2632,-2.2558,-2.2334,-2.0348,-1.8435,-1.6654,-1.3426,-1.19,-1.2538,-1.1972,-0.9723,-0.5808,-0.5808,-0.3853,0.0,0.0,0.0,0.0,0.0,0.0,0.0,0.0,0.0,0.0,0.0,0.0,0.0,0.0,0.0,0.0,0.0,0.0,0.0,0.0,0.0,0.0,0.0,0.0,0.0,0.0,0.0,0.0,0.0,0.0,0.0,0.0,0.0,0.0,0.0,0.0,0.0,0.0,0.0,0.0,0.0,0.0,0.0,0.0,0.0,0.0,0.0,0.0,0.0,0.0,0.0,0.0,0.0,0.0,0.0,0.0,0.0,0.0,0.0,0.101,0.2688,0.5287,0.6376,0.694,0.6894,0.6894,0.5796,0.3705,0.5378,0.6647,0.7459,0.9536,1.0454,-2.2351,-2.249,0.0,-2.2688,-2.257,0.0,-2.2806,-2.3034,-2.3127,0.0,0.0,-2.3706,-2.3589,-2.3401,-2.3414,-2.3897,-2.3641,-2.3357,-2.3157,-2.3221,-2.319,-2.2968,-2.293,-2.293,-2.293,-2.2558,-2.2334,-2.2334,-2.0348,-1.8238,-1.6009,-1.3317,-1.2466,-1.388,-1.2323,-0.9651,-0.5808,-0.5736,-0.378,0.0,0.0,0.0,0.0,0.0,0.0,0.0,0.0,0.0,0.0,0.0,0.0,0.0,0.0,0.0,0.0,0.0,0.0,0.0,0.0,0.0,0.0,0.0,0.0,0.0,0.0,0.0,0.0,0.0,0.0,0.0,0.0,0.0,0.0,0.0,0.0,0.0,0.0,0.0,0.0,0.0,0.0,0.0,0.0,0.0,0.0,0.0,0.0,0.0,0.0,0.0,0.0084,0.0253,0.0337,0.0337,0.0337,0.0337,0.0253,0.0,0.0337,0.2017,0.5287,0.579,0.579,0.5371,0.5036,0.5036,0.5371,0.6742,0.8468,1.0427,1.053,1.0574,-2.2015,-2.2004,-2.1987,-2.1987,-2.1912,0.0,-2.1836,-2.1724,-2.174,0.0,-2.2393,-2.2523,-2.2582,-2.3002,-2.3214,-2.3019,-2.3242,-2.3436,-2.3467,-2.3523,-2.3465,-2.3353,-2.3302,-2.3228,-2.293,-2.2856,-2.2632,-2.2334,-2.0348,-1.7888,-1.4893,-1.3951,-1.3603,-1.388,-1.2108,-0.9441,-0.5808,-0.5449,-0.3564,0.0,0.0,0.0,0.0,0.0,0.0,0.0,0.0,0.0,0.0,0.0,0.0,0.0,0.0,0.0,0.0,0.0,0.0,0.0,0.0,0.0,0.0,0.0,0.0,0.0,0.0,0.0,0.0,0.0,0.0,0.0,0.0,0.0,0.0,0.0,0.0,0.0,0.0,0.0,0.0,0.0,0.0,0.0,0.0,0.0,0.0,0.0,0.0,0.0,0.0,0.0,0.0583,0.2015,0.2186,0.2186,0.2186,0.2186,0.1514,0.0084,0.2772,0.47,0.5371,0.8136,0.8303,0.5454,0.2522,0.2522,0.5371,0.5683,0.7501,1.0672,1.0688,1.0704,-2.151,-2.1442,-2.1484,-2.1484,-2.1445,0.0,0.0,-2.1558,-2.174,-2.1736,-2.1886,-2.1932,0.0,0.0,-2.2288,-2.2467,-2.2681,-2.3004,-2.3374,-2.3716,-2.3883,-2.3931,-2.3602,-2.3302,-2.3154,-2.2856,-2.2198,-2.13,-1.9977,-1.8517,-1.6952,-1.499,-1.4236,-1.4937,-1.1657,-0.8564,-0.5808,-0.4651,-0.2692,0.0,0.0,0.0,0.0,0.0,0.0,0.0,0.0,0.0,0.0,0.0,0.0,0.0,0.0,0.0,0.0,0.0,0.0,0.0,0.0,0.0,0.0,0.0,0.0,0.0,0.0,0.0,0.0,0.0,0.0,0.0,0.0,0.0,0.0,0.0,0.0,0.0,0.0,0.0,0.0,0.0,0.0,0.0,0.0,0.0,0.0,0.0,0.0,0.0,0.0,0.0,0.0669,0.2519,0.2688,0.3024,0.3948,0.3192,0.2354,0.143,0.3024,0.4449,0.5371,0.7968,0.8136,0.5454,0.1849,0.1346,0.4029,0.4952,0.7212,1.0737,1.0737,1.0737,-2.1006,-2.0971,-2.1081,-2.1081,-2.1081,-2.1081,0.0,0.0,0.0,0.0,0.0,0.0,0.0,0.0,0.0,0.0,0.0,0.0,0.0,-2.3505,0.0,-2.4181,-2.3702,-2.3351,-2.3227,-2.2707,-2.1781,-2.0428,-1.9927,-1.9598,-1.9551,-1.6174,-1.4867,-1.599,-1.1201,-0.7621,-0.5739,-0.3778,-0.1819,0.0,0.0,0.0,0.0,0.0,0.0,0.0,0.0,0.0,0.0,0.0,0.0,0.0,0.0,0.0,0.0,0.0,0.0,0.0,0.0,0.0,0.0,0.0,0.0,0.0,0.0,0.0,0.0,0.0,0.0,0.0,0.0,0.0,0.0,0.0,0.0,0.0,0.0,0.0,0.0,0.0,0.0,0.0,0.0,0.0253,0.0505,0.0505,0.0842,0.0926,0.0589,0.0505,0.1093,0.2522,0.3024,0.378,0.5287,0.4365,0.3444,0.2772,0.336,0.4197,0.5371,0.7129,0.7212,0.5454,0.2186,0.143,0.3192,0.47,0.7045,1.0232,1.057,1.0737,-2.0841,-2.0779,-2.0735,-2.0735,-2.0735,-2.0735,-2.0735,0.0,-2.0853,-2.0783,0.0,0.0,0.0,0.0,0.0,0.0,0.0,0.0,-2.2546,-2.2644,-2.2804,-2.3133,-2.3311,-2.3201,-2.2668,-2.2496,-2.1958,-2.0796,-2.1078,-2.0934,-1.9977,-1.7308,-1.5778,-1.5628,-1.0771,-0.7259,-0.5307,-0.3346,-0.1603,0.0,0.0,0.0,0.0,0.0,0.0,0.0,0.0,0.0,0.0,0.0,0.0,0.0,0.0,0.0,0.0,0.0,0.0,0.0,0.0,0.0,0.0,0.0,0.0,0.0,0.0,0.0,0.0,0.0,0.0,0.0,0.0,0.0,0.0,0.0,0.0,0.0,0.0,0.0,0.0,0.0,0.0,0.0,0.0,0.1346,0.2354,0.2354,0.378,0.4197,0.2606,0.2354,0.2438,0.2688,0.4113,0.5203,0.5371,0.671,0.6124,0.294,0.5706,0.6878,0.5454,0.7129,0.7212,0.5454,0.3444,0.3276,0.5119,0.5287,0.6459,0.847,0.9981,1.0737,0.0,-2.0488,-2.0484,-2.0629,-2.0665,-2.0665,-2.0665,-2.0665,-2.0665,-2.0665,0.0,0.0,0.0,0.0,0.0,0.0,-2.1316,0.0,0.0,0.0,-2.2478,0.0,0.0,0.0,-2.2224,-2.2219,-2.2253,-2.2186,-2.1691,-2.0953,-2.0025,-1.7521,-1.5566,-1.429,-0.9407,-0.6246,-0.5235,-0.2403,-0.0656,0.0,0.0,0.0,0.0,0.0,0.0,0.0,0.0,0.0,0.0,0.0,0.0,0.0,0.0,0.0,0.0,0.0,0.0,0.0,0.0,0.0,0.0,0.0,0.0,0.0,0.0,0.0,0.0,0.0,0.0,0.0,0.0,0.0,0.0,0.0,0.0,0.0,0.0,0.0,0.0,0.0,0.0842,0.1598,0.1598,0.2186,0.3024,0.4113,0.4952,0.5119,0.4365,0.4281,0.4281,0.4281,0.4952,0.579,0.6878,0.5706,0.4784,0.4281,0.5706,0.7129,0.8386,0.8219,0.7718,0.6961,0.5203,0.4616,0.5371,0.6459,0.7383,0.8136,0.9898,1.0737,-2.0359,-2.0327,-2.0436,-2.0617,-2.0665,-2.0665,-2.0665,-2.0665,-2.0665,-2.0665,-2.0665,0.0,0.0,0.0,0.0,0.0,0.0,-2.1098,0.0,0.0,0.0,0.0,0.0,0.0,0.0,-2.2152,-2.2441,-2.3171,-2.1944,-2.1037,-2.058,-1.7722,-1.5354,-1.3792,-0.8616,-0.5594,-0.509,-0.1676,0.0,0.0,0.0,0.0,0.0,0.0,0.0,0.0,0.0,0.0,0.0,0.0,0.0,0.0,0.0,0.0,0.0,0.0,0.0,0.0,0.0,0.0,0.0,0.0,0.0,0.0,0.0,0.0,0.0,0.0,0.0,0.0,0.0,0.0,0.0,0.0,0.0,0.0,0.0,0.0,0.0,0.0,0.143,0.2856,0.336,0.3862,0.4616,0.5957,0.6543,0.671,0.6208,0.6124,0.579,0.4784,0.5119,0.5706,0.6543,0.47,0.4029,0.5287,0.5371,0.6794,0.9898,0.9226,0.8553,0.8136,0.6794,0.6124,0.6124,0.7467,0.8386,0.8804,1.0148,1.0737,-2.0352,-2.046,-2.0653,-2.0735,-2.0665,-2.0665,-2.0665,-2.0665,-2.0665,-2.0665,-2.0665,-2.0665,-2.0665,0.0,0.0,0.0,0.0,0.0,0.0,0.0,0.0,0.0,0.0,0.0,0.0,-2.2409,-2.2514,0.0,-2.2043,-2.1526,-2.2071,-1.8297,-1.5769,-1.4982,-0.8965,-0.5449,-0.4729,-0.1604,0.0,0.0,0.0,0.0,0.0,0.0,0.0,0.0,0.0,0.0,0.0,0.0,0.0,0.0,0.0,0.0,0.0,0.0,0.0,0.0,0.0,0.0,0.0,0.0,0.0,0.0,0.0,0.0,0.0,0.0,0.0,0.0,0.0,0.0,0.0,0.0,0.0,0.0,0.0,0.0,0.0,0.0,0.143,0.3276,0.5036,0.6794,0.7968,0.7968,0.9476,0.9898,0.8219,0.8052,0.671,0.3192,0.4365,0.47,0.3024,0.4365,0.5371,0.5371,0.5371,0.6208,0.8136,0.9726,0.9815,0.8136,0.8052,0.8052,0.8052,0.8052,0.8975,1.0654,1.0654,1.0737,-2.0509,-2.0472,-2.0448,-2.0629,-2.0665,-2.0665,-2.0665,-2.0665,-2.0665,-2.0665,-2.0665,-2.0665,-2.0665,0.0,0.0,0.0,0.0,0.0,0.0,0.0,0.0,0.0,0.0,0.0,0.0,0.0,0.0,-2.3001,-2.1949,-2.1015,-2.0459,-1.765,-1.5274,-1.3508,-0.8472,-0.5449,-0.4729,-0.1604,0.0,0.0,0.0,0.0,0.0,0.0,0.0,0.0,0.0,0.0,0.0,0.0,0.0,0.0,0.0,0.0,0.0,0.0,0.0,0.0,0.0,0.0,0.0,0.0,0.0,0.0,0.0,0.0,0.0,0.0,0.0,0.0,0.0,0.0,0.0,0.0,0.0,0.0,0.0,0.0926,0.1766,0.1766,0.4197,0.6459,0.7045,0.8637,0.9815,0.9815,1.0315,1.0487,0.9898,0.9815,0.847,0.4868,0.5036,0.47,0.2856,0.3276,0.4113,0.5287,0.5371,0.671,0.9731,1.0398,1.0398,0.9815,0.9815,0.9815,0.9815,0.9815,1.0148,1.0737,1.0737,1.0737,-2.0509,-2.0472,-2.046,-2.0629,-2.0665,-2.0665,-2.0665,-2.0665,-2.0665,-2.0665,-2.0665,-2.0665,-2.0665,0.0,0.0,0.0,0.0,0.0,0.0,-2.0214,0.0,0.0,0.0,0.0,0.0,0.0,-2.2325,-2.2887,-2.1945,-2.1014,0.0,-1.7749,-1.5416,-1.3579,-0.8472,-0.5449,-0.4729,-0.1604,0.0,0.0,0.0,0.0,0.0,0.0,0.0,0.0,0.0,0.0,0.0,0.0,0.0,0.0,0.0,0.0,0.0,0.0,0.0,0.0,0.0,0.0,0.0,0.0,0.0,0.0,0.0,0.0,0.0,0.0,0.0,0.0,0.0,0.0,0.0,0.0,0.0,0.0,0.0,0.0926,0.1933,0.2606,0.5119,0.7379,0.7968,0.9559,1.0737,1.0737,1.0737,1.0737,1.0737,1.0737,0.9309,0.579,0.5371,0.47,0.2856,0.2688,0.3444,0.5287,0.5371,0.671,0.9643,1.0404,1.0737,1.0737,1.0737,1.0737,1.0737,1.0737,1.0737,1.0737,1.0737,1.0737]}]]